[[{"header":{"parameterUnit":"m.s-1","parameterCategory":1,"la1":30.6,"la2":28.766,"lo1":-90.7593,"lo2":-88.6598,"dy":0.0162,"dx":0.0183,"nx":116,"ny":114,"refTime":"2023-04-12T12:00:00:Z","depth":0,"parameterNumber":2,"parameterNumberName":"U-component_of_WINDS"},"data":[0.0,0.0,0.0,0.0,0.0,0.0,0.0,0.0,0.0,0.0,0.0,0.0,0.0,0.0,0.0,0.0,0.0,0.0,0.0,0.0,0.0,0.0,0.0,0.0,0.0,0.0,0.0,0.0,0.0,0.0,0.0,0.0,0.0,0.0,0.0,0.0,0.0,0.0,0.0,0.0,0.0,0.0,0.0,0.0,0.0,0.0,0.0,0.0,0.0,0.0,0.0,0.0,0.0,0.0,0.0,0.0,0.0,0.0,0.0,0.0,0.0,0.0,0.0,0.0,0.0,0.0,0.0,0.0,0.0,0.0,0.0,0.0,0.0,0.0,0.0,0.0,0.0,0.0,0.0,0.0,0.0,0.0,0.0,0.0,0.0,0.0,0.0,0.0,0.0,0.0,0.0,0.0,0.0,0.0,0.0,0.0,0.0,0.0,0.0,0.0,0.0,0.0,0.0,0.0,0.0,0.0,0.0,0.0,0.0,0.0,0.0,0.0,0.0,0.0,0.0,0.0,0.0,0.0,0.0,0.0,0.0,0.0,0.0,0.0,0.0,0.0,0.0,0.0,0.0,0.0,0.0,0.0,0.0,0.0,0.0,0.0,0.0,0.0,0.0,0.0,0.0,0.0,0.0,0.0,0.0,0.0,0.0,0.0,0.0,0.0,0.0,0.0,0.0,0.0,0.0,0.0,0.0,0.0,0.0,0.0,0.0,0.0,0.0,0.0,0.0,0.0,0.0,0.0,0.0,0.0,0.0,0.0,0.0,0.0,0.0,0.0,0.0,0.0,0.0,0.0,0.0,0.0,0.0,0.0,0.0,0.0,0.0,0.0,0.0,0.0,0.0,0.0,0.0,0.0,0.0,0.0,0.0,0.0,0.0,0.0,0.0,0.0,0.0,0.0,0.0,0.0,0.0,0.0,0.0,0.0,0.0,0.0,0.0,0.0,0.0,0.0,0.0,0.0,0.0,0.0,0.0,0.0,0.0,0.0,0.0,0.0,0.0,0.0,0.0,0.0,0.0,0.0,0.0,0.0,0.0,0.0,0.0,0.0,0.0,0.0,0.0,0.0,0.0,0.0,0.0,0.0,0.0,0.0,0.0,0.0,0.0,0.0,0.0,0.0,0.0,0.0,0.0,0.0,0.0,0.0,0.0,0.0,0.0,0.0,0.0,0.0,0.0,0.0,0.0,0.0,0.0,0.0,0.0,0.0,0.0,0.0,0.0,0.0,0.0,0.0,0.0,0.0,0.0,0.0,0.0,0.0,0.0,0.0,0.0,0.0,0.0,0.0,0.0,0.0,0.0,0.0,0.0,0.0,0.0,0.0,0.0,0.0,0.0,0.0,0.0,0.0,0.0,0.0,0.0,0.0,0.0,0.0,0.0,0.0,0.0,0.0,0.0,0.0,0.0,0.0,0.0,0.0,0.0,0.0,0.0,0.0,0.0,0.0,0.0,0.0,0.0,0.0,0.0,0.0,0.0,0.0,0.0,0.0,0.0,0.0,0.0,0.0,0.0,0.0,0.0,0.0,0.0,0.0,0.0,0.0,0.0,0.0,0.0,0.0,0.0,0.0,0.0,0.0,0.0,0.0,0.0,0.0,0.0,0.0,0.0,0.0,0.0,0.0,0.0,0.0,0.0,0.0,0.0,0.0,0.0,0.0,0.0,0.0,0.0,0.0,0.0,0.0,0.0,0.0,0.0,0.0,0.0,0.0,0.0,0.0,0.0,0.0,0.0,0.0,0.0,0.0,0.0,0.0,0.0,0.0,0.0,0.0,0.0,0.0,0.0,0.0,0.0,0.0,0.0,0.0,0.0,0.0,0.0,0.0,0.0,0.0,0.0,0.0,0.0,0.0,0.0,0.0,0.0,0.0,0.0,0.0,0.0,0.0,0.0,0.0,0.0,0.0,0.0,0.0,0.0,0.0,0.0,0.0,0.0,0.0,0.0,0.0,0.0,0.0,0.0,0.0,0.0,0.0,0.0,0.0,0.0,0.0,0.0,0.0,0.0,0.0,0.0,0.0,0.0,0.0,0.0,0.0,0.0,0.0,0.0,0.0,0.0,0.0,0.0,0.0,0.0,0.0,0.0,0.0,0.0,0.0,0.0,0.0,0.0,0.0,0.0,0.0,0.0,0.0,0.0,0.0,0.0,0.0,0.0,0.0,0.0,0.0,0.0,0.0,0.0,0.0,0.0,0.0,0.0,0.0,0.0,0.0,0.0,0.0,0.0,0.0,0.0,0.0,0.0,0.0,0.0,0.0,0.0,0.0,0.0,0.0,0.0,0.0,0.0,0.0,0.0,0.0,0.0,0.0,0.0,0.0,0.0,0.0,0.0,0.0,0.0,0.0,0.0,0.0,0.0,0.0,0.0,0.0,0.0,0.0,0.0,0.0,0.0,0.0,0.0,0.0,0.0,0.0,0.0,0.0,0.0,0.0,0.0,0.0,0.0,0.0,0.0,0.0,0.0,0.0,0.0,0.0,0.0,0.0,0.0,0.0,0.0,0.0,0.0,0.0,0.0,0.0,0.0,0.0,0.0,0.0,0.0,0.0,0.0,0.0,0.0,0.0,0.0,0.0,0.0,0.0,0.0,0.0,0.0,0.0,0.0,0.0,0.0,0.0,0.0,0.0,0.0,0.0,0.0,0.0,0.0,0.0,0.0,0.0,0.0,0.0,0.0,0.0,0.0,0.0,0.0,0.0,0.0,0.0,0.0,0.0,0.0,0.0,0.0,0.0,0.0,0.0,0.0,0.0,0.0,0.0,0.0,0.0,0.0,0.0,0.0,0.0,0.0,0.0,0.0,0.0,0.0,0.0,0.0,0.0,0.0,0.0,0.0,0.0,0.0,0.0,0.0,0.0,0.0,0.0,0.0,0.0,0.0,0.0,0.0,0.0,0.0,0.0,0.0,0.0,0.0,0.0,0.0,0.0,0.0,0.0,0.0,0.0,0.0,0.0,0.0,0.0,0.0,0.0,0.0,0.0,0.0,0.0,0.0,0.0,0.0,0.0,0.0,0.0,0.0,0.0,0.0,0.0,0.0,0.0,0.0,0.0,0.0,0.0,0.0,0.0,0.0,0.0,0.0,0.0,0.0,0.0,0.0,0.0,0.0,0.0,0.0,0.0,0.0,0.0,0.0,0.0,0.0,0.0,0.0,0.0,0.0,0.0,0.0,0.0,0.0,0.0,0.0,0.0,0.0,0.0,0.0,0.0,0.0,0.0,0.0,0.0,0.0,0.0,0.0,0.0,0.0,0.0,0.0,0.0,0.0,0.0,0.0,0.0,0.0,0.0,0.0,0.0,0.0,0.0,0.0,0.0,0.0,0.0,0.0,0.0,0.0,0.0,0.0,0.0,0.0,0.0,0.0,0.0,0.0,0.0,0.0,0.0,0.0,0.0,0.0,0.0,0.0,0.0,0.0,0.0,0.0,0.0,0.0,0.0,0.0,0.0,0.0,0.0,0.0,0.0,0.0,0.0,0.0,0.0,0.0,0.0,0.0,0.0,0.0,0.0,0.0,0.0,0.0,0.0,0.0,0.0,0.0,0.0,0.0,0.0,0.0,0.0,0.0,0.0,0.0,0.0,0.0,0.0,0.0,0.0,0.0,0.0,0.0,0.0,0.0,0.0,0.0,0.0,0.0,0.0,0.0,0.0,0.0,0.0,0.0,0.0,0.0,0.0,0.0,0.0,0.0,0.0,0.0,0.0,0.0,0.0,0.0,0.0,0.0,0.0,0.0,0.0,0.0,0.0,0.0,0.0,0.0,0.0,0.0,0.0,0.0,0.0,0.0,0.0,0.0,0.0,0.0,0.0,0.0,0.0,0.0,0.0,0.0,0.0,0.0,0.0,0.0,0.0,0.0,0.0,0.0,0.0,0.0,0.0,0.0,0.0,0.0,0.0,0.0,0.0,0.0,0.0,0.0,0.0,0.0,0.0,0.0,0.0,0.0,0.0,0.0,0.0,0.0,0.0,0.0,0.0,0.0,0.0,0.0,0.0,0.0,0.0,0.0,0.0,0.0,0.0,0.0,0.0,0.0,0.0,0.0,0.0,0.0,0.0,0.0,0.0,0.0,0.0,0.0,0.0,0.0,0.0,0.0,0.0,0.0,0.0,0.0,0.0,0.0,0.0,0.0,0.0,0.0,0.0,0.0,0.0,0.0,0.0,0.0,0.0,0.0,0.0,0.0,0.0,0.0,0.0,0.0,0.0,0.0,0.0,0.0,0.0,0.0,0.0,0.0,0.0,0.0,0.0,0.0,0.0,0.0,0.0,0.0,0.0,0.0,0.0,0.0,0.0,0.0,0.0,0.0,0.0,0.0,0.0,0.0,0.0,0.0,0.0,0.0,0.0,0.0,0.0,0.0,0.0,0.0,0.0,0.0,0.0,0.0,0.0,0.0,0.0,0.0,0.0,0.0,0.0,0.0,0.0,0.0,0.0,0.0,0.0,0.0,0.0,0.0,0.0,0.0,0.0,0.0,0.0,0.0,0.0,0.0,0.0,0.0,0.0,0.0,0.0,0.0,0.0,0.0,0.0,0.0,0.0,0.0,0.0,0.0,0.0,0.0,0.0,0.0,0.0,0.0,0.0,0.0,0.0,0.0,0.0,0.0,0.0,0.0,0.0,0.0,0.0,0.0,0.0,0.0,0.0,0.0,0.0,0.0,0.0,0.0,0.0,0.0,0.0,0.0,0.0,0.0,0.0,0.0,0.0,0.0,0.0,0.0,0.0,0.0,0.0,0.0,0.0,0.0,0.0,0.0,0.0,0.0,0.0,0.0,0.0,0.0,0.0,0.0,0.0,0.0,0.0,0.0,0.0,0.0,0.0,0.0,0.0,0.0,0.0,0.0,0.0,0.0,0.0,0.0,0.0,0.0,0.0,0.0,0.0,0.0,0.0,0.0,0.0,0.0,0.0,0.0,0.0,0.0,0.0,0.0,0.0,0.0,0.0,0.0,0.0,0.0,0.0,0.0,0.0,0.0,0.0,0.0,0.0,0.0,0.0,0.0,0.0,0.0,0.0,0.0,0.0,0.0,0.0,0.0,0.0,0.0,0.0,0.0,0.0,0.0,0.0,0.0,0.0,0.0,0.0,0.0,0.0,0.0,0.0,0.0,0.0,0.0,0.0,0.0,0.0,0.0,0.0,0.0,0.0,0.0,0.0,0.0,0.0,0.0,0.0,0.0,0.0,0.0,0.0,0.0,0.0,0.0,0.0,0.0,0.0,0.0,0.0,0.0,0.0,0.0,0.0,0.0,0.0,0.0,0.0,0.0,0.0,0.0,0.0,0.0,0.0,0.0,0.0,0.0,0.0,0.0,0.0,0.0,0.0,0.0,0.0,0.0,0.0,0.0,0.0,0.0,0.0,0.0,0.0,0.0,0.0,0.0,0.0,0.0,0.0,0.0,0.0,0.0,0.0,0.0,0.0,0.0,0.0,0.0,0.0,0.0,0.0,0.0,0.0,0.0,0.0,0.0,0.0,0.0,0.0,0.0,0.0,0.0,0.0,0.0,0.0,0.0,0.0,0.0,0.0,0.0,0.0,0.0,0.0,0.0,0.0,0.0,0.0,0.0,0.0,0.0,0.0,0.0,0.0,0.0,0.0,0.0,0.0,0.0,0.0,0.0,0.0,0.0,0.0,0.0,0.0,0.0,0.0,0.0,0.0,0.0,0.0,0.0,0.0,0.0,0.0,0.0,0.0,0.0,0.0,0.0,0.0,0.0,0.0,0.0,0.0,0.0,0.0,0.0,0.0,0.0,0.0,0.0,0.0,0.0,0.0,0.0,0.0,0.0,0.0,0.0,0.0,0.0,0.0,0.0,0.0,0.0,0.0,0.0,0.0,0.0,0.0,0.0,0.0,0.0,0.0,0.0,0.0,0.0,0.0,0.0,0.0,0.0,0.0,0.0,0.0,0.0,0.0,0.0,0.0,0.0,0.0,0.0,0.0,0.0,0.0,0.0,0.0,0.0,0.0,0.0,0.0,0.0,0.0,0.0,0.0,0.0,0.0,0.0,0.0,0.0,0.0,0.0,0.0,0.0,0.0,0.0,0.0,0.0,0.0,0.0,0.0,0.0,0.0,0.0,0.0,1.3241,1.3159,0.0,0.0,0.0,0.0,0.0,0.0,0.0,0.0,0.0,0.0,0.0,0.0,0.0,0.0,0.0,0.0,0.0,0.0,0.0,0.0,0.0,0.0,0.0,0.0,0.0,0.0,0.0,0.0,0.0,0.0,0.0,0.0,0.0,0.0,0.0,0.0,0.0,2.4487,2.6167,2.6681,2.6067,2.6287,2.4349,2.0712,0.0,0.0,0.0,0.0,0.0,0.0,0.0,0.0,0.0,0.0,0.0,0.0,0.0,0.0,0.0,0.0,0.0,0.0,0.0,0.0,0.0,0.0,0.0,0.0,0.0,0.0,0.0,0.0,0.0,0.0,0.0,0.0,0.0,0.0,0.0,0.0,0.0,0.0,0.0,0.0,0.0,0.0,0.0,0.0,0.0,0.0,0.0,0.0,0.0,0.0,0.0,0.0,0.0,0.0,0.0,0.0,0.0,0.0,0.0,0.0,0.0,0.0,0.0,0.0,0.0,0.0,0.0,0.0,0.0,0.0,1.4055,1.381,0.0,0.0,0.0,0.0,0.0,0.0,0.0,0.0,0.0,0.0,0.0,0.0,0.0,0.0,0.0,0.0,0.0,0.0,0.0,0.0,0.0,0.0,0.0,2.6914,2.7187,2.7318,2.7318,2.7539,0.0,0.0,0.0,0.0,0.0,0.0,2.6225,2.6486,2.5864,2.4411,2.6206,2.718,2.7407,2.7465,2.5271,2.1296,2.1643,0.0,0.0,0.0,0.0,0.0,0.0,0.0,0.0,0.0,0.0,0.0,0.0,0.0,0.0,0.0,0.0,0.0,0.0,0.0,0.0,0.0,0.0,0.0,0.0,0.0,0.0,0.0,0.0,0.0,0.0,0.0,0.0,0.0,0.0,0.0,0.0,0.0,0.0,0.0,0.0,0.0,0.0,0.0,0.0,0.0,0.0,0.0,0.0,0.0,0.0,0.0,0.0,0.0,0.0,0.0,0.0,0.0,0.0,0.0,0.0,0.0,0.0,0.0,1.5248,1.5445,1.5533,1.5642,1.5547,1.5364,1.5309,1.4841,1.4217,1.4566,0.0,0.0,0.0,0.0,0.0,0.0,0.0,0.0,0.0,0.0,0.0,0.0,0.0,0.0,0.0,0.0,0.0,0.0,0.0,2.6705,2.7448,2.7565,2.7917,2.8594,2.8645,2.8867,2.9324,0.0,0.0,0.0,0.0,0.0,2.5148,2.6392,2.5756,2.3138,2.4668,2.5289,2.5039,2.5347,2.4857,2.3754,2.4315,2.387,2.2666,0.0,0.0,0.0,0.0,0.0,0.0,0.0,0.0,0.0,0.0,0.0,0.0,0.0,0.0,0.0,0.0,0.0,0.0,0.0,0.0,0.0,0.0,0.0,0.0,0.0,0.0,0.0,0.0,0.0,0.0,0.0,0.0,0.0,0.0,0.0,0.0,0.0,0.0,0.0,0.0,0.0,1.2427,1.3105,0.0,0.0,0.0,0.0,0.0,0.0,0.0,0.0,0.0,0.0,0.0,0.0,0.0,1.5262,1.5323,1.594,1.632,1.6432,1.6646,1.6795,1.6931,1.6822,1.6754,1.67,1.6429,0.0,1.5609,1.5113,0.0,0.0,0.0,0.0,0.0,0.0,0.0,0.0,0.0,0.0,0.0,0.0,0.0,0.0,0.0,0.0,0.0,0.0,0.0,0.0,0.0,2.8172,2.9531,3.0664,3.0742,3.0849,3.1045,2.9735,0.0,0.0,0.0,2.5548,2.5133,2.575,2.5895,2.5476,2.7259,2.7874,2.7362,2.7655,2.7575,2.7175,2.7442,2.6186,2.3861,2.3861,0.0,0.0,0.0,0.0,0.0,0.0,0.0,0.0,0.0,0.0,0.0,0.0,0.0,0.0,0.0,0.0,0.0,0.0,0.0,0.0,0.0,0.0,0.0,0.0,0.0,0.0,0.0,0.0,0.0,0.0,0.0,0.0,0.0,0.0,0.0,0.0,0.0,0.0,0.0,1.2834,1.3566,1.3973,1.4095,1.4,0.0,0.0,0.0,0.0,0.0,0.0,0.0,0.0,0.0,1.5675,1.6266,1.6619,1.6716,1.7298,1.7717,1.788,1.8043,1.8179,1.8314,1.8179,1.8111,1.8097,1.788,1.7568,1.7175,1.6371,1.6157,1.6361,0.0,0.0,0.0,0.0,1.5031,1.5105,0.0,0.0,0.0,0.0,0.0,0.0,0.0,0.0,0.0,0.0,0.0,0.0,2.6781,2.9184,3.1367,3.257,3.2687,3.2609,3.2374,3.0596,2.8916,2.751,2.6306,2.5586,2.5465,2.6288,2.7364,2.8792,3.0315,3.049,2.9392,2.982,2.9847,2.9499,2.9633,2.8083,2.5304,2.5186,2.4556,2.3549,0.0,0.0,0.0,0.0,0.0,0.0,0.0,0.0,0.0,0.0,0.0,0.0,0.0,0.0,0.0,0.0,0.0,0.0,0.0,0.0,0.0,0.0,0.0,0.0,0.0,0.0,0.0,0.0,0.0,0.0,0.0,0.0,0.0,0.0,0.0,0.0,0.0,1.3743,1.4448,1.4706,1.4958,1.5018,0.0,0.0,0.0,0.0,0.0,0.0,1.608,1.6469,1.6822,1.7188,1.7717,1.807,1.8219,1.8694,1.8993,1.916,1.9183,1.925,1.9305,1.9196,1.9156,1.9101,1.902,1.8843,1.8531,1.7514,1.7026,1.6917,1.6784,1.6578,1.6289,1.6171,1.609,1.6058,0.0,0.0,0.0,0.0,0.0,0.0,0.0,0.0,0.0,0.0,0.0,2.7625,2.8387,3.096,3.3008,3.3938,3.4016,3.3665,3.2812,3.2672,3.1317,2.8486,2.8265,2.7519,2.6012,2.8955,3.1109,3.2223,3.2479,3.1382,2.9028,2.9927,3.0079,2.9499,3.0105,2.9169,2.7162,2.6827,2.6186,2.5251,2.3825,0.0,0.0,0.0,0.0,0.0,0.0,0.0,0.0,0.0,0.0,0.0,0.0,0.0,0.0,0.0,0.0,0.0,0.0,0.0,0.0,0.0,0.0,0.0,0.0,0.0,0.0,0.0,0.0,0.0,0.0,0.0,0.0,0.0,0.0,0.0,0.0,0.0,0.0,1.5303,1.5995,0.0,0.0,0.0,0.0,1.5995,1.6402,1.6865,1.746,1.7962,1.8477,1.9047,1.9373,1.9664,1.9766,1.9942,2.0024,2.0037,1.9888,1.9766,1.9644,1.9691,1.9549,1.9413,1.9549,1.9522,1.9305,1.8396,1.8016,1.7948,1.7243,1.7121,1.7256,1.6551,1.6374,1.6469,0.0,0.0,0.0,0.0,0.0,0.0,0.0,0.0,2.3132,2.2529,2.577,2.8045,2.7912,3.1825,3.4922,3.6055,3.6133,3.6016,3.5703,3.3391,3.0842,2.8177,2.6319,2.6075,2.7659,3.1854,3.3507,3.2508,3.2857,3.1826,2.9588,3.0301,3.0515,3.0354,3.0728,3.0515,2.9766,2.8911,2.7896,2.6854,2.5945,2.4626,0.0,0.0,0.0,0.0,0.0,0.0,0.0,0.0,0.0,0.0,0.0,0.0,0.0,0.0,0.0,0.0,0.0,0.0,0.0,0.0,0.0,0.0,0.0,0.0,0.0,0.0,0.0,0.0,0.0,0.0,0.0,0.0,0.0,0.0,0.0,0.0,0.0,1.9466,1.8174,0.0,1.7297,1.7297,1.7365,1.7514,1.8016,1.8545,1.9061,1.9332,1.9603,1.9929,2.0119,2.0254,2.0295,2.03,2.0376,2.0376,2.0336,2.0282,2.0227,2.0132,2.0064,1.9948,1.9956,1.9861,1.9698,1.9481,1.9101,1.8626,1.8165,1.7989,1.7962,1.7704,1.7568,1.7541,0.0,0.0,0.0,0.0,0.0,0.0,0.0,2.3339,2.3451,2.3456,2.6979,2.9457,2.9391,3.3464,3.6719,3.7851,3.7812,3.7422,3.6719,3.3614,3.0799,2.8418,2.7009,2.7801,3.096,3.4186,3.4805,3.2764,3.3246,3.24,3.0335,3.1049,3.1443,3.1443,3.169,3.1877,3.1904,3.1022,3.0034,2.8938,2.7976,2.636,2.4529,0.0,0.0,0.0,0.0,0.0,0.0,0.0,0.0,0.0,0.0,0.0,0.0,0.0,0.0,0.0,0.0,0.0,0.0,0.0,0.0,0.0,0.0,0.0,0.0,0.0,0.0,0.0,0.0,0.0,0.0,0.0,0.0,0.0,0.0,2.1201,2.2222,2.3689,2.2587,2.123,2.0184,2.0086,1.9762,1.8875,1.9305,1.978,2.0227,2.0404,2.0539,2.0702,2.0783,2.0773,2.0773,2.0773,2.0773,2.0773,2.0729,2.0661,2.0607,2.0471,2.0349,2.0254,2.0241,2.0132,1.9956,2.0119,1.9861,1.9345,1.9074,1.8871,1.8694,1.8694,1.8572,1.8409,0.0,0.0,0.0,0.0,0.0,0.0,2.2035,2.2569,2.365,2.6034,2.9202,3.1701,3.2939,3.5962,3.8281,3.9101,3.8865,3.7695,3.5519,3.3531,3.1461,2.9276,3.0787,3.2972,3.5729,3.5836,3.5006,3.3264,3.3753,3.3019,3.1289,3.2219,3.2621,3.2648,3.2942,3.3187,3.3427,3.316,3.2545,3.1684,2.9847,2.843,2.7188,0.0,0.0,0.0,0.0,0.0,0.0,0.0,0.0,0.0,0.0,0.0,0.0,0.0,0.0,0.0,0.0,0.0,0.0,0.0,0.0,0.0,0.0,0.0,0.0,0.0,0.0,0.0,0.0,0.0,0.0,0.0,0.0,0.0,2.4111,2.5983,2.7471,2.7799,2.8895,2.8148,2.4447,2.4289,2.3242,2.0182,2.0187,2.0553,2.1001,2.1136,2.1285,2.1435,2.1368,2.1368,2.1368,2.1368,2.1421,2.1355,2.1136,2.0933,2.077,2.0634,2.0404,2.0132,2.0368,2.0376,2.0132,2.0282,2.0254,2.0105,1.9942,1.9698,1.9427,1.9367,1.925,1.8993,0.0,0.0,0.0,0.0,0.0,0.0,2.3795,2.4172,2.4639,2.5218,2.9002,3.1709,3.1971,3.5851,3.8476,3.8711,3.8906,3.7851,3.5081,3.4921,3.3912,3.1534,3.277,3.4087,3.5422,3.6476,3.6303,3.4788,3.376,3.3042,3.2519,3.2973,3.3293,3.3534,3.3828,3.4122,3.4389,3.4523,3.4442,3.4042,3.2064,3.0434,2.9098,0.0,0.0,0.0,0.0,0.0,0.0,0.0,0.0,0.0,0.0,0.0,0.0,0.0,0.0,0.0,0.0,0.0,0.0,0.0,0.0,0.0,0.0,0.0,0.0,0.0,0.0,0.0,0.0,0.0,0.0,0.0,2.6644,2.9409,2.9671,3.035,3.1272,3.2549,3.1556,2.9325,2.5646,2.5676,2.4469,2.1096,2.1014,2.1231,2.1475,2.1421,2.1435,2.1597,2.1489,2.1328,2.1285,2.1285,2.1231,2.1123,2.1041,2.0987,2.0933,2.0892,2.0824,2.0756,2.0838,2.077,2.0594,2.0634,2.0553,2.0376,2.001,1.9766,1.959,1.9468,1.9305,1.9128,0.0,0.0,0.0,0.0,0.0,0.0,2.5572,2.6134,2.6852,2.7819,3.0925,3.3105,3.3415,3.6544,3.8669,3.8865,3.9062,3.8076,3.5398,3.5547,3.5337,3.4478,3.6494,3.7812,3.8174,3.8391,3.7831,3.6461,3.4648,3.3801,3.3908,3.4202,3.4442,3.4629,3.479,3.503,3.5377,3.5485,3.5565,3.5458,3.4255,3.2732,3.1156,3.0728,2.9633,2.8297,2.8163,2.7908,2.7561,2.66,0.0,0.0,0.0,0.0,0.0,0.0,0.0,0.0,0.0,0.0,0.0,0.0,0.0,0.0,0.0,0.0,0.0,0.0,0.0,0.0,0.0,0.0,0.0,0.0,3.0523,3.3482,3.5383,3.5577,3.5904,3.7071,3.5066,3.2109,2.8469,2.7087,2.5027,2.1659,2.1543,2.1692,2.1842,2.1828,2.1828,2.1842,2.1828,2.1706,2.1489,2.157,2.1516,2.1367,2.1313,2.1245,2.1177,2.1123,2.1014,2.0919,2.096,2.0919,2.077,2.0838,2.077,2.0607,0.0,0.0,0.0,0.0,1.9657,1.9576,0.0,0.0,0.0,0.0,0.0,0.0,2.7422,2.825,2.9524,3.1841,3.3633,3.5,3.5825,3.7539,3.875,3.918,3.9101,3.8281,3.6406,3.5612,3.6109,3.8091,4.1044,4.2633,4.2709,4.1371,3.9852,3.8159,3.6308,3.5397,3.5297,3.5565,3.5698,3.5671,3.5671,3.5885,3.6179,3.6179,3.6179,3.6179,3.6179,3.5004,3.3213,3.2706,3.1824,3.0881,3.0568,3.0069,2.9535,2.9152,0.0,0.0,0.0,0.0,0.0,0.0,0.0,0.0,0.0,0.0,0.0,0.0,0.0,0.0,0.0,0.0,0.0,0.0,0.0,0.0,0.0,0.0,0.0,0.0,3.3887,3.6705,4.0602,4.0695,4.0535,4.1016,3.8595,3.5484,3.1817,2.8464,2.5198,2.2002,2.1869,2.2004,2.214,2.2276,0.0,0.0,0.0,2.2235,2.195,2.2072,2.2059,2.1896,2.176,2.1625,2.1422,2.1367,2.1177,2.0933,2.1068,2.1041,2.0878,2.1001,2.0946,2.077,2.0594,2.0368,2.0246,2.0119,2.0064,2.0064,0.0,0.0,0.0,0.0,0.0,0.0,2.9584,3.0074,3.0702,3.1503,3.3437,3.4922,3.5469,3.7344,3.875,3.918,3.8555,3.8164,3.8086,3.5387,3.6566,4.279,4.3662,4.4565,4.5778,4.5535,4.3589,3.9868,3.9439,3.8127,3.5912,3.5965,3.6099,3.634,3.634,3.65,3.6767,3.6767,3.6767,3.6767,3.6767,3.6099,3.511,3.4977,3.4523,3.3959,3.3905,3.3587,3.3106,3.1851,3.1183,3.0862,3.0541,2.9446,0.0,0.0,0.0,0.0,0.0,0.0,0.0,0.0,0.0,0.0,0.0,0.0,0.0,0.0,0.0,0.0,0.0,0.0,0.0,3.4211,3.744,4.0357,4.2395,4.2592,4.2378,4.2004,3.9395,3.6206,3.2464,2.9223,2.588,2.2414,2.2235,2.2316,2.2466,2.2398,2.2425,2.2642,2.2547,2.2549,2.2494,2.2344,2.2221,2.2059,2.1923,0.0,2.1801,2.1896,2.1896,2.1842,2.1882,2.1747,2.1489,2.1394,2.119,2.0919,2.0526,2.0349,2.0282,1.9888,1.982,1.9888,0.0,0.0,0.0,0.0,0.0,0.0,3.0195,3.0586,3.0976,3.1172,3.2695,3.4062,3.4961,3.6211,3.7344,3.8164,3.8047,3.8476,3.9842,3.928,4.104,4.5777,4.7031,4.8073,4.9038,4.8302,4.6861,4.4724,4.207,4.0051,3.8622,3.7183,3.666,3.6954,3.7088,3.7301,3.7595,3.7595,3.7595,3.7595,3.7406,3.7059,3.6687,3.6393,3.6206,3.6072,3.6072,3.5885,3.5485,3.4442,3.3881,3.3561,3.3133,3.2278,3.1183,0.0,0.0,0.0,0.0,0.0,0.0,0.0,0.0,0.0,0.0,0.0,0.0,0.0,0.0,3.068,3.2831,0.0,3.6309,3.7797,4.0146,4.2138,4.3153,4.3554,4.3607,4.3153,3.8709,3.4937,3.3046,2.8209,2.4398,2.27,2.2642,2.271,2.2778,2.2778,2.2818,2.2886,2.2886,2.2818,2.2683,2.2669,2.2601,2.2452,2.2371,2.2289,2.2221,2.2303,2.2249,2.2113,2.2113,2.1991,2.176,2.153,2.1299,2.1068,2.0783,2.058,2.0404,2.0187,2.0051,1.9956,0.0,0.0,0.0,0.0,0.0,0.0,0.0,3.0664,3.0937,3.1133,3.2109,3.3281,3.457,3.5117,3.5781,3.6719,3.75,3.8828,4.1054,4.3281,4.5664,4.8203,5.0156,5.1406,5.1865,5.069,4.9829,4.9385,4.5059,4.2458,4.1353,3.9109,3.786,3.7569,3.7916,3.821,3.845,3.8504,3.8562,3.8535,3.8183,3.8076,3.7966,3.7432,3.7382,3.7569,3.7569,3.7275,3.6819,3.6393,3.6046,3.5725,3.5324,3.5057,3.4416,3.1979,3.1476,0.0,0.0,0.0,0.0,0.0,0.0,0.0,0.0,3.3427,3.4095,3.4364,3.5164,3.6153,3.7382,3.8638,3.992,4.1283,4.2378,4.3207,4.3714,4.4249,4.4476,4.4356,3.7917,3.3558,3.3558,2.7067,2.2886,2.29,2.3022,2.3103,2.3103,2.3198,2.3198,2.3063,2.3171,2.3117,2.2873,2.2954,2.294,2.2832,2.2805,2.271,2.2601,2.2698,2.252,2.2289,2.2221,2.2113,2.195,2.1652,2.1462,2.134,2.119,2.0946,2.0597,2.0516,2.0417,2.0227,0.0,0.0,0.0,0.0,0.0,0.0,0.0,0.0,3.1201,3.1944,3.2461,3.3281,3.457,3.5117,3.5273,3.5,3.6762,3.8828,4.1054,4.3555,4.6714,5.082,5.1953,5.2891,5.366,5.3561,5.242,5.0268,4.9671,4.6912,4.218,4.2059,4.0689,3.824,3.8771,3.8953,3.9033,3.9332,3.9466,3.9412,3.906,3.8953,3.8926,3.858,3.837,3.8214,3.8214,3.7622,3.6872,3.6819,3.666,3.642,3.6579,3.6874,3.6687,3.4869,3.3935,3.3,3.0354,2.9152,2.9045,3.0702,3.2144,3.3534,0.0,3.65,3.7812,3.8076,3.8825,3.9893,4.131,4.1924,4.2539,4.3501,4.4008,4.4289,4.4703,4.5024,4.5318,4.5463,3.8648,3.3932,3.3932,2.7368,2.3225,2.3289,2.3329,2.3329,2.3329,2.3343,2.3289,2.3198,2.3225,2.3198,2.3171,2.3063,2.3008,2.2981,2.2846,2.2764,2.2764,2.29,2.294,2.2886,2.2628,2.2425,2.2193,2.195,2.1828,2.1801,2.1652,2.1408,2.1082,2.0625,2.0607,2.0648,0.0,0.0,0.0,0.0,0.0,0.0,0.0,0.0,3.1016,3.1397,3.1562,3.2187,3.3437,3.4219,3.4453,3.3984,3.6372,3.8945,4.1367,4.4883,4.8359,5.168,5.2891,5.3633,5.3972,5.4297,5.3886,5.2898,5.1731,4.9036,4.4988,4.3713,4.1574,3.8798,3.9167,3.946,3.968,4.0,4.0,3.978,3.9706,3.9513,3.9353,3.9279,3.9038,3.8611,3.7408,3.6874,0.0,3.5832,3.5992,3.6607,3.7221,3.7061,3.6473,3.5805,3.4441,3.2942,3.1957,3.2198,3.3,3.4177,3.5778,3.7275,3.821,3.9172,3.9893,4.0187,4.0935,4.1897,4.3046,4.3501,4.3928,4.465,4.4863,4.4997,4.5131,4.5371,4.5531,4.5505,3.8786,3.4132,3.4132,2.7585,2.3347,2.3248,2.3483,2.3592,2.3592,2.3424,2.3343,2.3289,2.328,2.3225,2.3225,2.3171,2.313,2.313,2.3063,2.3049,2.3049,2.3103,2.3076,2.2995,2.2778,2.2547,2.2316,2.2194,2.2045,2.1869,2.172,2.1597,2.1421,2.0987,2.0729,2.0607,0.0,0.0,0.0,0.0,0.0,0.0,0.0,0.0,0.0,0.0,3.0898,3.1328,3.25,3.3313,3.3633,3.3406,3.606,3.8984,4.1953,4.5859,4.9414,5.25,5.375,5.4453,5.4519,5.5,5.5273,5.539,5.3933,5.1693,4.8743,4.7042,4.4774,4.2086,4.1483,4.1964,4.305,4.1432,4.1162,4.1725,4.071,4.0107,3.9813,3.968,3.906,3.8153,3.666,3.6046,3.5805,3.4469,3.4923,3.6072,3.6393,3.634,3.6126,3.5805,3.4441,3.3076,3.3561,3.4603,3.5832,3.7195,3.8691,4.0027,4.0802,4.1229,4.163,4.2004,4.2592,4.3378,4.4302,4.465,4.4943,4.5451,4.5558,4.5531,4.5383,4.5611,4.5217,4.3859,3.8054,3.3702,3.2568,2.6936,2.3329,2.3402,2.3605,2.3741,2.3741,2.3632,2.3551,2.3451,2.3361,2.3293,2.3293,2.3239,2.3225,2.3225,2.3225,2.3225,2.3225,2.3225,2.3171,2.3063,2.29,2.2723,2.252,2.2425,2.2276,2.2045,2.1869,2.1801,2.1747,2.1367,2.1055,2.0719,0.0,0.0,0.0,0.0,0.0,0.0,0.0,0.0,0.0,0.0,0.0,3.124,3.214,3.2609,3.3008,3.3367,3.582,3.8945,4.2814,4.5898,4.9492,5.3789,5.4805,5.5469,5.5806,5.6289,5.6719,5.7148,5.704,5.5711,5.3189,5.3381,5.2127,4.9524,4.6666,4.7549,5.074,4.4078,4.3273,4.6184,4.2386,4.0695,4.0401,3.9813,3.837,3.6553,3.6206,3.5591,3.4601,3.2786,3.3347,3.4681,3.3531,3.4683,3.6259,3.5137,3.4336,3.4095,3.5244,3.5378,3.5832,3.8366,3.9786,4.0775,4.1897,4.2619,4.3207,4.3795,4.3928,4.4329,4.541,4.565,4.5757,4.6119,4.6146,4.6066,4.5703,4.5677,4.4145,4.0081,3.6157,3.2256,2.829,2.5014,2.3415,2.3836,2.3877,2.389,2.389,2.3877,2.3822,2.3687,2.3524,2.3383,2.3383,2.3293,2.3225,2.3225,2.3225,2.3225,2.3225,2.3225,2.3225,2.3198,2.3063,2.2995,2.2981,2.2683,2.2603,2.2576,2.2221,2.2099,2.2072,2.1923,2.1665,2.1328,0.0,0.0,0.0,0.0,0.0,0.0,0.0,0.0,0.0,0.0,0.0,0.0,0.0,0.0,0.0,0.0,3.5039,3.7187,3.9959,4.4026,4.7617,5.0469,5.3633,5.5508,5.5885,5.6914,5.7656,5.8086,5.8359,5.7017,5.4096,5.4183,5.2832,5.027,4.9283,4.9758,5.1044,4.8389,4.6827,4.5922,4.3633,4.1573,3.968,3.7702,3.6393,3.5324,0.0,3.1931,3.1711,3.0461,3.0996,3.2198,3.2572,3.2839,3.2839,3.2112,3.3557,3.5378,3.5565,3.7114,3.9012,4.0234,4.1488,4.2619,4.2993,4.3233,4.3382,4.3634,4.3527,4.3634,4.4436,4.4249,4.4329,4.5424,4.5264,4.5264,4.5932,4.5718,4.3937,3.9787,3.6021,3.2256,2.8432,2.4929,2.3076,2.3415,2.3822,2.4053,2.4053,2.4053,2.3985,2.3822,2.3687,2.3605,2.3605,2.3551,2.347,2.3302,2.328,2.328,2.3361,2.328,2.3225,2.3225,2.3171,2.3103,2.3008,2.29,2.2805,2.2683,2.2371,2.2193,2.2235,2.1977,2.1815,2.172,0.0,0.0,0.0,0.0,0.0,0.0,0.0,0.0,0.0,0.0,0.0,0.0,0.0,0.0,0.0,0.0,0.0,3.6172,3.8633,4.2149,4.5277,4.7858,5.0898,5.2734,5.3114,5.4726,5.5781,5.6211,5.7148,5.6596,5.4801,5.4801,5.3929,5.2337,5.112,5.096,5.1404,4.8504,4.6381,4.4602,4.1856,3.9672,3.7782,3.5431,3.3961,0.0,3.0461,2.9392,2.8991,2.8323,2.9098,3.0381,3.0702,3.0915,3.1236,3.2011,3.3988,3.6153,3.7221,3.9118,4.1042,4.2128,4.3089,4.3782,4.3782,4.3782,4.3782,4.3782,4.3714,4.3607,4.3688,4.3447,4.3634,4.481,4.4756,4.5024,4.6199,4.4855,4.2211,3.7941,3.4091,3.0344,2.6537,2.4085,2.2886,2.3347,2.3754,2.4012,2.4121,2.4121,2.4107,2.4053,2.3904,2.3809,2.3754,2.37,2.3605,2.3383,2.3347,2.3248,2.3361,2.328,2.3185,2.3158,2.3198,2.313,2.3008,2.3008,2.2954,2.2832,2.2588,2.2493,2.2479,2.2276,2.2194,2.2181,0.0,0.0,0.0,0.0,0.0,0.0,0.0,0.0,0.0,0.0,0.0,0.0,0.0,0.0,0.0,0.0,0.0,0.0,3.8789,4.0312,4.2578,4.5859,4.6992,4.7734,4.8164,5.0148,5.1484,5.1992,5.3594,5.4558,5.4844,5.4844,5.4986,5.5074,5.1731,5.0884,5.1622,4.4804,4.2291,4.2411,3.7582,3.535,3.4843,3.3102,3.1203,2.9419,2.9072,2.7988,2.6774,2.6533,2.7843,2.9392,2.835,2.9392,3.1637,3.4736,3.5752,3.6607,3.9974,4.1203,4.1941,4.3889,4.4463,4.4463,4.4436,4.4369,4.4409,4.4329,4.4209,4.3889,4.3046,4.3127,4.3527,4.4222,4.4623,4.5291,4.6467,4.3394,3.9379,3.4889,3.0729,2.6804,2.3021,2.2671,2.2927,2.3646,2.37,2.3822,2.4121,2.4134,2.4216,2.4276,2.4216,2.4066,2.3904,2.3768,2.3605,2.3397,2.3383,2.3302,2.3239,2.3225,2.3158,2.3022,2.3171,2.3158,2.3022,2.3022,2.3022,2.3008,2.2846,2.2805,2.2805,2.2778,2.2778,2.2723,0.0,0.0,0.0,0.0,0.0,0.0,0.0,0.0,0.0,0.0,0.0,0.0,0.0,0.0,0.0,0.0,0.0,0.0,3.5781,3.8594,4.0742,4.1953,4.4961,4.6992,4.7734,4.8594,4.957,5.0664,5.0477,4.9829,4.8719,4.842,4.7631,4.6533,4.5453,4.5401,4.608,4.3149,4.0961,3.9267,3.6706,3.4556,3.2679,3.0702,2.9606,2.9018,2.8056,2.7335,2.6881,2.7255,2.8885,3.0969,3.1984,3.3133,3.4282,3.5324,3.7355,3.9412,4.0321,4.2245,4.4115,4.4623,4.4917,4.497,4.4476,4.4369,4.4115,4.302,4.2084,4.1203,4.026,4.0154,4.0847,4.2806,4.3928,4.5104,4.6734,4.3622,3.9577,3.5271,3.1292,2.7435,2.3736,2.3402,2.3565,2.3985,2.4012,2.408,2.4208,2.4514,2.4541,2.4276,2.4419,2.4338,2.4066,2.3904,2.3822,2.3768,2.3551,2.3356,2.3375,2.328,2.3198,2.3171,2.3198,2.3198,2.3171,2.3171,2.3171,2.3158,2.3008,2.2954,2.294,2.2818,2.2778,2.2764,0.0,0.0,0.0,0.0,0.0,0.0,0.0,0.0,0.0,0.0,0.0,0.0,0.0,0.0,0.0,0.0,0.0,0.0,0.0,3.6953,3.8516,3.8518,4.0976,4.2578,4.3047,4.4219,4.5273,4.6254,4.5653,4.5025,4.427,4.2973,4.1905,4.1029,4.0869,4.041,3.9632,3.8765,3.7021,0.0,0.0,3.1688,3.0381,2.8564,2.7908,2.7934,2.7308,2.7629,2.8644,3.0408,3.145,3.2465,3.5164,3.6259,3.6902,3.8424,4.0107,4.1603,4.2405,4.3901,4.5264,4.5264,4.5291,4.5024,4.3901,4.3554,4.2955,4.1416,4.0535,3.9786,3.8686,3.9092,4.0214,4.2325,4.3848,4.5424,4.7215,4.4266,4.0236,3.593,3.1934,2.8068,2.4507,2.4107,2.4189,2.4487,2.4256,2.4216,2.4433,2.4596,2.465,2.4541,2.4609,2.4528,2.4229,2.4134,2.3999,2.3809,2.3632,2.3483,2.3347,2.3253,2.3185,2.313,2.3185,2.3185,2.313,2.3198,2.3225,2.3225,2.313,2.3103,2.3103,2.3008,2.2981,2.2981,0.0,0.0,0.0,0.0,0.0,0.0,0.0,0.0,0.0,0.0,0.0,0.0,0.0,0.0,0.0,0.0,0.0,0.0,0.0,0.0,3.6211,3.5937,3.6641,3.7109,3.7226,3.8984,4.0156,4.0702,4.0192,4.0024,4.0132,3.7814,3.6593,3.6341,3.6307,3.4997,3.2837,3.2819,3.1569,2.965,2.8366,2.8018,2.811,0.0,2.656,2.6827,2.6961,2.8404,3.0801,3.4175,3.4549,3.4282,3.7996,3.9092,3.9552,4.2325,4.31,4.3394,4.4837,4.5531,4.5757,4.5757,4.549,4.4917,4.3405,4.2592,4.1737,4.008,3.9493,3.9012,3.8023,3.9065,4.0581,4.2485,4.4302,4.6039,4.7616,4.4887,4.111,3.6624,3.2555,2.8766,2.5224,2.4745,2.4772,2.5057,2.4596,2.4406,2.4636,2.4636,2.4691,2.4813,2.4772,2.4636,2.4303,2.429,2.4134,2.3714,2.37,2.3524,2.3253,2.3239,2.3158,2.3049,2.3171,2.3158,2.3049,2.3171,2.3225,2.3225,2.3225,2.3225,2.3225,2.3225,2.3225,2.3225,0.0,0.0,0.0,0.0,0.0,0.0,0.0,0.0,0.0,0.0,3.3325,3.2969,0.0,0.0,0.0,0.0,0.0,0.0,0.0,0.0,0.0,3.5469,3.5664,3.6055,3.6792,3.6797,3.7187,3.7969,3.5976,3.4401,3.3104,3.1172,2.9329,2.766,2.7445,2.7192,2.6918,2.6424,2.6264,2.6319,2.6079,2.6159,2.6466,2.64,0.0,0.0,2.7697,2.8687,3.0274,3.4496,3.6393,3.7515,4.0615,4.2084,4.2726,4.3287,4.4302,4.5157,4.4997,4.5531,4.6119,4.6119,4.5718,4.5237,4.4917,4.3501,4.1844,4.0588,3.9017,3.7863,3.8157,3.9199,4.0748,4.302,4.505,4.66,4.7135,4.4739,4.1304,3.6924,3.3229,2.9548,2.5784,2.522,2.5192,2.5369,2.5287,2.5192,2.5125,2.5003,2.4948,2.4989,2.4745,2.4582,2.4528,2.4406,2.4114,2.3863,2.3727,2.3592,2.3343,2.328,2.3198,2.3185,2.3198,2.3198,2.3185,2.3198,2.3225,2.3225,2.3225,2.3225,2.3225,2.3225,2.3225,2.3225,0.0,0.0,0.0,0.0,0.0,0.0,0.0,3.6672,3.5273,3.5533,3.4126,3.3203,3.3367,3.3406,3.3406,0.0,0.0,0.0,0.0,0.0,0.0,3.5,3.5273,3.5703,3.6328,3.6367,3.6074,3.551,0.0,3.1407,2.9634,2.7489,2.601,2.4999,2.4903,2.493,2.4999,2.4706,2.4946,2.5518,2.5518,2.5785,2.6225,2.6346,0.0,0.0,2.8243,2.9285,3.0621,3.3668,3.5992,3.8263,4.1978,4.3741,4.4356,4.3901,4.5024,4.6253,4.5531,4.6306,4.7215,4.676,4.6199,4.5237,4.3233,4.179,4.0267,3.8157,3.6954,3.6446,3.7008,3.8076,3.9754,4.2619,4.4142,4.5718,4.7696,4.4818,4.1075,3.7493,3.3714,2.9907,2.5954,2.5518,2.5491,2.5572,2.5586,2.5518,2.5355,2.5287,2.522,2.5125,2.4989,2.4786,2.4568,2.4487,2.4256,2.389,2.3822,2.3714,2.3578,2.3483,2.3415,2.3347,2.3429,2.3361,2.3225,2.3307,2.3293,2.3225,2.3225,2.3225,2.3225,2.3225,2.3225,2.3239,0.0,0.0,0.0,0.0,0.0,0.0,0.0,3.7942,3.6601,3.6601,3.4715,3.3367,3.325,3.3328,3.3406,0.0,0.0,0.0,0.0,0.0,0.0,0.0,0.0,0.0,3.5982,0.0,0.0,3.3656,3.145,0.0,0.0,0.0,0.0,0.0,2.4626,2.4599,2.4599,2.4599,2.4946,0.0,0.0,2.5865,2.64,0.0,0.0,0.0,0.0,2.9579,3.0728,3.2759,3.495,3.7515,4.1603,4.3741,4.4623,4.4062,4.5318,4.676,4.6253,4.7161,4.8096,4.7348,4.6627,4.5237,4.1897,4.0321,3.8878,3.6286,3.5511,3.5538,3.6393,3.7382,3.9172,4.2325,4.3127,4.4249,4.6785,4.399,4.0347,3.669,3.3526,3.0117,2.6174,2.5762,2.5762,2.583,2.5803,2.5708,2.5518,2.5518,2.5423,2.5233,2.5233,2.5043,2.4623,2.4582,2.4365,2.3999,2.3931,2.3836,2.3727,2.3727,2.366,2.3551,2.3714,2.3605,2.3334,2.3451,2.3397,2.328,2.3307,2.3293,2.328,2.328,2.328,2.3293,0.0,0.0,0.0,0.0,0.0,0.0,0.0,3.7942,3.6601,3.6601,3.4715,3.3281,3.2891,3.3203,3.3406,0.0,0.0,0.0,0.0,0.0,0.0,0.0,0.0,0.0,0.0,0.0,0.0,3.3259,2.9841,0.0,0.0,0.0,0.0,0.0,0.0,2.4599,2.4599,2.4599,0.0,0.0,0.0,0.0,0.0,0.0,0.0,0.0,0.0,2.8841,2.9588,3.2465,3.4071,3.5431,3.8259,4.0909,4.2993,4.3447,4.4837,4.644,4.7135,4.7642,4.7883,4.7535,4.6627,4.5276,4.3595,4.1328,3.9199,3.7863,3.65,3.6099,3.7812,3.8642,4.0,4.2993,4.3046,4.2559,4.1822,4.1389,3.8727,3.2418,3.1936,3.0514,2.6477,2.5966,2.5993,2.6278,2.6169,2.5966,2.5694,2.5667,2.5532,2.5247,2.5233,2.5084,2.4772,2.4636,2.4473,2.4297,2.4039,2.389,2.3877,2.3877,2.3863,2.3863,2.4012,2.3904,2.366,2.3944,2.3809,2.3383,2.3592,2.3551,2.3356,2.3356,2.3356,2.3356,0.0,0.0,0.0,0.0,0.0,0.0,3.853,3.714,3.5843,3.4956,3.3587,3.2648,3.2452,3.2578,3.2773,3.3008,0.0,0.0,0.0,0.0,0.0,0.0,0.0,0.0,0.0,0.0,3.2313,3.0026,2.8805,0.0,0.0,0.0,0.0,0.0,0.0,2.5133,2.5133,2.5133,0.0,0.0,0.0,0.0,0.0,0.0,0.0,0.0,0.0,0.0,2.9446,3.0389,3.1957,3.3561,3.4255,3.6286,3.8798,4.0615,4.318,4.5424,4.5611,4.7161,4.8577,4.7936,4.7357,4.6157,4.2902,4.1283,3.9626,3.7005,3.6046,3.5939,3.7008,3.7408,3.8531,4.1497,3.9491,3.9173,4.3717,3.7945,3.362,3.5019,3.1007,2.76,2.6126,2.602,2.6129,2.6346,2.6224,2.6115,2.6101,2.5925,2.5667,2.5369,2.5369,2.5138,2.465,2.4596,2.4433,2.4202,2.408,2.408,2.4175,2.4175,2.4175,2.4175,2.4311,2.4121,2.3714,2.4107,2.3999,2.3605,2.3754,2.3768,2.37,2.3632,2.3592,2.3592,0.0,0.0,0.0,0.0,0.0,3.8396,3.7615,3.6132,3.4751,3.3794,3.2823,3.214,3.2022,3.156,3.1401,3.1669,3.237,0.0,0.0,0.0,0.0,0.0,0.0,0.0,0.0,0.0,3.0618,2.791,2.7757,2.7002,0.0,0.0,2.5651,2.5651,0.0,0.0,0.0,0.0,0.0,0.0,0.0,0.0,0.0,0.0,0.0,0.0,0.0,0.0,0.0,0.0,0.0,3.2166,3.1925,3.3267,3.5511,3.8183,4.139,4.4195,4.4596,4.6814,4.8845,4.823,4.7616,4.6146,4.2325,4.0775,3.9306,3.6366,3.5752,3.5912,3.6393,3.666,3.7595,4.0107,3.7145,3.6684,4.3147,3.4798,2.9851,3.4757,2.9373,2.5396,2.5925,2.6142,2.6332,2.6481,2.6278,2.6183,2.6291,2.6047,2.5776,2.5532,2.5556,2.5233,2.4758,2.4636,2.446,2.4243,2.4161,2.4161,2.4229,2.4351,2.4379,2.429,2.4596,2.4406,2.3985,2.4379,2.4284,2.389,2.4039,2.4066,2.4012,2.3863,2.3809,2.3809,0.0,0.0,0.0,0.0,0.0,0.0,3.734,3.4991,3.3274,3.3678,3.2823,3.2022,3.1562,3.0069,2.9131,2.9161,3.1378,0.0,0.0,0.0,0.0,0.0,0.0,0.0,0.0,0.0,2.7947,2.791,2.6648,2.6023,2.5984,2.5984,2.5984,2.5984,0.0,0.0,0.0,0.0,0.0,0.0,0.0,0.0,2.7349,0.0,0.0,0.0,0.0,0.0,0.0,0.0,0.0,0.0,0.0,3.2732,3.3937,3.6607,3.9706,4.2699,4.473,4.6814,4.8364,4.8364,4.6841,4.473,4.2325,4.0033,3.7919,3.6366,3.6072,3.6153,3.6473,3.6981,3.7863,3.9386,3.7089,3.5749,3.7719,3.2215,2.8374,2.9465,2.6651,2.4989,2.602,2.64,2.6631,2.678,2.6373,2.6129,2.6129,2.5993,2.583,2.5694,2.5532,2.5396,2.5233,2.4786,2.4568,2.4568,2.4256,2.4053,2.3904,2.4427,2.4487,2.4365,2.4826,2.484,2.4582,2.488,2.4758,2.4276,2.4487,2.4473,2.4263,2.4175,2.4121,2.4107,0.0,0.0,0.0,0.0,0.0,0.0,0.0,3.3726,3.2791,3.189,3.1535,3.0827,2.9509,2.8906,2.8186,2.7063,2.8154,0.0,0.0,0.0,0.0,0.0,0.0,0.0,0.0,0.0,2.7682,2.661,2.6581,2.6453,2.6305,2.6453,2.6453,2.6279,2.6159,2.6106,0.0,0.0,0.0,0.0,0.0,2.7456,2.7911,0.0,0.0,0.0,0.0,0.0,0.0,0.0,0.0,0.0,0.0,0.0,0.0,3.4309,3.6981,3.9706,4.0588,4.2432,4.4062,4.3661,4.3527,4.2886,4.0474,3.9353,3.8397,3.6714,3.6206,3.6286,3.6981,3.7275,3.8183,4.0695,3.825,3.6879,3.9406,3.359,2.9569,3.092,2.8099,2.6224,2.6549,2.64,2.6346,2.6481,2.6278,2.6129,2.6129,2.6074,2.5898,2.5545,2.5556,2.5287,2.4935,2.4786,2.4663,2.4568,2.4365,2.4243,2.4202,2.446,2.4541,2.4514,2.4867,2.4894,2.4745,2.4935,2.488,2.465,2.4704,2.4691,2.4609,2.4365,2.4208,2.4168,0.0,0.0,0.0,0.0,0.0,0.0,0.0,3.2938,3.2372,3.1063,3.1383,3.0878,2.8635,2.7853,2.69,2.5384,2.5202,0.0,0.0,0.0,0.0,0.0,0.0,0.0,0.0,2.749,2.6906,2.6145,2.6587,2.68,2.672,2.68,2.672,2.656,2.6453,2.6453,0.0,0.0,0.0,0.0,2.7429,2.7697,2.8018,0.0,0.0,0.0,0.0,0.0,0.0,0.0,0.0,0.0,0.0,0.0,0.0,0.0,3.4763,3.6901,3.8183,4.0107,4.1684,4.1354,4.1497,4.1203,3.9353,3.858,3.7939,3.6845,3.6981,3.7301,3.7489,3.7136,3.7612,4.0219,3.7546,3.5979,3.862,3.3543,2.9361,2.8985,2.7548,2.659,2.6698,2.6468,2.6346,2.6427,2.6196,2.6074,2.6129,2.6074,2.5871,2.5477,2.5464,2.5301,2.4962,2.484,2.4745,2.465,2.4568,2.4487,2.4433,2.4704,2.4758,2.4663,2.4962,2.5043,0.0,2.5003,2.5043,2.5043,2.4989,2.4948,2.4921,2.4636,2.4473,2.4392,0.0,0.0,0.0,0.0,0.0,0.0,0.0,3.2644,3.1971,3.1024,3.2006,3.1609,2.8539,2.6806,2.529,2.3974,0.0,0.0,0.0,0.0,0.0,0.0,0.0,0.0,2.7718,2.6267,2.5812,2.64,2.6694,2.6987,2.7269,2.6987,2.684,2.6787,2.656,2.6613,0.0,0.0,0.0,0.0,2.7602,2.7709,0.0,0.0,0.0,0.0,0.0,0.0,0.0,0.0,0.0,0.0,0.0,0.0,0.0,0.0,0.0,0.0,0.0,3.9172,4.0508,4.0687,4.018,3.9433,3.8664,3.7622,0.0,3.7032,3.8126,3.8846,3.8183,3.6787,3.6419,3.8564,3.572,3.3962,3.5881,3.2126,2.7956,2.4803,2.5477,2.6291,2.6508,2.6536,2.6549,2.6522,2.6129,2.5966,2.6115,2.5966,2.5762,2.5477,2.5464,2.5396,2.522,2.4948,2.4813,2.4786,2.4813,2.4745,2.4582,2.5016,2.5057,2.4813,2.5111,2.5233,2.5233,2.5084,2.5192,2.545,2.5287,2.522,2.5179,2.4894,2.4691,2.4528,0.0,0.0,0.0,0.0,0.0,0.0,0.0,0.0,0.0,0.0,3.009,2.8747,2.6772,2.5324,2.3851,0.0,0.0,0.0,0.0,0.0,0.0,0.0,0.0,0.0,2.6068,2.5936,2.6065,2.64,2.6948,2.7068,2.6934,2.7308,2.7362,2.7188,2.7135,2.7135,0.0,0.0,0.0,0.0,2.7682,2.7843,0.0,0.0,0.0,0.0,2.8831,2.9232,0.0,0.0,0.0,0.0,0.0,0.0,0.0,0.0,3.3049,3.3668,3.4362,0.0,3.5832,3.5672,3.5992,3.6286,0.0,3.6153,3.6714,3.8259,3.8718,3.9092,4.0,3.7915,3.7174,4.0541,3.861,3.6101,3.4358,2.9478,2.5844,2.5307,2.6169,2.6631,2.6115,2.6278,2.6305,2.6074,2.5952,2.5925,2.5952,2.5817,2.5654,2.5543,2.5464,2.5342,2.507,2.5111,2.5016,2.4786,2.5016,2.4935,2.4582,2.4921,2.4962,2.4813,2.5111,2.5301,2.5396,2.5247,2.5287,2.545,2.5179,2.507,2.5057,2.4867,2.4691,2.4541,0.0,0.0,0.0,0.0,0.0,0.0,0.0,0.0,0.0,0.0,0.0,2.8307,2.5416,2.4451,0.0,0.0,0.0,0.0,0.0,0.0,0.0,0.0,0.0,2.4866,2.5491,2.585,2.6279,2.68,2.7162,2.7349,2.7442,2.7602,2.7602,2.7468,2.7468,2.7468,0.0,0.0,0.0,2.7938,2.7938,0.0,0.0,0.0,0.0,0.0,2.9018,2.9526,0.0,3.0889,3.1396,3.169,0.0,0.0,0.0,0.0,3.2946,3.34,3.34,3.3961,3.4683,3.5324,3.5538,3.5778,3.6501,3.634,3.666,3.866,3.898,3.9273,4.0642,3.8213,3.664,3.8574,3.6832,3.4421,3.2233,2.7904,2.5111,2.5599,2.6237,2.6481,2.6156,2.6373,2.6427,2.6129,2.5993,2.5939,2.6006,2.5817,2.5694,2.5667,2.5532,2.5355,2.5125,2.5274,2.5192,2.4894,2.5274,2.5247,2.488,2.5247,2.5301,2.5111,2.5192,2.5287,2.5342,2.5125,2.5192,2.545,2.522,2.5125,2.5098,2.4948,2.4786,2.4636,0.0,0.0,0.0,0.0,0.0,0.0,0.0,0.0,0.0,0.0,0.0,0.0,0.0,0.0,0.0,0.0,0.0,0.0,0.0,0.0,0.0,0.0,2.4546,2.4973,2.5491,2.5877,2.6439,2.7242,2.7296,2.759,2.8098,2.7911,2.7762,2.7762,2.7762,2.7762,0.0,0.0,2.8179,2.8179,2.8179,0.0,0.0,0.0,0.0,0.0,0.0,0.0,0.0,3.1443,3.1851,3.2144,3.2433,0.0,0.0,0.0,0.0,0.0,3.3587,3.4255,3.5271,3.6874,3.658,3.6313,3.7839,3.7063,3.666,3.8953,3.9433,3.978,4.1096,3.8199,3.5863,3.6429,3.4148,3.1755,3.0156,2.7013,2.5043,2.5722,2.6074,2.6291,2.6332,2.6644,2.6698,2.6386,2.6115,2.6006,2.6101,2.583,2.5749,2.5871,2.5627,2.5423,2.5301,2.5423,2.5355,2.5057,2.5518,2.5572,2.5287,2.5654,2.5694,2.5464,2.5301,2.5233,2.522,2.4962,2.5098,2.541,2.526,2.5192,2.5179,2.507,2.4921,2.4758,0.0,0.0,0.0,0.0,0.0,0.0,0.0,0.0,0.0,0.0,0.0,0.0,0.0,0.0,0.0,0.0,0.0,0.0,0.0,0.0,0.0,2.4519,2.5053,2.5411,2.5518,2.6052,2.6507,2.6881,2.7148,2.7483,2.7762,2.8018,2.8125,2.8125,2.8125,2.8125,2.8125,0.0,2.8179,2.8179,2.8179,0.0,0.0,0.0,0.0,0.0,0.0,0.0,0.0,3.145,3.1851,3.2118,3.2144,0.0,0.0,0.0,0.0,0.0,3.4336,3.5004,3.5672,3.6446,3.5965,3.5725,3.7195,3.658,3.6659,4.0234,4.0954,4.1381,4.2859,3.8914,3.6699,4.0544,3.6892,3.2419,2.9371,2.6578,2.4935,2.5287,2.6251,2.6698,2.6224,2.6671,2.682,2.64,2.6332,2.6183,2.5952,2.5776,2.5708,2.5722,2.5667,2.564,2.5627,2.564,2.5491,2.5192,2.5654,2.5708,2.5423,2.5505,2.5583,2.5464,2.5301,2.5233,2.5233,2.5179,2.5192,2.5247,2.5111,2.5057,2.5057,2.5016,2.4921,2.4758,0.0,0.0,0.0,0.0,0.0,0.0,0.0,0.0,0.0,0.0,0.0,0.0,0.0,0.0,0.0,0.0,0.0,0.0,0.0,0.0,2.4138,2.485,2.5277,2.5518,2.5518,2.6079,2.6694,2.7308,2.7442,2.7816,2.8388,2.8404,2.8339,2.8179,2.8179,2.8179,2.8179,2.8179,2.8179,2.8179,0.0,0.0,0.0,0.0,0.0,0.0,0.0,0.0,0.0,0.0,3.1824,3.2353,3.2144,0.0,0.0,0.0,0.0,0.0,3.3908,3.4576,3.5618,3.7432,3.7168,3.7008,3.9466,3.7969,3.7272,4.1568,4.0687,3.9539,4.0615,3.9459,3.8137,3.7422,3.2795,2.868,2.6983,2.5894,2.5423,2.5803,2.6332,2.659,2.64,2.6698,2.682,2.6603,2.6454,2.6305,2.6156,2.6006,2.5979,2.6047,2.5884,2.5844,2.5925,2.5844,2.5654,2.5355,2.5654,2.564,2.5342,2.5423,2.541,2.5342,2.5179,2.5125,2.5111,2.5016,2.5043,2.5111,2.5043,2.5016,2.5003,2.4935,2.484,2.4758,0.0,0.0,0.0,0.0,0.0,0.0,0.0,0.0,0.0,0.0,0.0,0.0,0.0,0.0,0.0,0.0,0.0,0.0,0.0,0.0,2.4191,2.5074,2.5358,2.5545,2.5625,2.6266,2.6961,2.7709,2.7843,2.8297,2.9001,2.8751,2.8484,2.8286,2.8205,2.8179,2.8179,2.8179,2.8232,2.8286,0.0,0.0,0.0,0.0,0.0,0.0,0.0,0.0,0.0,0.0,0.0,0.0,0.0,0.0,0.0,3.3133,3.324,3.3454,3.3668,3.4282,3.5485,3.8046,3.7863,3.7916,4.1603,3.9412,3.7969,4.2646,4.0935,3.8965,3.9978,4.1237,3.9678,3.2272,2.9432,2.7504,2.5426,2.5572,2.5993,2.6359,2.6468,2.6549,2.6658,2.682,2.6875,2.6807,2.659,2.6427,2.6359,2.6224,2.6183,2.6305,2.6047,2.5939,2.602,2.5925,2.5749,2.5518,2.564,2.5545,2.5287,2.5369,2.5342,2.5155,2.507,2.5016,2.5003,2.4894,2.4921,2.5016,2.5016,2.5016,2.5003,2.4894,2.4826,2.4758,0.0,0.0,0.0,0.0,0.0,0.0,0.0,0.0,0.0,0.0,0.0,0.0,0.0,0.0,0.0,0.0,0.0,0.0,0.0,0.0,2.4191,2.5074,2.5358,2.5651,2.5957,2.6814,2.7403,2.7709,2.827,2.8698,2.9001,2.8751,2.8591,2.8564,2.8312,2.8179,2.8179,2.8179,2.8339,2.8537,2.8312,0.0,0.0,0.0,0.0,0.0,0.0,0.0,0.0,0.0,0.0,0.0,0.0,0.0,3.34,3.3374,3.34,3.3587,3.4442,3.4923,3.5538,3.7114,3.6607,3.6979,4.1924,3.984,3.8179,4.2993,4.3073,4.2795,4.4541,4.5368,4.1223,2.7061,3.1236,3.3786,2.6614,2.602,2.6373,2.6536,2.6807,2.6983,2.6997,2.7119,2.7105,2.682,2.678,2.6644,2.6373,2.6224,2.6129,2.6142,2.5993,2.5844,2.5722,2.5708,2.5694,2.5667,2.5694,2.5599,2.545,2.5301,2.5247,2.5155,2.507,2.5016,2.5016,2.5003,2.5003,2.5016,2.5016,2.5016,2.5016,2.5003,2.4921,2.4772,0.0,0.0,0.0,0.0,0.0,0.0,0.0,0.0,0.0,0.0,0.0,0.0,0.0,0.0,0.0,0.0,0.0,0.0,0.0,2.3674,2.4235,2.5304,2.5464,2.5732,2.6252,2.6948,2.7643,2.827,2.9045,2.9285,2.9001,2.8895,2.8671,2.8366,2.8232,2.8179,2.8179,2.8179,2.8366,2.8591,2.8484,2.8858,0.0,0.0,0.0,0.0,0.0,0.0,0.0,0.0,3.2193,3.2621,3.2728,3.3026,3.34,3.34,3.34,3.348,3.3828,3.4549,3.5778,3.8183,3.7595,3.7569,4.1871,4.1042,4.0687,4.5451,4.4436,4.2993,4.4008,3.7546,3.1805,3.1212,3.0411,2.8968,2.6517,2.6251,2.6454,2.6685,2.682,2.6929,2.701,2.6997,2.6956,2.6943,2.6861,2.6712,2.6508,2.6427,2.6332,2.6129,2.5993,2.583,2.5694,2.5599,2.5491,2.541,2.541,2.5369,2.5315,2.5165,2.5111,2.5084,2.5043,2.5016,2.5016,2.5016,2.5016,2.5016,2.5016,2.5016,2.5003,2.4921,2.484,2.4758,0.0,0.0,0.0,0.0,0.0,0.0,0.0,0.0,0.0,0.0,0.0,0.0,0.0,0.0,0.0,0.0,0.0,0.0,2.5094,2.5388,2.6042,2.7305,2.7363,2.7401,2.7509,2.8079,2.8441,2.8457,2.9446,2.9562,2.9001,2.9001,2.8858,2.8607,2.8419,2.8446,2.8607,2.85,2.8591,2.8885,2.8778,2.9098,0.0,0.0,0.0,0.0,0.0,0.0,0.0,0.0,3.2193,3.2621,3.2701,3.3026,3.34,3.34,3.34,3.3427,3.3534,3.4229,3.5565,3.821,3.7996,3.8183,4.2405,4.2165,4.2245,4.652,4.4685,4.1988,4.087,3.3208,2.8126,3.1215,2.9143,2.6938,2.6358,2.6359,2.6508,2.6712,2.6725,2.6753,2.682,2.6725,2.6712,2.682,2.6712,2.6631,2.6522,2.6468,2.6332,2.6061,2.5925,2.5749,2.5545,2.545,2.5315,2.5165,2.5165,2.5165,2.5165,2.507,2.5016,2.5016,2.5016,2.5016,2.5016,2.5016,2.5016,2.5016,2.5016,2.5016,2.5003,2.4894,2.4813,2.4691,0.0,0.0,0.0,0.0,0.0,0.0,0.0,0.0,0.0,0.0,0.0,0.0,0.0,0.0,0.0,0.0,0.0,0.0,2.9087,2.9186,2.988,3.1333,3.1399,3.0921,2.9966,3.0504,2.9943,2.8205,2.9339,2.9562,2.9001,2.9001,2.9205,2.9446,2.8885,2.8938,2.9472,2.9135,2.9232,2.9446,2.9135,2.9348,0.0,0.0,0.0,0.0,0.0,0.0,0.0,0.0,3.2353,3.2648,3.2942,3.3187,3.3427,3.3427,3.3427,3.348,3.3828,3.4122,3.4817,3.6874,3.7408,3.8718,4.3714,4.3073,4.2362,4.5531,4.364,4.0009,3.5409,3.4817,3.2626,2.5148,2.7646,2.9498,2.6489,2.6373,2.6576,2.6576,2.6576,2.6522,2.6373,2.6359,2.6359,2.6359,2.6359,2.6359,2.6359,2.6224,2.6061,2.5898,2.5762,2.5532,2.5233,2.5233,2.5165,2.5016,2.5016,2.5016,2.5016,2.5016,2.5016,2.5016,2.5016,2.5016,2.5016,2.5016,2.5016,2.5016,2.5016,2.5016,2.5016,2.5016,2.4826,2.4568,0.0,0.0,0.0,0.0,0.0,0.0,0.0,0.0,0.0,0.0,0.0,0.0,0.0,0.0,0.0,0.0,0.0,0.0,2.8858,2.9088,2.988,3.1333,3.1399,3.1633,3.2165,3.1563,3.0404,2.8778,2.9339,2.9312,2.8751,2.8895,2.8948,2.8911,2.9766,2.9793,2.9232,2.9953,2.9953,2.9499,2.9606,2.9873,3.0247,0.0,0.0,0.0,0.0,0.0,0.0,0.0,0.0,0.0,3.3133,3.3641,3.4202,3.503,3.471,3.4282,3.5431,3.5351,3.5485,3.7756,3.8958,4.0328,4.2993,4.3233,4.3554,4.6012,4.4077,4.1205,3.8484,3.4593,3.0868,2.8144,2.7162,2.6581,2.6044,2.6129,2.6305,2.6413,2.6427,2.6413,2.6359,2.6359,2.6305,2.6196,2.6305,2.6224,2.5898,2.5939,2.5844,2.5599,2.545,2.5287,2.5084,2.5084,2.5003,2.4867,2.4867,2.4921,2.5016,2.5016,2.5016,2.5016,2.5016,2.5016,2.5016,2.5016,2.5016,2.5016,2.5016,2.5016,2.5016,2.5016,2.4826,2.4568,0.0,0.0,0.0,0.0,0.0,0.0,0.0,0.0,0.0,0.0,0.0,0.0,0.0,0.0,0.0,0.0,0.0,0.0,0.0,3.1283,3.2064,3.3659,3.373,3.3594,3.3215,3.1067,2.9509,2.8671,2.9098,2.9072,2.8617,2.9018,2.9259,2.9339,3.0354,3.0408,2.9793,3.0621,3.0595,3.0034,3.0327,3.0541,3.0728,0.0,0.0,0.0,0.0,0.0,0.0,0.0,0.0,0.0,3.3106,3.4068,3.503,3.5164,3.5191,3.5404,3.6393,3.6393,3.6767,3.9706,3.9517,3.8799,3.9127,4.0727,4.2679,4.4542,4.0954,3.7151,3.5956,3.1372,2.7756,2.7537,2.6222,2.5396,2.583,2.6047,2.6169,2.6251,2.6278,2.6237,2.6183,2.6183,2.6115,2.5966,2.6047,2.5925,2.5532,2.5654,2.5586,2.5301,2.5247,2.5125,2.4935,2.4935,2.484,2.4704,2.4704,2.4758,2.484,2.484,2.488,2.4935,2.4989,2.5016,2.5016,2.5016,2.5016,2.5016,2.5016,2.5016,2.5016,2.5016,2.4867,2.465,0.0,0.0,0.0,0.0,0.0,0.0,0.0,0.0,0.0,0.0,0.0,0.0,0.0,0.0,0.0,0.0,0.0,0.0,0.0,3.4726,3.5508,3.7226,3.7245,3.5944,3.3192,2.9777,2.8078,2.8179,2.8724,2.8815,2.8617,2.9205,2.9838,3.0426,3.0755,3.0889,3.0862,3.1183,3.1102,3.0808,3.1102,3.1189,3.1209,3.1162,0.0,0.0,0.0,0.0,0.0,0.0,0.0,0.0,3.2915,3.4309,3.5645,3.4442,3.5244,3.6607,3.7117,3.7301,3.8259,4.1573,3.8965,3.5269,3.405,3.6528,3.9673,4.1516,3.5913,3.0622,3.0071,2.7067,2.4637,2.4794,2.507,2.541,2.583,2.6006,2.6115,2.6115,2.6115,2.6061,2.5925,2.5884,2.583,2.5667,2.5654,2.5518,2.522,2.5315,2.5274,2.4989,2.5111,2.5043,2.4772,2.4772,2.4704,2.4568,2.4541,2.4541,2.4541,2.4568,2.465,2.4786,2.4948,2.5016,2.5016,2.5016,2.5016,2.5016,2.5003,2.5003,2.5003,2.4989,2.4894,2.4758,0.0,0.0,0.0,0.0,0.0,0.0,0.0,0.0,0.0,0.0,0.0,0.0,0.0,0.0,0.0,0.0,0.0,0.0,0.0,3.5039,3.5859,3.7226,3.6941,3.4911,3.1045,3.0717,2.9828,2.8179,2.8511,2.8671,2.8617,2.9205,2.9838,3.0453,3.1396,3.1557,3.1156,3.169,3.1476,3.0808,3.1102,3.1189,3.1209,3.0969,3.1183,0.0,0.0,0.0,0.0,0.0,0.0,0.0,3.2812,3.3614,3.4523,3.5351,3.6019,3.6874,3.8584,3.8397,3.7632,3.7237,3.5145,3.3791,3.585,3.3895,3.2643,3.6288,3.5933,3.3981,3.0737,2.9885,2.8658,2.5502,2.5315,2.5627,2.5722,2.5871,2.5952,2.5952,2.5952,2.5939,2.5898,2.5803,2.5667,2.5518,2.5396,2.5192,2.4894,2.4921,2.484,2.4663,2.4691,2.4663,2.4623,2.4623,2.4596,2.4568,2.446,2.433,2.4406,2.4514,2.465,2.4786,2.4948,2.5016,2.5016,2.5016,2.5016,2.5003,2.488,2.484,2.4826,2.4704,2.4636,2.4596,0.0,0.0,0.0,0.0,0.0,0.0,0.0,0.0,0.0,0.0,0.0,0.0,0.0,0.0,0.0,0.0,0.0,0.0,0.0,0.0,3.5341,3.6036,3.5259,3.3479,3.0604,2.9939,2.9188,2.8179,2.8339,2.8617,2.9045,2.9472,3.0087,3.0808,3.1717,3.169,3.1049,3.1637,3.1557,3.1022,3.1316,3.153,3.161,3.1316,3.1316,3.1423,3.1102,0.0,0.0,0.0,0.0,0.0,0.0,0.0,3.4736,3.479,3.5698,3.6981,3.821,3.749,3.5706,3.3047,3.1874,3.1264,3.0851,2.8851,2.765,2.9702,3.0349,2.9971,2.7886,2.7922,2.7488,2.5408,2.5315,2.5491,2.5572,2.5708,2.5803,2.5803,2.5871,2.5898,2.5898,2.5776,2.5627,2.5477,2.5315,2.507,2.4704,2.4758,2.4691,2.4473,2.4528,2.4528,2.446,2.446,2.4419,2.4351,2.4284,2.4168,2.4243,2.4392,2.4514,2.4596,2.4813,2.4867,2.4813,2.488,2.4867,2.4786,2.4718,2.4691,2.4691,2.4663,2.4663,2.4663,0.0,0.0,0.0,0.0,0.0,0.0,0.0,0.0,0.0,0.0,0.0,0.0,0.0,0.0,0.0,0.0,0.0,0.0,0.0,0.0,0.0,3.4189,3.3445,3.215,3.0302,2.8648,2.7938,2.8179,2.8232,2.8848,2.9927,3.014,3.0702,3.1557,3.1984,3.169,3.0889,3.1289,3.137,3.1189,3.145,3.169,3.1904,3.1631,0.0,3.1129,3.1102,3.1129,3.1289,3.1797,0.0,0.0,0.0,0.0,3.4923,3.3694,3.495,3.6794,3.7195,3.5848,3.3336,2.9662,2.8849,2.8218,2.5558,2.4643,2.4481,2.4913,2.4693,2.4406,2.4473,2.4663,2.4921,2.5165,2.5233,2.5315,2.545,2.5572,2.5654,2.5654,2.5762,2.583,2.583,2.5694,2.5572,2.5423,2.5233,2.4948,2.4658,2.4636,2.4568,2.4235,2.4419,2.4433,2.4276,2.4263,2.4181,2.4161,2.4134,2.4121,2.4121,2.4243,2.4263,2.429,2.4636,2.4704,2.4623,2.4704,2.4691,2.4596,2.4541,2.4135,2.3528,2.3632,2.3225,2.2613,0.0,0.0,0.0,0.0,0.0,0.0,0.0,0.0,0.0,0.0,0.0,0.0,0.0,0.0,0.0,0.0,0.0,0.0,3.5273,0.0,0.0,3.2151,3.2874,3.1687,2.8179,2.8117,2.8152,2.8179,2.8404,2.9633,3.1744,3.153,3.1904,3.2732,3.2621,3.1984,3.1129,3.0774,3.0808,3.1162,3.0996,3.1076,3.1289,0.0,0.0,3.0808,3.0614,3.0808,3.1189,3.1269,3.169,0.0,0.0,0.0,3.3293,3.3106,3.4362,3.5912,3.6739,3.4542,3.1397,2.8604,2.5853,2.4746,2.8205,2.6011,2.4272,2.802,2.6534,2.446,2.4229,2.4636,2.5003,2.5043,2.5274,2.545,2.5464,2.5556,2.5505,2.5505,2.5518,2.5518,2.5518,2.5396,2.5287,2.526,2.488,2.4636,2.4568,2.4338,2.4189,2.4161,2.4175,2.4229,2.4276,2.4154,2.4202,2.4235,2.4189,2.4121,2.4121,2.4134,2.4229,2.429,2.4528,2.465,2.4758,2.4636,2.4663,2.4745,2.4473,2.2227,1.9095,1.901,1.6844,1.3943,0.0,0.0,0.0,0.0,0.0,0.0,0.0,0.0,0.0,0.0,0.0,0.0,0.0,0.0,0.0,3.5945,3.5124,3.5,3.5703,3.586,3.4846,3.2331,3.1849,3.0513,2.8033,2.8125,2.8259,2.8404,2.8537,3.0221,3.3347,3.3213,3.3267,3.3507,3.4042,3.3053,3.1022,3.1583,3.1396,3.0728,3.0595,3.0728,3.0942,0.0,0.0,0.0,0.0,0.0,3.1181,3.2663,3.2606,3.1851,3.1851,0.0,0.0,0.0,3.3507,3.4058,3.2573,3.1077,2.9156,2.6018,2.389,2.3186,2.5764,2.4703,2.3656,2.5646,2.5043,2.408,2.4121,2.4406,2.4663,2.4758,2.488,2.4989,2.507,2.5165,2.5247,2.5315,2.541,2.5464,2.5464,2.5315,2.5192,2.5125,2.484,2.4609,2.446,2.4311,2.4202,2.4121,2.4121,2.4161,2.4229,2.4161,2.4161,2.4229,2.4161,2.4121,2.4121,2.4121,2.4161,2.4229,2.4379,2.4433,2.4419,2.4433,2.3058,2.1042,2.0913,1.8387,1.4829,1.4838,1.3805,1.2333,0.0,0.0,0.0,0.0,0.0,0.0,0.0,0.0,0.0,0.0,0.0,0.0,0.0,0.0,0.0,0.0,3.5844,3.5508,3.6289,3.5884,3.4763,3.2692,3.1622,3.0137,2.8114,2.8152,2.8312,2.8484,2.8644,3.0515,3.3988,3.4282,3.4523,3.4683,3.5351,3.4255,3.1957,3.2759,3.2278,3.1069,3.0988,3.0828,0.0,0.0,0.0,0.0,0.0,0.0,3.1004,3.3048,3.2813,3.1711,3.1711,3.1931,0.0,0.0,0.0,3.2866,2.9895,2.9278,2.8481,2.4548,2.332,2.3357,2.4373,2.372,2.3238,2.4374,2.4067,2.37,2.3904,2.406,2.4338,2.4433,2.4514,2.4596,2.4718,2.4826,2.4948,2.5057,2.5165,2.5233,2.5233,2.5125,2.5016,2.4921,2.4758,2.4582,2.429,2.4235,2.4168,2.4121,2.4121,2.4121,2.4121,2.4121,2.4121,2.4121,2.4121,2.4121,2.4121,2.4121,2.4121,2.4121,2.4243,2.3643,2.2665,2.2729,2.0289,1.6599,1.6581,1.4087,1.0561,1.069,1.0026,0.9202,0.0,0.0,0.0,0.0,0.0,0.0,0.0,0.0,0.0,0.0,0.0,0.0,0.0,3.8624,3.7344,3.6169,3.6397,3.6792,3.7187,3.7549,3.6126,3.2484,3.2904,0.0,2.7792,2.8045,2.8205,2.8205,2.8751,3.0408,3.308,3.4253,3.5458,3.6712,3.5912,3.5378,3.4897,3.3828,3.3187,3.2812,3.2594,3.1497,0.0,0.0,0.0,0.0,0.0,3.0249,3.048,3.084,3.1276,3.1711,3.1711,3.2112,3.2567,0.0,0.0,0.0,3.1192,3.1308,3.0794,2.5852,2.4867,2.5482,2.6803,2.4456,2.3081,2.7158,2.551,2.3397,2.3411,2.3836,2.4134,2.4134,2.4392,2.4568,2.4582,2.4658,2.4596,2.4596,2.4672,2.4623,2.4623,2.4672,2.4596,2.4658,2.446,2.429,2.4276,2.4202,2.4121,2.4121,2.4121,2.4121,2.4121,2.4121,2.4121,2.4121,2.4121,2.4121,2.4121,2.4121,2.4121,2.4121,2.4121,2.2004,1.86,1.8431,1.6101,1.2609,1.2463,0.9953,0.6344,0.6344,0.3932,0.0606,0.0,0.0,0.0,0.0,0.0,0.0,0.0,0.0,0.0,0.0,0.0,0.0,0.0,3.9378,3.809,3.6936,3.7226,3.7539,3.7695,3.6855,3.5978,3.511,3.274,3.0997,3.0087,2.8812,2.8976,3.0506,2.9302,3.0725,3.4511,3.3909,3.471,3.6714,3.7859,3.6765,3.4124,3.5618,3.4442,3.1744,3.3534,3.2732,3.0568,3.1363,3.1711,3.1793,3.2065,3.2209,3.2412,3.282,3.2413,3.1711,3.1711,3.1872,3.2112,3.2487,3.2942,3.2936,3.1198,3.0763,3.0221,2.7753,2.5633,2.4488,2.5756,2.3781,2.2205,2.3816,2.365,2.313,2.3049,2.347,2.3836,2.3836,2.3999,2.4175,2.4256,2.4365,2.446,2.4541,2.4568,2.4568,2.4568,2.4568,2.4528,2.4433,2.4189,2.4107,2.4189,2.3958,2.3931,2.4121,2.4121,2.4121,2.4121,2.4121,2.4121,2.4121,2.4121,2.4175,2.4256,2.4256,2.2805,2.0361,2.0361,1.9527,1.7991,1.5305,1.1847,0.8248,0.823,0.574,0.2119,0.2119,0.1211,0.0,0.0,0.0,0.0,0.0,0.0,0.0,0.0,0.0,0.0,0.0,0.0,0.0,0.0,0.0,3.8456,3.7998,3.832,3.8594,3.8594,3.7574,3.6901,3.6649,3.4071,3.2216,3.1295,3.07,3.0458,3.0618,3.0001,3.0997,3.354,3.2975,3.3748,3.5725,3.7676,3.7326,3.5431,3.7272,3.6206,3.3267,3.4763,3.4095,3.2305,3.2728,3.2946,3.3197,3.3911,3.3803,3.352,3.4399,3.3553,3.2193,0.0,3.2144,3.1877,3.2326,3.2648,3.2636,3.1764,3.1389,3.0988,2.9779,2.7093,2.4772,2.4952,2.319,2.1489,2.1638,2.2344,2.29,2.2805,2.3158,2.3483,2.3592,2.3727,2.3863,2.3958,2.4107,2.4229,2.4338,2.4392,2.4419,2.4419,2.4419,2.4351,2.4202,2.4012,2.3904,2.3958,2.3782,2.3782,2.4039,2.4053,2.4066,2.4121,2.4121,2.4134,2.4189,2.4189,2.4284,2.4419,2.4419,2.2175,1.8187,1.6843,1.546,1.3834,1.1112,0.7639,0.4008,0.4008,0.2346,0.0,0.0,0.0,0.0,0.0,0.0,0.0,0.0,0.0,0.0,0.0,0.0,0.0,0.0,0.0,0.0,0.0,0.0,0.0,3.9251,3.9723,3.9958,3.9883,3.9883,3.9013,3.7029,3.7159,3.5412,3.128,3.3418,3.2546,2.8389,3.0618,3.1124,2.999,3.137,3.2679,3.3855,3.5057,3.6819,3.8953,3.8798,3.829,3.7569,3.6286,3.5511,3.5004,3.3961,3.3507,3.3641,3.511,3.4684,3.3724,3.5138,3.4469,3.3106,0.0,0.0,0.0,0.0,0.0,3.2648,0.0,0.0,0.0,3.1785,2.9259,2.6687,2.4876,2.2646,2.0987,2.1136,2.2004,2.2751,2.2764,2.2886,2.3103,2.3302,2.3578,2.3687,2.3687,2.3809,2.389,2.389,2.4012,2.4107,2.4107,2.4107,2.4053,2.389,2.3877,2.3822,2.3687,2.3687,2.3754,2.3877,2.389,2.3958,2.4121,2.4121,2.4189,2.4276,2.4276,2.4433,2.4644,2.4644,2.2273,1.8111,1.4034,0.9978,0.6176,0.5947,0.3498,0.0,0.0,0.0,0.0,0.0,0.0,0.0,0.0,0.0,0.0,0.0,0.0,0.0,4.2218,0.0,4.2074,0.0,0.0,0.0,0.0,0.0,4.3092,4.1901,4.1957,4.141,3.9996,3.9883,3.9773,3.951,3.8082,3.6895,3.6029,3.3587,3.2505,3.2915,3.0388,2.9902,3.1281,3.077,3.0915,3.1717,3.3561,3.4843,3.5725,3.7595,3.6742,3.436,3.7756,3.6901,3.3828,3.6072,3.5859,3.4523,3.5565,3.5965,3.5938,3.6206,3.5244,3.3748,3.2625,0.0,0.0,0.0,0.0,0.0,3.2621,0.0,0.0,0.0,0.0,0.0,2.5925,2.2662,1.9834,2.0309,2.1163,2.1923,2.2235,2.2601,2.2873,2.2954,2.328,2.3451,2.3451,2.3646,2.3741,2.3741,2.3768,2.3809,2.3809,2.3809,2.3782,2.3754,2.3537,2.3483,2.366,2.3687,2.37,2.3727,2.3741,2.3809,2.3958,2.4066,2.4189,2.4276,2.446,2.4582,2.4718,2.4718,2.2534,1.8419,1.4222,1.1767,1.0104,0.4107,0.0985,0.0,0.0,0.0,0.0,0.0,0.0,0.0,0.0,0.0,0.0,0.0,0.0,4.0847,4.226,4.1923,4.1963,0.0,0.0,0.0,0.0,0.0,4.5711,4.3283,4.3436,4.2744,4.0582,4.043,4.0547,4.0781,3.9582,3.8603,3.7917,3.5403,3.3823,3.3324,3.08,2.9845,3.0453,2.9801,2.9873,3.0488,3.1957,3.2759,3.3187,3.5458,3.5912,3.519,3.7705,3.7702,3.6473,3.8023,3.7863,3.6954,3.8107,3.829,3.8103,3.8366,3.7114,3.5191,3.3908,0.0,0.0,0.0,0.0,0.0,0.0,0.0,0.0,3.34,0.0,0.0,2.6399,2.2859,1.9522,1.9997,2.2054,2.3777,2.3791,2.4185,2.4507,2.4375,2.351,2.2981,2.3167,2.3402,2.3524,2.3578,2.3646,2.3687,2.3687,2.3687,2.3646,2.3592,2.3415,2.3361,2.3483,2.3483,2.3524,2.3578,2.3524,2.3592,2.3809,2.389,2.4053,2.4181,2.446,2.465,2.4786,2.4867,2.267,1.8655,1.6096,1.3937,1.1887,0.7055,0.5061,0.4912,0.3176,0.2497,0.227,0.0606,0.0,0.0227,0.0,0.0,4.0599,4.242,4.1351,4.1025,4.3328,4.2356,4.2202,0.0,4.3965,4.4083,0.0,0.0,0.0,0.0,4.4739,4.4002,4.1366,4.1211,4.1211,4.1211,4.1211,4.0157,3.7954,3.7711,3.5551,3.1392,3.1233,3.0238,2.8564,2.8868,2.9295,2.9847,3.0488,3.0942,3.1289,3.2946,3.5244,3.7756,3.674,3.8023,4.0481,3.9647,3.9353,3.9599,4.1229,4.0882,3.9813,4.0802,3.9353,3.7032,3.6206,3.4282,3.2519,0.0,3.2732,0.0,0.0,0.0,0.0,0.0,2.9589,0.0,2.6804,2.3593,2.0445,2.0711,2.4166,2.6928,2.6494,2.6516,2.657,2.6423,2.3918,2.2221,2.2846,2.3076,2.3225,2.3275,2.351,2.3605,2.3632,2.3632,2.3578,2.3356,2.3356,2.3361,2.3225,2.3225,2.3221,2.3343,2.3293,2.3361,2.3646,2.3687,2.3863,2.4161,2.4419,2.4421,2.4172,2.424,2.2011,1.8092,1.7895,1.5963,1.2958,1.2814,1.2517,1.1676,0.7622,0.5966,0.5514,0.1514,0.0303,0.1211,0.0,0.0,4.0921,4.0552,3.9636,4.0028,4.3145,4.268,4.3178,4.6424,4.8674,5.0256,0.0,0.0,0.0,0.0,4.698,4.5068,4.1444,4.1211,4.1211,4.1211,4.1211,4.0157,3.7954,3.6396,3.4236,3.1392,3.0127,2.9073,2.8286,2.9045,2.9339,2.9215,3.0327,3.0835,3.0942,3.1744,3.3267,3.5244,3.7088,3.8076,3.8611,4.0234,3.9727,3.8504,4.1176,4.1203,3.9887,3.992,3.9573,3.8611,3.5805,3.4496,3.3694,3.2732,3.2091,0.0,0.0,0.0,0.0,3.2728,3.0614,0.0,2.8348,2.6429,2.473,2.4919,2.5929,2.7033,2.7632,2.6115,2.4789,2.505,2.2922,2.1516,2.2288,2.2696,2.2832,2.2751,2.2981,2.3185,2.3293,2.3307,2.3293,2.328,2.328,2.3253,2.3225,2.3225,2.3239,2.3253,2.3239,2.3307,2.3483,2.3727,2.3999,2.4235,2.4473,2.2945,1.9975,1.9843,1.753,1.3735,1.3705,1.4951,1.71,1.7128,1.5139,1.1676,0.7622,0.5966,0.5514,0.1514,0.2043,0.4912,0.0,4.1916,4.0603,4.0542,4.0351,4.1271,4.4506,4.477,4.5993,4.9864,5.2701,5.4194,0.0,0.0,0.0,0.0,0.0,0.0,4.1836,4.222,4.2296,4.1523,4.1328,4.0157,3.7954,3.6059,3.3944,3.1589,2.9715,2.8751,2.8591,2.8911,2.9045,2.9028,3.0114,3.0614,3.0667,3.1417,3.2599,3.4309,3.65,3.7809,3.866,4.0775,4.0829,4.0,4.163,4.1737,4.1016,4.0428,4.008,3.9519,3.7889,3.6232,3.479,3.3908,3.2969,3.2166,3.2091,3.2091,3.2171,3.2514,3.0688,0.0,0.0,2.7219,2.5758,2.6023,2.7797,2.9427,2.9874,2.7835,2.6171,2.6452,2.3068,2.0634,2.1136,2.1937,2.2493,2.2712,2.2805,2.2954,2.3103,2.3117,2.3158,2.3225,2.3225,2.3225,2.3225,2.3225,2.3225,2.3225,2.3225,2.3253,2.3334,2.1631,2.0795,2.0938,1.9279,1.7433,1.5573,1.5522,1.4408,1.2477,1.2399,1.3506,1.5267,1.5241,1.4016,1.1902,0.9877,0.7773,0.5514,0.1514,0.2573,0.6268,0.0,0.0,4.0841,4.1634,4.1837,4.3061,4.6478,4.7303,4.9192,5.3637,5.6016,5.7097,5.6431,0.0,0.0,0.0,0.0,0.0,4.2467,4.4036,4.4146,4.1876,4.1484,4.0077,3.7321,3.5855,3.38,3.1139,2.9488,2.8751,2.8815,2.8751,2.8858,2.9108,2.998,3.0641,3.1042,3.1818,3.2973,3.4549,3.6259,3.7676,3.8931,4.1016,4.163,4.1523,4.2031,4.2218,4.2084,4.1122,4.0535,4.0074,3.9754,3.7889,3.5752,3.5458,3.42,3.2808,3.2572,3.2519,3.2545,3.2674,3.1058,2.9523,0.0,0.0,0.0,2.7311,2.9814,3.2013,3.2084,2.949,2.7508,2.7845,2.3206,1.9854,2.0541,2.1174,2.1774,2.2249,2.2357,2.2466,2.2642,2.2764,2.2927,2.3117,2.313,2.313,2.313,2.3171,2.3185,2.3185,2.3185,2.3185,2.3225,1.9444,1.7586,1.7637,1.4004,1.1858,1.1181,1.123,1.0817,1.0139,1.0847,1.1131,1.1153,1.1841,1.1693,1.0943,1.0937,0.8899,0.5589,0.2346,0.3706,0.7773,4.6595,4.4573,0.0,4.3693,4.2975,4.3897,4.8466,4.9418,5.153,5.6722,5.8051,5.9608,6.237,5.8805,5.5817,0.0,0.0,5.1162,4.3455,4.6824,4.6902,4.1994,4.1758,3.9669,3.5154,3.508,3.297,2.8612,2.8853,2.8724,2.8286,2.8751,2.9152,2.9472,3.0132,3.137,3.3057,3.348,3.4629,3.634,3.7863,3.7969,3.7598,4.0615,4.1122,4.0401,4.1737,4.2218,4.2031,4.0909,4.0668,4.0535,3.9017,3.7515,3.634,3.6046,3.4923,3.3774,3.4015,3.4068,3.3881,3.3133,3.312,3.3002,3.1978,0.0,3.2347,3.1957,0.0,3.2954,3.3166,0.0,0.0,2.6266,2.2048,1.9589,2.223,2.0914,1.9894,2.0539,2.0838,2.1109,2.1394,2.1896,2.2398,2.2805,2.2832,2.2832,2.2832,2.2954,2.3022,2.3022,2.3022,2.3103,2.3225,1.9354,1.7546,1.7812,1.398,1.0294,0.701,0.6793,0.4828,0.162,0.5347,0.6903,0.6973,1.0763,1.0087,0.6694,0.6657,0.6419,0.5966,0.5514,0.7924,1.1977,4.8778,4.6883,0.0,4.6102,4.5958,4.7194,5.1386,5.4292,5.6297,5.7212,5.7826,5.8896,6.0924,5.9236,5.7676,0.0,5.753,5.5054,4.8072,4.8706,0.0,4.5284,4.1748,3.8451,3.5468,3.3947,3.1631,2.8404,2.8671,2.8671,2.8473,2.8671,2.8938,2.9171,2.8509,3.0108,3.3114,3.215,3.3507,3.6366,3.7489,3.7598,3.7357,4.0561,4.1603,4.131,4.1416,4.179,4.1951,4.0294,4.0588,4.131,3.9199,3.8183,3.7729,3.7464,3.5832,3.4282,3.4897,3.5031,3.4977,3.4603,3.4576,3.4523,3.4015,3.3374,3.2888,3.2648,0.0,0.0,0.0,0.0,0.0,0.0,2.0326,1.842,1.9648,1.9008,1.9384,2.2129,2.1171,2.0539,2.1285,2.1421,2.172,2.2344,2.2303,2.2303,2.2398,2.2696,2.2873,2.2873,2.2954,2.3049,2.3103,1.9309,1.6325,1.4176,1.0316,0.6401,0.2657,0.259,0.161,0.0077,0.1861,0.2562,0.2629,0.4468,0.4134,0.2506,0.2499,0.2497,0.28,0.5139,0.8597,1.266,5.0995,0.0,0.0,4.8236,4.8441,4.9821,5.372,5.7349,5.9517,5.9249,5.8747,5.9481,6.221,6.0761,5.9295,5.8616,6.0007,5.8165,5.1576,5.0382,4.9121,4.7297,4.1984,3.8316,3.6616,3.4161,3.1821,2.9546,2.8852,2.8537,2.8617,2.8617,2.8885,2.9357,2.8394,2.998,3.3383,3.2445,3.3953,3.7008,3.7969,3.8317,3.8504,4.0535,4.1684,4.2138,4.1497,4.1684,4.1924,4.0074,4.0535,4.1488,3.9786,3.898,3.8878,3.8958,3.7408,3.5725,3.6365,3.6552,3.6365,3.5751,3.5458,3.5191,3.471,3.3641,3.2835,3.2835,3.2679,0.0,0.0,0.0,2.3955,2.1621,0.0,1.7703,1.8427,1.7864,1.8627,2.1856,2.0803,2.0064,2.0878,2.0906,2.1109,2.1638,2.1692,2.176,2.1923,2.2425,2.2751,2.2778,2.2886,2.2995,2.3063,1.9276,1.5402,1.1539,0.7676,0.3756,0.0,0.0,0.0,0.0,0.0,0.0,0.0,0.0,0.0,0.0076,0.1213,0.1666,0.2119,0.6193,1.0254,1.4312,5.2826,5.1233,0.0,4.9914,4.9457,5.0494,5.4721,5.68,5.9589,6.4409,6.2242,6.2881,6.9938,6.4454,6.0653,6.1692,6.2318,5.9602,5.2522,5.186,5.006,4.6288,0.0,3.987,3.836,3.6609,3.4484,3.187,2.9411,2.8366,2.8617,2.8617,2.9232,3.04,3.0849,3.2421,3.4738,3.607,3.7589,3.9087,4.0321,4.1122,4.1523,4.0481,4.0989,4.2218,4.2191,4.2191,4.2031,4.0829,4.0668,4.0882,4.0535,3.9813,3.9327,4.0508,3.9887,3.8953,3.898,3.898,3.8446,3.6152,3.5565,3.5164,3.3454,3.3213,3.3374,3.3374,3.3614,3.2939,3.0006,2.7206,0.0,0.0,0.0,0.0,0.0,1.8611,1.7228,1.7759,1.8749,1.9522,1.9759,2.0227,2.0553,2.053,2.0987,2.1299,2.1395,2.2167,2.2698,2.2778,2.2778,2.2927,2.3198,1.9231,1.533,1.1539,0.7676,0.3756,0.0,0.0,0.0,0.0,0.0,0.0,0.0,0.0,0.0,0.0385,0.4254,0.5816,0.6268,1.0404,1.4462,1.8454,0.0,0.0,0.0,5.2044,5.1742,5.2598,5.5496,5.698,5.901,6.2528,6.1315,6.2133,6.7449,6.5859,6.3851,6.2532,6.1253,5.8301,5.3163,4.976,4.7493,4.6515,4.1675,3.8476,0.0,3.4708,3.2375,3.0372,2.9507,2.8991,2.8868,2.9098,2.9606,3.0335,2.9303,3.1008,3.4739,3.4351,3.611,3.9167,4.0,4.0588,4.0962,4.1336,4.179,4.2218,4.2218,4.2218,4.2031,4.0882,4.1069,4.163,4.0775,4.0267,4.0267,4.1416,4.0401,3.898,3.9813,4.0027,3.9786,3.8798,3.7753,3.6874,3.6072,3.4763,3.3668,3.3454,3.3668,3.2937,2.9804,2.7136,0.0,0.0,0.0,0.0,0.0,1.7249,1.6836,1.7297,1.7962,1.8572,1.9092,1.9061,1.9318,1.9902,2.001,2.0132,2.039,2.1408,2.2059,2.2045,2.252,2.2873,2.3076,2.1706,1.785,1.1546,1.0284,0.6269,0.0,0.0,0.0,0.0,0.0,0.0,0.0234,0.3013,0.4071,0.4359,0.8513,1.1729,1.417,1.5588,1.6946,1.8689,5.4838,5.4285,5.412,5.3582,5.3683,5.4787,5.7801,5.8475,6.0381,6.5326,6.3153,6.2997,6.7815,6.6486,6.4547,6.2682,5.987,5.6955,5.41,4.7854,4.4813,4.5976,4.1134,3.8383,0.0,3.5373,3.3489,3.258,3.0754,2.9953,3.0274,2.9953,3.0159,3.0656,2.9627,3.1132,3.4286,3.4279,3.5988,3.8686,3.9513,4.0374,4.1122,4.147,4.1844,4.2218,4.2325,4.2378,4.2298,4.163,4.1897,4.2378,4.1523,4.1291,4.139,4.2031,4.1088,4.0074,4.0882,4.1096,4.0909,4.0154,3.9306,3.8366,3.7702,3.6446,3.5351,3.503,3.5217,3.4346,3.0722,2.8663,0.0,0.0,0.0,0.0,0.0,1.6486,1.6662,1.6998,1.7623,1.8165,1.8491,1.845,1.8586,1.9061,1.9169,1.9332,1.963,2.0878,2.1638,2.1747,2.2466,2.294,2.3076,2.3076,1.9231,1.1619,1.1586,0.7515,0.0075,0.1518,0.2137,0.222,0.3689,0.4398,0.4567,0.7332,0.8374,0.8633,1.2789,1.5911,1.808,1.808,1.8978,2.0572,5.5993,5.4516,5.3944,5.4495,5.5254,5.7161,6.1206,6.1178,6.3744,7.2434,6.7698,6.5576,7.0961,6.6615,6.2884,6.2104,5.8185,5.5488,5.4811,4.6222,4.224,4.4758,4.1039,3.9621,4.1127,0.0,0.0,0.0,3.3049,3.1256,3.2594,3.1122,3.0675,3.1263,3.1851,3.2599,3.3561,3.5993,3.7357,3.7996,3.9118,4.0588,4.2004,4.0909,4.1229,4.2298,4.2629,4.2736,4.2726,4.2993,4.31,4.3046,4.2779,4.2699,4.2683,4.2325,4.2245,4.2181,4.2181,4.2218,4.1897,4.0447,4.008,3.962,3.8263,3.8103,3.8183,3.7889,3.8076,3.7015,3.2754,3.162,2.9076,0.0,0.0,0.0,1.6673,1.65,1.6675,1.6702,1.7568,1.8179,1.8057,1.8301,1.8355,1.8097,1.8464,1.8902,1.9183,2.058,2.1516,2.1869,2.2574,2.3022,2.3225,2.3198,1.9309,1.1606,1.1613,0.7602,0.0454,0.4235,0.6124,0.6502,1.0545,1.2283,1.229,1.2674,1.2744,1.3049,1.7014,1.8569,1.8379,1.8379,2.0796,2.4134,5.6545,5.5089,5.4523,5.4977,5.827,6.0746,6.023,6.2981,6.7038,7.2234,6.9029,6.7131,6.9367,6.7059,6.374,5.9767,5.4923,5.1475,5.0138,4.3921,4.0815,4.194,4.0748,3.9757,3.91,3.8361,3.7428,3.6277,3.3785,3.2732,3.2888,3.1417,3.0889,3.1263,3.1851,3.2599,3.3561,3.5939,3.7782,3.9118,3.9012,3.9733,4.0909,4.0829,4.1523,4.2539,4.2683,4.2806,4.2993,4.3073,4.31,4.31,4.302,4.2993,4.2993,4.2886,4.2726,4.2539,4.2539,4.2405,4.2075,4.1737,4.0829,3.992,3.9487,3.8825,3.8294,3.8214,3.821,3.7848,3.648,3.3518,2.9967,0.0,0.0,0.0,1.6407,1.6374,1.651,1.6675,1.6838,1.7093,1.7392,1.7595,1.7717,1.7758,1.7867,1.8301,1.9156,1.978,2.0661,2.1842,2.1977,2.2411,2.3225,2.2886,1.8983,1.1598,1.1639,0.9123,0.4476,0.5517,0.7674,1.0632,1.1785,1.2318,1.2526,1.5865,1.7088,1.73,2.1518,2.2983,2.2679,2.2578,2.3356,2.4419,5.7801,5.6541,5.5171,5.3048,5.9427,6.4178,6.2222,6.4914,6.9069,7.4533,6.9696,6.6726,6.932,6.6325,6.2456,5.8158,5.3205,4.9505,4.7724,4.2457,3.9887,4.1042,4.0588,3.9813,3.8878,3.9941,0.0,3.7168,3.6277,3.5332,3.4282,3.2171,3.1263,3.1423,3.177,3.2412,3.34,3.6153,3.821,3.9599,3.9386,4.008,0.0,4.0989,4.171,4.2886,4.2993,4.3127,4.3314,4.3447,4.3501,4.3447,4.3314,4.3287,4.326,4.3127,4.2993,4.287,4.2763,4.2539,4.2378,4.2245,4.1603,4.0989,4.0989,4.0481,3.9974,3.9813,3.9846,3.9519,3.8584,3.5725,3.1779,2.6377,0.0,0.0,1.6212,1.6551,1.6741,1.6527,1.6944,1.7148,1.7012,1.7012,1.7148,1.7379,1.7446,1.7676,1.8396,1.9454,2.0309,2.0892,2.1787,2.2344,2.2534,2.2479,1.9625,1.3946,1.3981,1.2073,0.8734,1.0479,1.2573,1.4854,1.6692,1.7567,1.7895,2.0414,2.137,2.1512,2.38,2.4596,2.4419,2.4284,2.4338,2.4433,5.8871,5.7718,5.5656,5.0931,5.9477,6.6677,6.5587,6.7487,7.1341,7.7533,7.033,6.6095,6.9879,6.5163,6.0531,5.7598,5.2846,4.9168,4.7315,4.2035,3.9673,4.1274,4.0615,4.008,3.9786,4.1918,4.1833,3.9273,3.884,3.7769,3.6019,3.3049,3.1684,3.1711,3.1711,3.2407,3.3668,3.642,3.8397,3.968,3.9974,4.0794,4.1924,4.1336,4.1951,4.3127,4.342,4.3489,4.3634,4.3901,4.4008,4.3955,4.3688,4.3607,4.3527,4.3287,4.318,4.31,4.2806,4.2763,4.2592,4.2298,4.2218,4.2218,4.2218,4.2218,4.2138,4.1897,4.1817,4.131,3.9727,3.7605,3.3482,2.5545,1.9974,1.6565,1.618,1.6863,1.7134,1.6415,1.7338,0.0,1.6757,1.6608,1.6768,1.7134,1.7161,1.727,1.7528,1.9223,2.0064,1.978,2.1652,2.2398,2.1828,2.2127,2.0509,1.711,1.7049,1.5549,1.3006,1.6469,1.8359,1.9042,2.2729,2.4406,2.4541,2.4718,2.4813,2.4813,2.465,2.4658,2.4541,2.4419,2.4303,2.4365,5.7261,5.5914,5.5088,5.3994,5.9973,6.5447,6.6701,7.2863,7.7429,7.7787,7.288,6.9239,6.9195,6.4719,6.1174,5.9898,5.4293,5.0595,5.005,4.4056,4.0882,4.1684,4.131,4.0989,4.0695,4.1108,4.1006,4.0267,3.7807,3.6449,3.5992,3.2812,3.1423,3.1711,3.1711,3.3424,3.6314,3.6394,3.7782,3.994,4.0294,4.0561,4.0909,4.1978,4.2672,4.3127,4.342,4.3714,4.3928,4.3982,4.4008,4.4008,4.3928,4.3928,4.3901,4.3848,4.3661,4.3394,4.31,4.2833,4.2592,4.2298,4.2218,4.2218,4.2218,4.2218,4.2218,4.2138,4.1951,4.1684,4.139,3.7133,3.2053,2.7007,2.2534,1.8891,1.6734,1.6904,1.7039,1.6551,1.7162,1.7365,1.6581,1.6876,1.7053,1.7026,1.7012,1.7351,1.8124,1.8274,1.8952,2.0349,2.0648,2.1367,2.2574,2.2167,2.0579,1.7931,1.7273,1.6932,1.6909,1.76,1.973,2.2894,2.3795,2.4243,2.4406,2.4691,2.4867,2.4962,2.4813,2.4663,2.4568,2.4528,2.4528,2.4514,5.8224,5.6575,5.5402,5.4474,6.1064,6.6916,6.815,7.3333,7.6917,7.6327,7.157,6.8033,6.7489,6.4014,6.0883,5.8791,5.3997,5.0479,4.893,4.396,4.139,4.2004,4.1737,4.131,4.0695,4.242,4.3043,4.245,4.1072,3.9764,3.8405,3.4775,3.2608,3.1764,3.2625,3.5009,3.8343,3.8027,3.9733,4.2504,4.1664,4.147,4.171,4.2539,4.3046,4.334,4.3661,4.3848,4.4008,4.4008,4.4008,4.4008,4.4008,4.4008,4.4008,4.4008,4.3901,4.3714,4.342,4.31,4.287,4.2512,4.2325,4.2218,4.2218,4.2218,4.2218,4.2218,4.2111,4.1737,4.0802,3.7136,3.2628,2.7956,2.4149,2.0696,1.753,1.7419,1.7528,1.7095,1.7894,1.8014,1.708,1.7324,1.7324,1.6781,1.6822,1.7053,1.7433,1.8016,1.8762,1.9712,2.0485,2.1313,2.2194,2.2221,2.1757,2.0742,2.0407,2.0526,2.1127,2.1053,2.2127,2.4012,2.3999,2.4134,2.429,2.4582,2.4758,2.488,2.4745,2.4636,2.4568,2.4568,2.4623,2.4663,6.0248,5.9294,5.8388,5.7052,6.3745,6.931,6.9519,7.2322,7.4621,7.4954,6.9805,6.6113,6.6113,6.3437,6.0571,5.7768,5.4359,5.097,4.7773,4.4372,4.2405,4.2004,4.1924,4.1523,4.0775,4.4111,4.5414,4.4545,4.5006,4.368,4.0627,3.7184,3.4298,3.2214,3.5405,3.8212,4.0581,4.1316,4.3488,4.6306,4.4853,4.4474,4.4783,4.4288,4.4333,4.4532,4.4164,4.4008,4.4008,4.4008,4.4008,4.4008,4.4008,4.4008,4.4008,4.4008,4.4008,4.3928,4.3607,4.334,4.3127,4.2833,4.2539,4.2325,4.2325,4.2245,4.2218,4.2218,4.2218,4.179,4.0401,3.7985,3.4664,2.9768,2.6195,2.2713,1.9023,1.8805,1.892,1.8703,1.9405,1.9734,1.9278,1.8244,1.7523,1.7233,1.6899,1.673,1.6919,1.7894,1.8599,1.8979,2.0336,2.1245,2.1625,2.2154,2.2751,2.3415,2.328,2.3524,2.4066,2.3944,2.3958,2.4066,2.3944,2.4066,2.4276,2.4473,2.4609,2.4745,2.465,2.4596,2.4644,2.4636,2.4704,2.4758,6.2635,6.4771,6.6853,6.6158,6.954,7.1883,7.0588,7.1697,7.3284,7.4811,6.9805,6.6113,6.6113,6.3437,6.1076,5.968,5.7612,5.4279,4.9334,4.7465,4.4996,4.1567,4.1897,4.2004,4.1684,4.4923,4.6252,4.5443,4.7114,4.5454,4.0657,3.8709,3.6172,3.3597,4.1513,4.4483,4.383,4.7015,4.9571,5.1346,5.1145,5.1315,5.133,4.8586,4.7741,4.7744,4.499,4.4008,4.4008,4.4008,4.4008,4.4008,4.4008,4.4008,4.4008,4.4008,4.4008,4.3928,4.3607,4.3501,4.342,4.3127,4.2833,4.2619,4.2619,4.2405,4.2218,4.2218,4.2218,4.2191,4.2004,4.0672,3.8273,3.4209,2.9907,2.5688,2.1906,2.1753,2.2074,2.2311,2.2201,2.2927,2.5084,2.0054,1.7502,1.9528,1.7725,1.6904,1.7717,1.7487,1.784,1.8952,1.9535,2.0349,2.1395,2.1774,2.2642,2.4039,2.3483,2.347,2.3904,2.389,2.389,2.3904,2.389,2.4066,2.4276,2.429,2.446,2.4596,2.4718,2.4691,2.4596,2.488,2.4813,2.4623,6.8492,6.8285,6.8342,6.877,7.0351,7.1615,7.1682,6.9942,6.8921,6.9551,6.7578,6.5417,6.3627,6.2435,6.1484,6.0958,5.8468,5.5186,5.1124,4.8477,4.5509,4.1996,4.3977,4.5097,4.4954,4.7987,5.0374,5.193,4.9881,4.8083,4.6471,4.4065,4.2113,4.0932,4.5424,4.8417,5.0131,5.0496,5.2286,5.4783,5.3087,5.136,4.9749,4.8762,4.733,4.5692,4.4416,4.4008,4.4008,4.4008,4.4008,4.4008,4.4008,4.4008,4.4008,4.4008,4.4008,4.3955,4.3848,4.3661,4.3501,4.3394,4.3127,4.2913,4.2913,4.2833,4.2726,4.2726,4.2726,4.2726,4.2726,4.2111,4.0187,3.591,3.3626,3.089,2.6687,2.6347,2.6558,2.6711,2.4624,2.364,2.4714,2.0061,1.7363,1.8469,1.7184,1.6592,1.7039,1.7405,1.8138,1.9359,1.9834,2.0811,2.2371,2.2316,2.2859,2.3985,2.3727,2.3768,2.4039,2.3931,2.3836,2.3768,2.3863,2.4012,2.4127,2.4121,2.4216,2.4433,2.4406,2.4406,2.446,2.4506,2.4596,2.4596,7.3142,7.1595,7.0445,7.1258,7.1008,7.0589,7.0134,6.7791,6.5648,6.4425,6.4667,6.4232,6.2148,6.1914,6.1797,6.1562,5.8877,5.5573,5.1781,4.8911,4.6266,4.3831,4.6111,4.7357,4.7267,5.1234,5.3777,5.4761,5.3451,5.2299,5.13,4.9238,4.7649,4.6713,5.0421,5.3136,5.4859,5.4763,5.6149,5.8358,5.644,5.3819,5.1067,5.0308,4.8149,4.5363,4.4377,4.4008,4.4008,4.4008,4.4008,4.4008,4.4008,4.4008,4.4008,4.4008,4.4008,4.4008,4.4008,4.3848,4.3661,4.3661,4.3447,4.3233,4.3233,4.3153,4.31,4.31,4.31,4.3073,4.2993,4.2806,4.1484,3.7866,3.6358,3.4482,3.0917,2.96,2.8974,2.9163,2.5663,2.3649,2.4832,2.0269,1.7659,1.8625,1.7405,1.6741,1.6971,1.7378,1.8235,1.9427,1.9725,2.0661,2.2344,2.2303,2.2764,2.37,2.3822,2.3944,2.4053,2.3985,2.3877,2.3754,2.3863,2.3944,2.4053,2.389,2.4012,2.4208,2.4161,2.4202,2.4276,2.4406,2.446,2.4528,7.5442,7.4906,7.4906,7.4906,7.2496,6.9064,6.4967,6.5343,6.4621,6.0413,6.1405,6.2442,6.2442,6.2344,6.2031,6.119,5.913,5.57,5.066,4.888,4.7742,4.7272,4.7871,4.7988,4.7659,5.4122,5.5439,5.1353,5.7824,5.8404,5.3549,5.3549,5.1878,4.9195,5.7322,5.924,5.6629,6.0564,6.2285,6.2324,6.2733,6.1124,5.8093,5.4712,5.1636,4.8638,4.5204,4.4008,4.4008,4.4008,4.4008,4.4008,4.4008,4.4008,4.4008,4.4008,4.4008,4.4008,4.4008,4.4008,4.4008,4.4008,4.3741,4.3527,4.3527,4.3314,4.31,4.31,4.31,4.302,4.2726,4.2736,4.2191,4.0661,3.7744,3.5286,3.4003,3.063,2.8412,2.8698,2.4752,2.3348,2.6824,2.123,1.8481,2.1058,1.8842,1.7609,1.8057,1.7378,1.7609,1.8952,1.8902,1.9427,2.0783,2.1394,2.2194,2.3239,2.3687,2.389,2.389,2.4053,2.4039,2.389,2.389,2.389,2.389,2.3741,2.3863,2.4121,2.4121,2.4202,2.429,2.4514,2.4473,2.4365,7.3124,7.4055,7.4184,7.1567,6.9098,6.707,6.5736,6.4088,6.2744,6.1737,6.209,6.2637,6.3203,6.3008,6.2695,6.2402,5.9309,5.6878,5.5689,5.2605,5.0987,5.1368,5.2843,5.3596,5.3494,5.7386,5.8798,5.7511,5.8765,5.8361,5.6525,5.6525,5.6753,5.7322,5.9917,6.0845,6.0564,6.1873,6.2539,6.2851,6.3281,6.0113,5.5058,5.4199,5.0451,4.5466,4.4377,4.4008,4.4008,4.4008,4.4008,4.4008,4.4008,4.4008,4.4008,4.4008,4.4008,4.4008,4.4008,4.4008,4.4008,4.4008,4.3928,4.3848,4.3848,4.3795,4.3714,4.3714,4.3714,4.3688,4.3607,4.3233,4.2619,4.1523,4.0513,3.9428,3.8232,3.5067,3.2653,3.2159,2.6633,2.3379,2.4696,2.0607,1.8378,1.9647,1.8267,1.7568,1.7921,1.8192,1.8925,2.0173,2.0349,2.0933,2.2045,2.1977,2.2452,2.3302,2.3632,2.3809,2.389,2.3836,2.3727,2.3592,2.3592,2.3592,2.3592,2.366,2.3782,2.3985,2.408,2.4161,2.4189,2.4243,2.4229,2.4216,7.1443,7.156,7.09,6.8525,6.6072,6.4324,6.3834,6.27,6.1875,6.168,6.2344,6.3106,6.3633,6.3555,6.3515,6.3515,5.8893,5.6717,5.8404,5.3802,5.2404,5.5385,5.6663,5.7322,5.7177,6.0138,6.0864,5.9296,5.9569,5.957,5.9297,5.9297,6.0039,6.1328,6.1328,6.1719,6.2442,6.2539,6.289,6.3162,6.2344,5.8652,5.3629,5.2591,4.8832,4.4008,4.4008,4.4008,4.4008,4.4008,4.4008,4.4008,4.4008,4.4008,4.4008,4.4008,4.4008,4.4008,4.4008,4.4008,4.4008,4.4008,4.4008,4.4008,4.4008,4.4008,4.4008,4.4008,4.4008,4.3955,4.3848,4.342,4.2886,4.2218,4.1924,4.1497,4.0581,3.6209,3.282,3.2172,2.5798,2.1634,2.206,2.008,1.8871,1.9128,1.8599,1.8342,1.8531,1.8667,1.9291,2.0485,2.0811,2.1367,2.2221,2.2099,2.2452,2.3221,2.3551,2.3727,2.3809,2.3714,2.3592,2.3383,2.3383,2.3383,2.3383,2.3483,2.366,2.389,2.3944,2.4012,2.4121,2.4121,2.4121,2.4134,7.0023,6.7884,6.6056,6.5731,6.3471,6.1328,6.0117,6.1328,6.1953,6.0724,6.2422,6.3672,6.375,6.382,6.3932,6.3932,5.807,5.5784,5.9011,5.3258,5.2655,5.9259,5.9497,5.9315,5.9038,6.1971,6.165,5.7851,6.0408,6.1719,6.1719,6.1719,6.1719,6.1719,6.1699,6.1992,6.2481,6.289,6.332,6.3448,6.0447,5.7169,5.3704,5.035,4.7007,4.4008,4.4008,4.4008,4.4008,4.4008,4.4008,4.4008,4.4008,4.4008,4.4008,4.4008,4.4008,4.4008,4.4008,4.4008,4.4008,4.4008,4.4008,4.4008,4.4008,4.4008,4.4008,4.4008,4.4008,4.3928,4.3607,4.3314,4.302,4.279,4.2218,4.1648,4.1,3.4705,2.9866,2.9086,2.3041,1.9152,1.9732,1.9834,1.9916,1.9796,1.9771,1.9745,1.9712,1.8938,1.902,2.0187,2.0512,2.1001,2.172,2.1936,2.2303,2.3049,2.347,2.366,2.3646,2.3632,2.3537,2.3343,2.3343,2.3356,2.3356,2.3293,2.3483,2.3863,2.3727,2.3863,2.4107,2.4121,2.4121,2.4121,6.5028,6.5537,6.5168,6.2268,6.1712,6.1601,6.1328,6.1875,6.2442,6.2422,6.3164,6.3789,6.414,6.1909,6.041,6.041,5.8497,5.7872,5.9125,5.7265,5.8216,6.2879,6.218,6.1605,6.1549,6.199,6.1873,6.1242,6.1524,6.1719,6.1719,6.1719,6.1719,6.1719,6.207,6.2461,6.287,6.332,6.3789,6.3876,6.0558,5.7169,5.3704,5.035,4.7007,4.4008,4.4008,4.4008,4.4008,4.4008,4.4008,4.4008,4.4008,4.4008,4.4008,4.4008,4.4008,4.4008,4.4008,4.4008,4.4008,4.4008,4.4008,4.4008,4.4008,4.4008,4.4008,4.4008,4.4008,4.3982,4.3901,4.3634,4.334,4.302,4.2699,4.1196,3.7531,3.5369,3.1848,2.5661,2.3756,2.3075,2.3374,2.1424,2.1238,2.3722,2.138,1.9929,2.0159,2.0187,2.058,2.1448,2.1638,2.1937,2.2413,2.2506,2.2832,2.3347,2.3456,2.3456,2.3334,2.3103,2.3049,2.3117,2.3117,2.3171,2.328,2.3289,2.3456,2.3578,2.3768,2.389,2.3958,2.408,2.4121,2.4107,6.2593,6.338,6.3408,6.1343,6.1348,6.1758,6.1992,6.2422,6.2812,6.3281,6.3672,6.4062,6.4297,6.1248,5.8576,5.7044,5.6599,5.7185,5.9099,5.8924,6.0396,6.4136,6.3633,6.3281,6.3281,6.3047,6.293,6.3008,6.2363,6.1992,6.1992,6.1836,6.1836,6.2031,6.2324,6.2754,6.332,6.3555,6.3021,6.1678,5.8265,5.4844,5.1441,4.8084,4.5635,4.4008,4.4008,4.4008,4.4008,4.4008,4.4008,4.4008,4.4008,4.4008,4.4008,4.4008,4.4008,4.4008,4.4008,4.4008,4.4008,4.4008,4.4008,4.4008,4.4008,4.4008,4.4008,4.4008,4.4008,4.4008,4.4008,4.3741,4.3435,4.3314,4.1375,3.8962,3.626,3.2804,2.9554,2.6899,2.5517,2.5563,2.7488,2.4918,2.377,2.5506,2.2375,2.0431,2.0526,2.0878,2.1313,2.1869,2.2167,2.2398,2.2617,2.2832,2.3049,2.3158,2.328,2.3239,2.3008,2.2859,2.2832,2.29,2.2981,2.3049,2.313,2.3221,2.3302,2.3397,2.37,2.3836,2.3904,2.4066,2.4121,2.4107,6.1719,6.1719,6.1719,6.1719,6.1719,6.1836,6.2305,6.2734,6.3143,6.3633,6.4023,6.4297,6.4297,6.078,5.7294,5.4338,5.4148,5.5315,5.8265,5.9383,6.1248,6.4153,6.4297,6.4297,6.4297,6.4258,6.4023,6.3672,6.289,6.2461,6.2461,6.207,6.2109,6.2461,6.2539,6.3008,6.3672,6.375,6.1988,5.8913,5.5474,5.2049,4.8703,4.527,4.4008,4.4008,4.4008,4.4008,4.4008,4.4008,4.4008,4.4008,4.4008,4.4008,4.4008,4.4008,4.4008,4.4008,4.4008,4.4008,4.4008,4.4008,4.4008,4.4008,4.4008,4.4008,4.4008,4.4008,4.4008,4.4008,4.4008,4.3795,4.3527,4.3314,3.9528,3.6483,3.5967,3.0325,2.7289,3.0027,2.8397,2.8369,3.1856,2.8691,2.6549,2.6849,2.3259,2.1001,2.0919,2.1285,2.1638,2.1896,2.2399,2.2644,2.2698,2.3022,2.3076,2.2818,2.3063,2.3022,2.2751,2.2723,2.2723,2.2764,2.29,2.2995,2.3022,2.3171,2.3293,2.3356,2.3592,2.3714,2.3836,2.3999,2.4053,2.4039,6.1719,6.1719,6.1719,6.1719,6.1719,6.1836,6.2305,6.2734,6.3143,6.3633,6.4023,6.4297,6.4297,5.8639,5.4684,5.4148,5.4148,5.4338,5.4873,6.0286,6.3749,6.4297,6.4297,6.4297,6.4297,6.3984,6.375,6.3672,6.3164,6.293,6.293,6.2792,6.2851,6.293,6.332,6.3555,6.3672,6.4062,6.2291,5.8913,5.5474,5.2049,4.8703,4.527,4.4008,4.4008,4.4008,4.4008,4.4008,4.4008,4.4008,4.4008,4.4008,4.4008,4.4008,4.4008,4.4008,4.4008,4.4008,4.4008,4.4008,4.4008,4.4008,4.4008,4.4008,4.4008,4.4008,4.4008,4.4008,4.4008,4.4008,4.3955,4.3527,4.2271,3.9175,3.6507,3.5155,3.4398,3.317,3.0925,3.3037,3.5028,3.5875,3.0044,2.7515,3.0697,2.4851,2.1285,2.1583,2.1706,2.1896,2.2072,2.2398,2.2683,2.294,2.313,2.313,2.2981,2.3022,2.2886,2.2658,2.2466,2.2479,2.2601,2.2751,2.2886,2.3022,2.3171,2.3239,2.328,2.3356,2.3424,2.3465,2.37,2.3754,2.3727,6.1719,6.1719,6.1719,6.1719,6.1914,6.2226,6.2656,6.3086,6.3555,6.3984,6.418,6.4297,6.4297,5.9817,5.6856,5.6856,5.6856,5.6856,5.6856,6.1531,6.4297,6.4297,6.4297,6.4297,6.4297,6.414,6.4023,6.4023,6.3633,6.3398,6.3398,6.3104,6.3164,6.3398,6.3594,6.3789,6.3902,6.2276,5.9569,5.6132,5.2782,4.9349,4.6187,4.4574,4.4008,4.4008,4.4008,4.4008,4.4008,4.4008,4.4008,4.4008,4.4008,4.4008,4.4008,4.4008,4.4008,4.4008,4.4008,4.4008,4.4008,4.4008,4.4008,4.4008,4.4008,4.4008,4.4008,4.4008,4.4008,4.4008,4.4008,4.4008,4.3795,4.31,3.9793,3.7025,3.634,3.4712,3.3682,3.3858,3.5731,3.7712,3.9553,3.3316,2.9928,3.1697,2.5272,2.1435,2.1719,2.1815,2.195,2.2113,2.2479,2.2818,2.3117,2.3185,2.3117,2.2886,2.2886,2.2723,2.2425,2.2302,2.2371,2.2452,2.2683,2.2818,2.29,2.313,2.3225,2.3239,2.3329,2.3497,2.3578,2.366,2.3727,2.3768,6.1719,6.1719,6.1719,6.1719,6.207,6.2539,6.2909,6.3398,6.3867,6.4258,6.4297,6.4297,6.4297,6.1248,5.9197,5.9197,5.9197,5.9197,5.9197,6.239,6.4297,6.4297,6.4297,6.4297,6.4297,6.4297,6.4297,6.4297,6.3984,6.3867,6.3789,6.3515,6.3515,6.3867,6.3867,6.3561,6.294,6.0348,5.6759,5.2687,5.0157,4.7072,4.4074,4.4903,4.4706,4.4074,4.4903,4.464,4.4008,4.4008,4.4008,4.4008,4.4008,4.4008,4.4008,4.4008,4.4008,4.4008,4.4008,4.4008,4.4008,4.4008,4.4008,4.4008,4.4008,4.4008,4.4008,4.4008,4.4008,4.4008,4.4008,4.4008,4.3901,4.3634,4.0146,3.7725,3.8419,3.5341,3.43,3.7723,3.8519,3.9707,4.2071,3.6002,3.1907,3.1843,2.5401,2.1584,2.176,2.1882,2.2018,2.2194,2.2588,2.29,2.3171,2.3171,2.3049,2.2778,2.2751,2.2588,2.2274,2.2274,2.2274,2.2288,2.2656,2.2778,2.2805,2.3103,2.3225,2.3239,2.3347,2.347,2.3578,2.3578,2.3646,2.37,6.1719,6.1719,6.1719,6.1719,6.207,6.2539,6.2909,6.3398,6.3867,6.4258,6.4297,6.4297,6.4297,6.1248,5.9197,5.9197,5.9197,5.9197,5.9197,6.239,6.4297,6.4297,6.4297,6.4297,6.4297,6.4297,6.4297,6.4297,6.4258,6.4258,6.4258,6.4258,6.4258,6.4258,6.4258,6.2536,5.9569,5.9321,5.5411,4.9448,4.922,4.7072,4.4377,4.7564,4.6746,4.4377,4.7564,4.6653,4.4008,4.4008,4.4008,4.4008,4.4008,4.4008,4.4008,4.4008,4.4008,4.4008,4.4008,4.4008,4.4008,4.4008,4.4008,4.4008,4.4008,4.4008,4.4008,4.4008,4.4008,4.4008,4.4008,4.4008,4.3634,4.2475,3.9578,3.8444,4.1075,3.8661,3.8079,4.2137,4.2697,4.2682,4.2646,3.6383,3.2195,3.2085,2.5593,2.1774,2.2059,2.2099,2.2221,2.252,2.2696,2.2859,2.3022,2.3022,2.294,2.2778,2.2642,2.2479,2.2274,2.2274,2.2274,2.2288,2.2656,2.2778,2.2805,2.3103,2.3225,2.3225,2.3239,2.3239,2.3253,2.3253,2.3253,2.3253,6.1719,6.1719,6.1797,6.207,6.2461,6.293,6.3398,6.3789,6.414,6.4297,6.4297,6.4297,6.4297,6.3162,6.2329,6.2329,6.2329,6.2329,6.2329,6.3589,6.4297,6.4297,6.4297,6.4297,6.4297,6.4297,6.4297,6.4297,6.4297,6.4297,6.4297,6.4297,6.4297,6.4236,6.2084,6.041,5.8913,5.4684,5.1441,4.8897,4.6812,4.5166,4.4377,4.7824,4.7007,4.4443,4.7889,4.6913,4.4008,4.4008,4.4008,4.4008,4.4008,4.4008,4.4008,4.4008,4.4008,4.4008,4.4008,4.4008,4.4008,4.4008,4.4008,4.4008,4.4008,4.4008,4.4008,4.4008,4.4008,4.4008,4.4008,4.4008,4.3848,4.3394,4.2299,4.1896,4.3024,4.2142,4.1818,4.321,4.334,4.3233,4.2939,3.6592,3.2373,3.2373,2.5786,2.1896,2.2099,2.2194,2.2303,2.2411,2.2574,2.271,2.2873,2.2873,2.2805,2.2712,2.2588,2.2479,2.2274,2.2274,2.2274,2.2288,2.2547,2.2696,2.2805,2.3008,2.313,2.3225,2.3225,2.328,2.3347,2.3253,2.328,2.3248,6.1719,6.1719,6.1836,6.2305,6.2734,6.3164,6.3633,6.4023,6.4297,6.4297,6.4297,6.4297,6.4297,6.4297,6.4297,6.4297,6.4297,6.4297,6.4297,6.4297,6.4297,6.4297,6.4297,6.4297,6.4297,6.4297,6.4297,6.4297,6.4297,6.4297,6.4297,6.4297,6.3749,6.2612,6.0249,5.8016,5.5789,5.2177,4.9448,4.7463,4.7268,4.6551,4.6093,5.0543,4.9448,4.6028,4.9448,4.7824,4.4008,4.4008,4.4008,4.4008,4.4008,4.4008,4.4008,4.4008,4.4008,4.4008,4.4008,4.4008,4.4008,4.4008,4.4008,4.4008,4.4008,4.4008,4.4008,4.4008,4.4008,4.4008,4.4008,4.4008,4.4008,4.4008,4.4008,4.4008,4.4008,4.4008,4.3928,4.3714,4.3688,4.3097,4.1675,3.612,3.213,3.0933,2.5357,2.2018,2.2181,2.222,2.2274,2.2274,2.2425,2.2534,2.2642,2.2696,2.2656,2.2617,2.2576,2.2425,2.2274,2.2274,2.2274,2.2344,2.2493,2.2712,2.2805,2.294,2.3103,2.3225,2.3225,2.3293,2.3361,2.3253,2.3293,2.3275,6.1719,6.1719,6.1836,6.2305,6.2734,6.3143,6.3633,6.4023,6.4297,6.4297,6.4297,6.4297,6.4297,6.4297,6.4297,6.4297,6.4297,6.4297,6.4297,6.4297,6.4297,6.4297,6.4297,6.4297,6.4297,6.4297,6.4297,6.4297,6.4297,6.4297,6.4297,6.4236,6.2451,5.9197,5.9099,5.5411,4.9349,5.2687,5.0157,4.464,5.141,5.2145,4.99,5.6668,5.5033,4.9543,5.2878,4.9737,4.4008,4.4008,4.4008,4.4008,4.4008,4.4008,4.4008,4.4008,4.4008,4.4008,4.4008,4.4008,4.4008,4.4008,4.4008,4.4008,4.4008,4.4008,4.4008,4.4008,4.4008,4.4008,4.4008,4.4008,4.4008,4.4008,4.4008,4.4008,4.4008,4.4008,4.4008,4.4008,4.4008,4.2399,3.8463,3.4905,3.1278,2.7613,2.4064,2.2181,2.2274,2.2274,2.2274,2.2274,2.2274,2.2274,2.2274,2.2479,2.2617,2.2617,2.2411,2.2274,2.2274,2.2274,2.2274,2.2344,2.2479,2.2642,2.2805,2.294,2.3103,2.3225,2.3225,2.3225,2.3225,2.3225,2.3225,2.3185,6.1719,6.1953,6.2305,6.2773,6.3203,6.3633,6.4062,6.4258,6.4219,6.3906,6.414,6.418,6.3906,6.414,6.4297,6.4297,6.4297,6.4297,6.4297,6.4297,6.4297,6.4297,6.4297,6.4297,6.4297,6.4297,6.4297,6.4297,6.4297,6.4297,6.4236,6.1862,6.0162,5.9011,5.4211,5.2304,5.2496,5.1154,5.08,5.1282,5.3323,5.3514,5.3069,5.7544,5.5033,4.9543,5.2878,4.9737,4.4008,4.4008,4.4008,4.4008,4.4008,4.4008,4.4008,4.4008,4.4008,4.4008,4.4008,4.4008,4.4008,4.4008,4.4008,4.4008,4.4008,4.4008,4.4008,4.4008,4.4008,4.4008,4.4008,4.4008,4.4008,4.4008,4.4008,4.4008,4.4008,4.4008,4.4008,4.4008,4.1749,3.975,3.859,3.2858,2.8819,2.7664,2.4242,2.2289,2.2274,2.2274,2.2274,2.2274,2.2274,2.2274,2.2274,2.2371,2.2411,2.2411,2.2357,2.2274,2.2274,2.2274,2.2274,2.2274,2.2398,2.2479,2.2698,2.2683,2.2832,2.3076,2.3076,2.313,2.3225,2.3225,2.3158,2.3076,6.1719,6.207,6.2539,6.2909,6.3398,6.3849,6.4258,6.4119,6.3984,6.375,6.375,6.3651,6.3437,6.3612,6.3789,6.3789,6.3984,6.4062,6.4062,6.4219,6.4297,6.4297,6.4297,6.4297,6.4297,6.4297,6.4297,6.4297,6.4297,6.3589,6.223,6.0162,5.7731,5.5096,5.2304,5.1505,5.2177,5.2814,5.3514,5.4338,5.7044,5.7294,5.648,5.9915,5.7016,5.1346,5.3354,4.9737,4.4008,4.4008,4.4008,4.4008,4.4008,4.4008,4.4008,4.4008,4.4008,4.4008,4.4008,4.4008,4.4008,4.4008,4.4008,4.4008,4.4008,4.4008,4.4008,4.4008,4.4008,4.4008,4.4008,4.4008,4.4008,4.4008,4.4008,4.4008,4.4008,4.4008,4.3454,4.2014,3.9931,3.7483,3.4576,3.0318,2.7082,2.5659,2.3572,2.2274,2.2274,2.2274,2.2274,2.2274,2.2274,2.2274,2.2274,2.2274,2.2274,2.2274,2.2274,2.2274,2.2274,2.2274,2.2274,2.2274,2.2274,2.2425,2.2617,2.2617,2.2767,2.2927,2.2927,2.2981,2.3049,2.3049,2.3022,2.3008,6.1758,6.2109,6.2578,6.2987,6.3437,6.3867,6.4258,6.3984,6.3672,6.3633,6.3281,6.2987,6.2969,6.2987,6.2987,6.2987,6.3398,6.3633,6.3633,6.4023,6.4258,6.4258,6.4297,6.4297,6.4297,6.4297,6.4297,6.4297,6.4297,6.2696,5.9631,5.9383,5.5915,5.0093,5.2878,5.2527,5.0414,5.6571,5.7544,5.5566,6.1777,6.2451,6.0002,6.3124,6.0039,5.4148,5.4148,4.9737,4.4008,4.4008,4.4008,4.4008,4.4008,4.4008,4.4008,4.4008,4.4008,4.4008,4.4008,4.4008,4.4008,4.4008,4.4008,4.4008,4.4008,4.4008,4.4008,4.4008,4.4008,4.4008,4.4008,4.4008,4.4008,4.4008,4.4008,4.4008,4.4008,4.4008,4.2701,3.9042,3.8308,3.5405,2.8362,2.7423,2.5865,2.2537,2.2274,2.2274,2.2274,2.2274,2.2274,2.2274,2.2274,2.2274,2.2274,2.2274,2.2274,2.2274,2.2274,2.2274,2.2274,2.2274,2.2274,2.2274,2.2274,2.2411,2.2534,2.2534,2.2698,2.2764,2.2764,2.2764,2.2778,2.2778,2.2647,2.2412,6.2207,6.2578,6.3047,6.3437,6.3906,6.4219,6.4297,6.3984,6.3555,6.3203,6.3026,6.287,6.2539,6.2812,6.2987,6.2987,6.3086,6.3164,6.3164,6.3555,6.3789,6.3789,6.414,6.4297,6.4297,6.4297,6.4297,6.4297,6.4297,6.3932,6.3162,6.0434,5.8452,5.6919,5.497,5.5222,5.7106,5.8576,6.0348,6.2206,6.3688,6.3871,6.3284,6.4054,6.0039,5.4148,5.4148,4.9737,4.4008,4.4008,4.4008,4.4008,4.4008,4.4008,4.4008,4.4008,4.4008,4.4008,4.4008,4.4008,4.4008,4.4008,4.4008,4.4008,4.4008,4.4008,4.4008,4.4008,4.4008,4.4008,4.4008,4.4008,4.4008,4.4008,4.4008,4.4008,4.4008,4.4008,4.2701,3.9042,3.6076,3.2621,2.8158,2.511,2.3158,2.2344,2.2274,2.2274,2.2274,2.2274,2.2274,2.2274,2.2274,2.2274,2.2274,2.2274,2.2274,2.2274,2.2274,2.2274,2.2274,2.2274,2.2274,2.2274,2.2274,2.2288,2.2398,2.2398,2.2466,2.2601,2.2601,2.2683,2.2778,2.2778,2.0873,1.7862,6.2363,6.289,6.3398,6.3633,6.4023,6.4297,6.4297,6.3789,6.3281,6.3026,6.2636,6.2305,6.207,6.2207,6.2971,6.4353,6.4672,6.4793,6.4793,6.5237,6.4829,6.3419,6.3555,6.3651,6.3651,6.3651,6.3906,6.4297,6.4297,6.3505,6.1801,6.0002,5.8292,5.6759,5.6571,5.7544,5.9321,6.0903,6.2696,6.4297,6.4297,6.4297,6.4297,6.4297,6.1063,5.6292,5.4684,4.9737,4.4008,4.4008,4.4008,4.4008,4.4008,4.4008,4.4008,4.4008,4.4008,4.4008,4.4008,4.4008,4.4008,4.4008,4.4008,4.4008,4.4008,4.4008,4.4008,4.4008,4.4008,4.4008,4.4008,4.4008,4.4008,4.4008,4.4008,4.4008,4.4008,4.4008,4.2014,3.6657,3.4328,3.1083,2.5659,2.342,2.2274,2.2274,2.2274,2.2274,2.2274,2.2274,2.2274,2.2274,2.2274,2.2274,2.2274,2.2274,2.2274,2.2274,2.2274,2.2274,2.2274,2.2274,2.2274,2.2274,2.2274,2.2274,2.2274,2.2274,2.2371,2.2452,2.2452,2.2493,2.2574,2.2574,2.0175,1.6189,6.2598,6.3164,6.3672,6.3789,6.4101,6.4297,6.4297,6.3555,6.2987,6.2987,6.2207,6.1719,6.1719,6.2145,6.3437,6.5871,6.6945,6.7427,6.7427,6.7335,6.6181,6.378,6.3206,6.2987,6.2987,6.2987,6.3377,6.4219,6.4219,6.2742,6.0064,6.0064,5.8541,5.5944,5.8825,6.0064,6.0249,6.3063,6.4297,6.4297,6.4297,6.4297,6.4297,6.4297,6.1801,5.7918,5.5125,4.9737,4.4008,4.4008,4.4008,4.4008,4.4008,4.4008,4.4008,4.4008,4.4008,4.4008,4.4008,4.4008,4.4008,4.4008,4.4008,4.4008,4.4008,4.4008,4.4008,4.4008,4.4008,4.4008,4.4008,4.4008,4.4008,4.4008,4.4008,4.4008,4.4008,4.4008,4.1575,3.4913,3.3586,3.054,2.3833,2.3213,2.2951,2.2344,2.2274,2.2274,2.2274,2.2274,2.2274,2.2274,2.2274,2.2274,2.2274,2.2274,2.2274,2.2274,2.2274,2.2274,2.2274,2.2274,2.2274,2.2274,2.2274,2.2274,2.2274,2.2274,2.2274,2.2274,2.2274,2.2274,2.2123,2.0859,1.813,1.4075,6.3419,6.3633,6.3789,6.414,6.4258,6.4297,6.4297,6.3555,6.2987,6.2987,6.2207,6.1719,6.1719,6.3972,6.5659,6.6056,6.8516,7.0004,7.0004,6.8079,6.6666,6.6305,6.4191,6.2987,6.2987,6.2987,6.3281,6.381,6.381,6.3703,6.3589,6.3589,6.3345,6.294,6.3406,6.3589,6.3688,6.4114,6.4297,6.4297,6.4297,6.4297,6.4297,6.4297,6.0348,5.4684,5.4241,4.9737,4.4008,4.4008,4.4008,4.4008,4.4008,4.4008,4.4008,4.4008,4.4008,4.4008,4.4008,4.4008,4.4008,4.4008,4.4008,4.4008,4.4008,4.4008,4.4008,4.4008,4.4008,4.4008,4.4008,4.4008,4.4008,4.4008,4.4008,4.4008,4.4008,4.4008,4.2436,3.8375,3.5136,3.1538,2.7355,2.6945,2.5659,2.2537,2.2274,2.2274,2.2274,2.2274,2.2274,2.2274,2.2274,2.2274,2.2274,2.2274,2.2274,2.2274,2.2274,2.2274,2.2274,2.2274,2.2274,2.2274,2.2274,2.2274,2.2274,2.2274,2.2274,2.2274,2.2274,2.2274,2.1527,1.505,1.0351,0.6558,6.3633,6.3867,6.4101,6.4258,6.4297,6.4297,6.4297,6.3555,6.2987,6.2987,6.2207,6.1719,6.1719,6.4332,6.7466,7.0751,7.2271,7.2975,7.2975,7.1963,6.9893,6.6562,6.5341,6.3941,6.2305,6.2305,6.2539,6.293,6.3203,6.3555,6.3984,6.3984,6.4101,6.4297,6.4297,6.4297,6.4297,6.4297,6.4297,6.4297,6.4297,6.4297,6.4297,6.4297,6.2428,5.9259,5.5474,5.0992,4.6551,4.464,4.4008,4.4008,4.4008,4.4008,4.4008,4.4008,4.4008,4.4008,4.4008,4.4008,4.4008,4.4008,4.4008,4.4008,4.4008,4.4008,4.4008,4.4008,4.4008,4.4008,4.4008,4.4008,4.4008,4.4008,4.4008,4.4008,4.4008,4.4008,4.2701,3.9042,3.5405,3.2573,3.0947,2.8907,2.7013,2.5453,2.3434,2.2274,2.2274,2.2274,2.2274,2.2274,2.2274,2.2274,2.2274,2.2274,2.2274,2.2274,2.2274,2.2274,2.2274,2.2274,2.2274,2.2274,2.2274,2.2274,2.2274,2.2274,2.2274,2.2274,2.2274,2.1055,1.8809,1.5599,1.2081,0.8645]},{"header":{"parameterUnit":"m.s-1","parameterCategory":1,"la1":30.6,"la2":28.766,"lo1":-90.7593,"lo2":-88.6598,"dy":0.0162,"dx":0.0183,"nx":116,"ny":114,"refTime":"2023-04-12T12:00:00:Z","depth":0,"parameterNumber":3,"parameterNumberName":"V-component_of_WINDS"},"data":[0.0,0.0,0.0,0.0,0.0,0.0,0.0,0.0,0.0,0.0,0.0,0.0,0.0,0.0,0.0,0.0,0.0,0.0,0.0,0.0,0.0,0.0,0.0,0.0,0.0,0.0,0.0,0.0,0.0,0.0,0.0,0.0,0.0,0.0,0.0,0.0,0.0,0.0,0.0,0.0,0.0,0.0,0.0,0.0,0.0,0.0,0.0,0.0,0.0,0.0,0.0,0.0,0.0,0.0,0.0,0.0,0.0,0.0,0.0,0.0,0.0,0.0,0.0,0.0,0.0,0.0,0.0,0.0,0.0,0.0,0.0,0.0,0.0,0.0,0.0,0.0,0.0,0.0,0.0,0.0,0.0,0.0,0.0,0.0,0.0,0.0,0.0,0.0,0.0,0.0,0.0,0.0,0.0,0.0,0.0,0.0,0.0,0.0,0.0,0.0,0.0,0.0,0.0,0.0,0.0,0.0,0.0,0.0,0.0,0.0,0.0,0.0,0.0,0.0,0.0,0.0,0.0,0.0,0.0,0.0,0.0,0.0,0.0,0.0,0.0,0.0,0.0,0.0,0.0,0.0,0.0,0.0,0.0,0.0,0.0,0.0,0.0,0.0,0.0,0.0,0.0,0.0,0.0,0.0,0.0,0.0,0.0,0.0,0.0,0.0,0.0,0.0,0.0,0.0,0.0,0.0,0.0,0.0,0.0,0.0,0.0,0.0,0.0,0.0,0.0,0.0,0.0,0.0,0.0,0.0,0.0,0.0,0.0,0.0,0.0,0.0,0.0,0.0,0.0,0.0,0.0,0.0,0.0,0.0,0.0,0.0,0.0,0.0,0.0,0.0,0.0,0.0,0.0,0.0,0.0,0.0,0.0,0.0,0.0,0.0,0.0,0.0,0.0,0.0,0.0,0.0,0.0,0.0,0.0,0.0,0.0,0.0,0.0,0.0,0.0,0.0,0.0,0.0,0.0,0.0,0.0,0.0,0.0,0.0,0.0,0.0,0.0,0.0,0.0,0.0,0.0,0.0,0.0,0.0,0.0,0.0,0.0,0.0,0.0,0.0,0.0,0.0,0.0,0.0,0.0,0.0,0.0,0.0,0.0,0.0,0.0,0.0,0.0,0.0,0.0,0.0,0.0,0.0,0.0,0.0,0.0,0.0,0.0,0.0,0.0,0.0,0.0,0.0,0.0,0.0,0.0,0.0,0.0,0.0,0.0,0.0,0.0,0.0,0.0,0.0,0.0,0.0,0.0,0.0,0.0,0.0,0.0,0.0,0.0,0.0,0.0,0.0,0.0,0.0,0.0,0.0,0.0,0.0,0.0,0.0,0.0,0.0,0.0,0.0,0.0,0.0,0.0,0.0,0.0,0.0,0.0,0.0,0.0,0.0,0.0,0.0,0.0,0.0,0.0,0.0,0.0,0.0,0.0,0.0,0.0,0.0,0.0,0.0,0.0,0.0,0.0,0.0,0.0,0.0,0.0,0.0,0.0,0.0,0.0,0.0,0.0,0.0,0.0,0.0,0.0,0.0,0.0,0.0,0.0,0.0,0.0,0.0,0.0,0.0,0.0,0.0,0.0,0.0,0.0,0.0,0.0,0.0,0.0,0.0,0.0,0.0,0.0,0.0,0.0,0.0,0.0,0.0,0.0,0.0,0.0,0.0,0.0,0.0,0.0,0.0,0.0,0.0,0.0,0.0,0.0,0.0,0.0,0.0,0.0,0.0,0.0,0.0,0.0,0.0,0.0,0.0,0.0,0.0,0.0,0.0,0.0,0.0,0.0,0.0,0.0,0.0,0.0,0.0,0.0,0.0,0.0,0.0,0.0,0.0,0.0,0.0,0.0,0.0,0.0,0.0,0.0,0.0,0.0,0.0,0.0,0.0,0.0,0.0,0.0,0.0,0.0,0.0,0.0,0.0,0.0,0.0,0.0,0.0,0.0,0.0,0.0,0.0,0.0,0.0,0.0,0.0,0.0,0.0,0.0,0.0,0.0,0.0,0.0,0.0,0.0,0.0,0.0,0.0,0.0,0.0,0.0,0.0,0.0,0.0,0.0,0.0,0.0,0.0,0.0,0.0,0.0,0.0,0.0,0.0,0.0,0.0,0.0,0.0,0.0,0.0,0.0,0.0,0.0,0.0,0.0,0.0,0.0,0.0,0.0,0.0,0.0,0.0,0.0,0.0,0.0,0.0,0.0,0.0,0.0,0.0,0.0,0.0,0.0,0.0,0.0,0.0,0.0,0.0,0.0,0.0,0.0,0.0,0.0,0.0,0.0,0.0,0.0,0.0,0.0,0.0,0.0,0.0,0.0,0.0,0.0,0.0,0.0,0.0,0.0,0.0,0.0,0.0,0.0,0.0,0.0,0.0,0.0,0.0,0.0,0.0,0.0,0.0,0.0,0.0,0.0,0.0,0.0,0.0,0.0,0.0,0.0,0.0,0.0,0.0,0.0,0.0,0.0,0.0,0.0,0.0,0.0,0.0,0.0,0.0,0.0,0.0,0.0,0.0,0.0,0.0,0.0,0.0,0.0,0.0,0.0,0.0,0.0,0.0,0.0,0.0,0.0,0.0,0.0,0.0,0.0,0.0,0.0,0.0,0.0,0.0,0.0,0.0,0.0,0.0,0.0,0.0,0.0,0.0,0.0,0.0,0.0,0.0,0.0,0.0,0.0,0.0,0.0,0.0,0.0,0.0,0.0,0.0,0.0,0.0,0.0,0.0,0.0,0.0,0.0,0.0,0.0,0.0,0.0,0.0,0.0,0.0,0.0,0.0,0.0,0.0,0.0,0.0,0.0,0.0,0.0,0.0,0.0,0.0,0.0,0.0,0.0,0.0,0.0,0.0,0.0,0.0,0.0,0.0,0.0,0.0,0.0,0.0,0.0,0.0,0.0,0.0,0.0,0.0,0.0,0.0,0.0,0.0,0.0,0.0,0.0,0.0,0.0,0.0,0.0,0.0,0.0,0.0,0.0,0.0,0.0,0.0,0.0,0.0,0.0,0.0,0.0,0.0,0.0,0.0,0.0,0.0,0.0,0.0,0.0,0.0,0.0,0.0,0.0,0.0,0.0,0.0,0.0,0.0,0.0,0.0,0.0,0.0,0.0,0.0,0.0,0.0,0.0,0.0,0.0,0.0,0.0,0.0,0.0,0.0,0.0,0.0,0.0,0.0,0.0,0.0,0.0,0.0,0.0,0.0,0.0,0.0,0.0,0.0,0.0,0.0,0.0,0.0,0.0,0.0,0.0,0.0,0.0,0.0,0.0,0.0,0.0,0.0,0.0,0.0,0.0,0.0,0.0,0.0,0.0,0.0,0.0,0.0,0.0,0.0,0.0,0.0,0.0,0.0,0.0,0.0,0.0,0.0,0.0,0.0,0.0,0.0,0.0,0.0,0.0,0.0,0.0,0.0,0.0,0.0,0.0,0.0,0.0,0.0,0.0,0.0,0.0,0.0,0.0,0.0,0.0,0.0,0.0,0.0,0.0,0.0,0.0,0.0,0.0,0.0,0.0,0.0,0.0,0.0,0.0,0.0,0.0,0.0,0.0,0.0,0.0,0.0,0.0,0.0,0.0,0.0,0.0,0.0,0.0,0.0,0.0,0.0,0.0,0.0,0.0,0.0,0.0,0.0,0.0,0.0,0.0,0.0,0.0,0.0,0.0,0.0,0.0,0.0,0.0,0.0,0.0,0.0,0.0,0.0,0.0,0.0,0.0,0.0,0.0,0.0,0.0,0.0,0.0,0.0,0.0,0.0,0.0,0.0,0.0,0.0,0.0,0.0,0.0,0.0,0.0,0.0,0.0,0.0,0.0,0.0,0.0,0.0,0.0,0.0,0.0,0.0,0.0,0.0,0.0,0.0,0.0,0.0,0.0,0.0,0.0,0.0,0.0,0.0,0.0,0.0,0.0,0.0,0.0,0.0,0.0,0.0,0.0,0.0,0.0,0.0,0.0,0.0,0.0,0.0,0.0,0.0,0.0,0.0,0.0,0.0,0.0,0.0,0.0,0.0,0.0,0.0,0.0,0.0,0.0,0.0,0.0,0.0,0.0,0.0,0.0,0.0,0.0,0.0,0.0,0.0,0.0,0.0,0.0,0.0,0.0,0.0,0.0,0.0,0.0,0.0,0.0,0.0,0.0,0.0,0.0,0.0,0.0,0.0,0.0,0.0,0.0,0.0,0.0,0.0,0.0,0.0,0.0,0.0,0.0,0.0,0.0,0.0,0.0,0.0,0.0,0.0,0.0,0.0,0.0,0.0,0.0,0.0,0.0,0.0,0.0,0.0,0.0,0.0,0.0,0.0,0.0,0.0,0.0,0.0,0.0,0.0,0.0,0.0,0.0,0.0,0.0,0.0,0.0,0.0,0.0,0.0,0.0,0.0,0.0,0.0,0.0,0.0,0.0,0.0,0.0,0.0,0.0,0.0,0.0,0.0,0.0,0.0,0.0,0.0,0.0,0.0,0.0,0.0,0.0,0.0,0.0,0.0,0.0,0.0,0.0,0.0,0.0,0.0,0.0,0.0,0.0,0.0,0.0,0.0,0.0,0.0,0.0,0.0,0.0,0.0,0.0,0.0,0.0,0.0,0.0,0.0,0.0,0.0,0.0,0.0,0.0,0.0,0.0,0.0,0.0,0.0,0.0,0.0,0.0,0.0,0.0,0.0,0.0,0.0,0.0,0.0,0.0,0.0,0.0,0.0,0.0,0.0,0.0,0.0,0.0,0.0,0.0,0.0,0.0,0.0,0.0,0.0,0.0,0.0,0.0,0.0,0.0,0.0,0.0,0.0,0.0,0.0,0.0,0.0,0.0,0.0,0.0,0.0,0.0,0.0,0.0,0.0,0.0,0.0,0.0,0.0,0.0,0.0,0.0,0.0,0.0,0.0,0.0,0.0,0.0,0.0,0.0,0.0,0.0,0.0,0.0,0.0,0.0,0.0,0.0,0.0,0.0,0.0,0.0,0.0,0.0,0.0,0.0,0.0,0.0,0.0,0.0,0.0,0.0,0.0,0.0,0.0,0.0,0.0,0.0,0.0,0.0,0.0,0.0,0.0,0.0,0.0,0.0,0.0,0.0,0.0,0.0,0.0,0.0,0.0,0.0,0.0,0.0,0.0,0.0,0.0,0.0,0.0,0.0,0.0,0.0,0.0,0.0,0.0,0.0,0.0,0.0,0.0,0.0,0.0,0.0,0.0,0.0,0.0,0.0,0.0,0.0,0.0,0.0,0.0,0.0,0.0,0.0,0.0,0.0,0.0,0.0,0.0,0.0,0.0,0.0,0.0,0.0,0.0,0.0,0.0,0.0,0.0,0.0,0.0,0.0,0.0,0.0,0.0,0.0,0.0,0.0,0.0,0.0,0.0,0.0,0.0,0.0,0.0,0.0,0.0,0.0,0.0,0.0,0.0,0.0,0.0,0.0,0.0,0.0,0.0,0.0,0.0,0.0,0.0,0.0,0.0,0.0,0.0,0.0,0.0,0.0,0.0,0.0,0.0,0.0,0.0,0.0,0.0,0.0,0.0,0.0,0.0,0.0,0.0,0.0,0.0,0.0,0.0,0.0,0.0,0.0,0.0,0.0,0.0,0.0,0.0,0.0,0.0,0.0,0.0,0.0,0.0,0.0,0.0,0.0,0.0,0.0,0.0,0.0,0.0,0.0,0.0,0.0,0.0,0.0,0.0,0.0,0.0,0.0,0.0,0.0,0.0,0.0,0.0,0.0,0.0,0.0,0.0,0.0,0.0,0.0,0.0,0.0,0.0,0.0,0.0,0.0,0.0,0.0,0.0,0.0,0.0,0.0,0.0,0.0,0.0,0.0,0.0,0.0,0.0,0.0,0.0,0.0,0.0,0.0,0.0,0.0,0.0,0.0,0.0,0.0,0.0,0.0,0.0,0.0,0.0,0.0,0.0,0.0,0.0,0.0,0.0,0.0,0.0,0.0,0.0,0.0,0.0,0.0,0.0,0.0,0.0,0.0,0.0,0.0,0.0,0.0,0.0,0.0,0.0,0.0,0.0,0.0,0.0,0.0,0.0,0.0,0.0,0.0,0.0,0.0,0.0,0.0,0.0,0.0,0.0,0.0,0.0,0.0,0.0,7.5091,7.463,0.0,0.0,0.0,0.0,0.0,0.0,0.0,0.0,0.0,0.0,0.0,0.0,0.0,0.0,0.0,0.0,0.0,0.0,0.0,0.0,0.0,0.0,0.0,0.0,0.0,0.0,0.0,0.0,0.0,0.0,0.0,0.0,0.0,0.0,0.0,0.0,0.0,5.2888,5.486,5.7381,6.0311,6.0727,5.9424,5.6811,0.0,0.0,0.0,0.0,0.0,0.0,0.0,0.0,0.0,0.0,0.0,0.0,0.0,0.0,0.0,0.0,0.0,0.0,0.0,0.0,0.0,0.0,0.0,0.0,0.0,0.0,0.0,0.0,0.0,0.0,0.0,0.0,0.0,0.0,0.0,0.0,0.0,0.0,0.0,0.0,0.0,0.0,0.0,0.0,0.0,0.0,0.0,0.0,0.0,0.0,0.0,0.0,0.0,0.0,0.0,0.0,0.0,0.0,0.0,0.0,0.0,0.0,0.0,0.0,0.0,0.0,0.0,0.0,0.0,0.0,7.9708,7.8323,0.0,0.0,0.0,0.0,0.0,0.0,0.0,0.0,0.0,0.0,0.0,0.0,0.0,0.0,0.0,0.0,0.0,0.0,0.0,0.0,0.0,0.0,0.0,4.6616,4.709,4.7376,4.7376,4.7699,0.0,0.0,0.0,0.0,0.0,0.0,5.1609,5.1564,5.2663,5.5151,5.9824,6.4423,6.8805,6.895,6.5195,5.851,5.9465,0.0,0.0,0.0,0.0,0.0,0.0,0.0,0.0,0.0,0.0,0.0,0.0,0.0,0.0,0.0,0.0,0.0,0.0,0.0,0.0,0.0,0.0,0.0,0.0,0.0,0.0,0.0,0.0,0.0,0.0,0.0,0.0,0.0,0.0,0.0,0.0,0.0,0.0,0.0,0.0,0.0,0.0,0.0,0.0,0.0,0.0,0.0,0.0,0.0,0.0,0.0,0.0,0.0,0.0,0.0,0.0,0.0,0.0,0.0,0.0,0.0,0.0,0.0,8.6478,8.7316,8.8094,8.8709,8.8171,8.6855,8.6547,8.417,8.0631,8.287,0.0,0.0,0.0,0.0,0.0,0.0,0.0,0.0,0.0,0.0,0.0,0.0,0.0,0.0,0.0,0.0,0.0,0.0,0.0,4.6196,4.7481,4.7684,4.8293,4.9526,4.9677,4.9999,5.0728,0.0,0.0,0.0,0.0,0.0,5.3096,5.2575,5.5313,6.1578,6.576,6.7863,6.7872,6.8591,6.7606,6.5264,6.6806,6.5472,6.2169,0.0,0.0,0.0,0.0,0.0,0.0,0.0,0.0,0.0,0.0,0.0,0.0,0.0,0.0,0.0,0.0,0.0,0.0,0.0,0.0,0.0,0.0,0.0,0.0,0.0,0.0,0.0,0.0,0.0,0.0,0.0,0.0,0.0,0.0,0.0,0.0,0.0,0.0,0.0,0.0,0.0,7.0475,7.4322,0.0,0.0,0.0,0.0,0.0,0.0,0.0,0.0,0.0,0.0,0.0,0.0,0.0,8.6555,8.7179,9.0402,9.2556,9.3489,9.4403,9.5249,9.6019,9.5403,9.5018,9.4711,9.3172,0.0,8.8239,8.5709,0.0,0.0,0.0,0.0,0.0,0.0,0.0,0.0,0.0,0.0,0.0,0.0,0.0,0.0,0.0,0.0,0.0,0.0,0.0,0.0,0.0,4.9857,5.115,5.3112,5.3247,5.3365,5.3704,5.3369,0.0,0.0,0.0,5.3338,5.4052,5.376,5.7569,6.5618,6.9535,7.2732,7.5175,7.5983,7.5763,7.4661,7.5395,7.1945,6.5558,6.5558,0.0,0.0,0.0,0.0,0.0,0.0,0.0,0.0,0.0,0.0,0.0,0.0,0.0,0.0,0.0,0.0,0.0,0.0,0.0,0.0,0.0,0.0,0.0,0.0,0.0,0.0,0.0,0.0,0.0,0.0,0.0,0.0,0.0,0.0,0.0,0.0,0.0,0.0,0.0,7.2783,7.6938,7.9246,7.9939,7.94,0.0,0.0,0.0,0.0,0.0,0.0,0.0,0.0,0.0,8.918,9.2249,9.4249,9.5104,9.8413,10.0481,10.1404,10.2327,10.3097,10.3866,10.3097,10.2712,10.2635,10.1404,9.9635,9.7403,9.2547,9.1633,9.2787,0.0,0.0,0.0,0.0,8.5247,8.5393,0.0,0.0,0.0,0.0,0.0,0.0,0.0,0.0,0.0,0.0,0.0,0.0,5.097,5.2514,5.4329,5.6341,5.6544,5.6409,5.6003,5.5482,5.4526,5.3058,5.3491,5.4098,5.4845,5.6616,6.1191,6.8661,7.285,7.6911,8.0755,8.1929,8.2003,8.1048,8.1415,7.7157,6.9522,6.9316,6.7467,6.4591,0.0,0.0,0.0,0.0,0.0,0.0,0.0,0.0,0.0,0.0,0.0,0.0,0.0,0.0,0.0,0.0,0.0,0.0,0.0,0.0,0.0,0.0,0.0,0.0,0.0,0.0,0.0,0.0,0.0,0.0,0.0,0.0,0.0,0.0,0.0,0.0,0.0,7.7938,8.1939,8.3401,8.5102,8.517,0.0,0.0,0.0,0.0,0.0,0.0,9.1488,9.3403,9.5403,9.748,10.0481,10.2481,10.3328,10.602,10.7713,10.8318,10.879,10.9175,10.9483,10.8867,10.8636,10.8329,10.7867,10.6867,10.5097,9.9327,9.6557,9.5942,9.5489,9.4018,9.2086,9.171,9.1248,9.0778,0.0,0.0,0.0,0.0,0.0,0.0,0.0,0.0,0.0,0.0,0.0,5.2645,5.4098,5.5638,5.7171,5.8709,5.8844,5.8235,5.6833,5.6733,5.6065,5.4575,5.4514,5.4895,5.5624,6.2183,6.7384,7.0912,7.6517,7.9415,7.989,8.2223,8.25,8.1048,8.2574,8.0005,7.45,7.3707,7.1945,6.9376,6.5571,0.0,0.0,0.0,0.0,0.0,0.0,0.0,0.0,0.0,0.0,0.0,0.0,0.0,0.0,0.0,0.0,0.0,0.0,0.0,0.0,0.0,0.0,0.0,0.0,0.0,0.0,0.0,0.0,0.0,0.0,0.0,0.0,0.0,0.0,0.0,0.0,0.0,0.0,8.6786,9.071,0.0,0.0,0.0,0.0,9.071,9.3018,9.5951,9.9336,10.1866,10.4789,10.8021,10.9867,11.1165,11.2099,11.3099,11.356,11.3637,11.2791,11.2099,11.1406,11.1318,11.0868,11.0098,11.0868,11.0714,10.9483,10.4328,10.2174,10.1789,9.7788,9.7096,9.7865,9.3864,9.2864,9.3403,0.0,0.0,0.0,0.0,0.0,0.0,0.0,0.0,5.0759,5.1967,5.3057,5.4452,5.6444,5.8461,6.0486,6.2448,6.2584,6.2381,6.1839,6.0007,5.8544,5.7533,5.6602,5.6887,5.8562,6.504,6.9275,7.1126,7.729,8.0667,8.1432,8.3251,8.3838,8.3398,8.4425,8.3838,8.1782,7.9433,7.6644,7.378,7.1284,6.7774,0.0,0.0,0.0,0.0,0.0,0.0,0.0,0.0,0.0,0.0,0.0,0.0,0.0,0.0,0.0,0.0,0.0,0.0,0.0,0.0,0.0,0.0,0.0,0.0,0.0,0.0,0.0,0.0,0.0,0.0,0.0,0.0,0.0,0.0,0.0,0.0,0.0,9.4101,9.6586,0.0,9.8096,9.8096,9.8481,9.9327,10.2174,10.5174,10.8098,10.9637,11.1175,11.3022,11.4099,11.4868,11.5099,11.5495,11.5561,11.5561,11.533,11.5022,11.4714,11.4176,11.3791,11.3494,11.3176,11.2637,11.1714,11.0483,10.8329,10.5636,10.302,10.202,10.1866,10.0404,9.9635,9.9481,0.0,0.0,0.0,0.0,0.0,0.0,0.0,5.2037,5.2671,5.3864,5.5162,5.6888,5.9112,6.1394,6.3599,6.5561,6.5493,6.4816,6.3599,6.1668,5.98,5.8024,5.8004,5.9704,6.3303,6.7457,7.1163,7.4351,7.9161,8.2121,8.3487,8.5306,8.6244,8.6244,8.7068,8.7582,8.7655,8.5233,8.2517,7.9507,7.6864,7.2547,6.7393,0.0,0.0,0.0,0.0,0.0,0.0,0.0,0.0,0.0,0.0,0.0,0.0,0.0,0.0,0.0,0.0,0.0,0.0,0.0,0.0,0.0,0.0,0.0,0.0,0.0,0.0,0.0,0.0,0.0,0.0,0.0,0.0,0.0,0.0,8.7467,9.3007,9.8199,10.1101,10.2911,10.3838,10.3936,10.4714,10.6703,10.9483,11.2175,11.4714,11.5715,11.6484,11.7407,11.7869,11.8188,11.8188,11.8188,11.8188,11.8188,11.7561,11.7176,11.6869,11.6099,11.5407,11.4868,11.4791,11.4176,11.3176,11.4099,11.2637,10.9713,10.8175,10.7021,10.602,10.602,10.5328,10.4405,0.0,0.0,0.0,0.0,0.0,0.0,5.3279,5.3903,5.4717,5.5356,5.7545,5.9858,6.2031,6.4298,6.6305,6.7726,6.7231,6.529,6.1675,6.1357,5.9719,5.6014,5.875,6.3338,6.9652,6.986,7.3495,8.093,8.2503,8.4228,8.5967,8.8372,8.9473,8.9546,9.0354,9.1179,9.184,9.1106,8.9417,8.6904,8.2003,7.8112,7.4573,0.0,0.0,0.0,0.0,0.0,0.0,0.0,0.0,0.0,0.0,0.0,0.0,0.0,0.0,0.0,0.0,0.0,0.0,0.0,0.0,0.0,0.0,0.0,0.0,0.0,0.0,0.0,0.0,0.0,0.0,0.0,0.0,0.0,8.5493,9.2514,9.802,9.8983,10.4192,10.7388,10.6688,10.8165,11.0232,11.2659,11.4484,11.6561,11.91,11.9869,12.0716,12.1562,12.1574,12.1574,12.1574,12.1574,12.1485,12.1497,11.9869,11.8715,11.7792,11.7023,11.5715,11.4176,11.588,11.5561,11.4176,11.5022,11.4868,11.4022,11.3099,11.1714,11.0175,11.0186,10.9175,10.7713,0.0,0.0,0.0,0.0,0.0,0.0,5.2517,5.3118,5.3677,5.3926,5.7384,6.003,6.0687,6.4181,6.6643,6.7049,6.7387,6.6731,6.4694,6.3,6.1415,5.9858,6.2121,6.663,7.3642,7.6689,8.0472,8.5034,8.7377,8.8818,8.9344,9.0592,9.1473,9.2134,9.2941,9.3749,9.4483,9.485,9.463,9.3529,8.8096,8.3618,7.9947,0.0,0.0,0.0,0.0,0.0,0.0,0.0,0.0,0.0,0.0,0.0,0.0,0.0,0.0,0.0,0.0,0.0,0.0,0.0,0.0,0.0,0.0,0.0,0.0,0.0,0.0,0.0,0.0,0.0,0.0,0.0,9.0128,9.345,9.4105,9.8312,10.2687,10.6463,11.0504,11.3136,11.3626,11.522,11.668,11.8131,11.9177,12.0408,12.1793,12.1485,12.1562,12.2485,12.187,12.1343,12.0716,12.0716,12.0408,11.9792,11.9331,11.9023,11.8715,11.8484,11.81,11.7715,11.8177,11.7792,11.6792,11.7023,11.6561,11.5561,11.3483,11.2099,11.1098,11.0406,10.9483,10.8482,0.0,0.0,0.0,0.0,0.0,0.0,5.2285,5.314,5.4005,5.4305,5.7704,6.0343,6.1065,6.4509,6.6893,6.7231,6.7658,6.6873,6.4521,6.2829,6.2857,6.4929,6.7127,7.1208,7.7516,8.1401,8.5094,8.857,9.1303,9.2868,9.3161,9.3969,9.463,9.5144,9.5584,9.6245,9.7033,9.7493,9.7713,9.7419,9.4116,8.9931,8.56,8.4425,8.1415,7.7745,7.7378,7.6806,7.5851,7.3208,0.0,0.0,0.0,0.0,0.0,0.0,0.0,0.0,0.0,0.0,0.0,0.0,0.0,0.0,0.0,0.0,0.0,0.0,0.0,0.0,0.0,0.0,0.0,0.0,9.6621,10.1166,10.3493,10.4995,10.7111,11.0593,11.4027,11.6273,11.6895,11.8506,11.9996,12.1284,12.2177,12.3024,12.387,12.3793,12.3793,12.387,12.3793,12.3101,12.187,12.2331,12.2024,12.1177,12.0869,12.0485,12.01,11.9792,11.9177,11.8638,11.8869,11.8638,11.7792,11.8177,11.7792,11.6869,0.0,0.0,0.0,0.0,11.1483,11.1021,0.0,0.0,0.0,0.0,0.0,0.0,5.2399,5.3552,5.4732,5.5499,5.8254,6.0622,6.213,6.5019,6.7117,6.7861,6.7726,6.6305,6.3057,6.2072,6.4395,7.0705,7.2823,7.6322,8.1609,8.4823,8.8212,9.1841,9.4432,9.611,9.6979,9.7713,9.808,9.8173,9.8173,9.8594,9.9402,9.9402,9.9402,9.9402,9.9402,9.6171,9.1253,8.9858,8.7435,8.4702,8.3985,8.2753,8.1285,8.0094,0.0,0.0,0.0,0.0,0.0,0.0,0.0,0.0,0.0,0.0,0.0,0.0,0.0,0.0,0.0,0.0,0.0,0.0,0.0,0.0,0.0,0.0,0.0,0.0,10.3335,10.8325,11.2507,11.1808,11.1368,11.2689,11.5767,11.7901,11.7972,11.9709,12.1476,12.3207,12.4024,12.4793,12.5563,12.6332,0.0,0.0,0.0,12.6101,12.4486,12.5178,12.5101,12.4178,12.3408,12.2639,12.1881,12.1177,12.01,11.8715,11.9485,11.9331,11.8407,11.91,11.8792,11.7792,11.6792,11.588,11.5187,11.4099,11.3791,11.3791,0.0,0.0,0.0,0.0,0.0,0.0,5.2289,5.3089,5.399,5.4702,5.7915,6.0486,6.1434,6.4681,6.7117,6.7861,6.6779,6.6102,6.5967,6.417,6.691,7.5247,7.6008,7.9985,8.7939,8.8768,9.1387,9.5953,9.6552,9.7414,9.8668,9.8814,9.9181,9.9842,9.9842,10.0283,10.1017,10.1017,10.1017,10.1017,10.1017,9.9181,9.6465,9.6098,9.485,9.3143,9.2996,9.2281,9.0959,8.7509,8.5673,8.4792,8.3911,8.0901,0.0,0.0,0.0,0.0,0.0,0.0,0.0,0.0,0.0,0.0,0.0,0.0,0.0,0.0,0.0,0.0,0.0,0.0,0.0,10.4709,10.8734,11.2595,11.6677,11.7021,11.6434,11.5406,11.8383,12.0539,12.063,12.2901,12.4766,12.5911,12.6101,12.6563,12.7409,12.7025,12.7178,12.8409,12.7871,12.7474,12.7166,12.6717,12.6024,12.5101,12.4332,0.0,12.3639,12.4178,12.4178,12.387,12.4101,12.3332,12.187,12.1331,12.0177,11.8638,11.6407,11.5407,11.5022,11.2791,11.2406,11.2791,0.0,0.0,0.0,0.0,0.0,0.0,5.23,5.2976,5.3653,5.3991,5.663,5.8998,6.0554,6.2719,6.4681,6.6102,6.5899,6.6643,6.8922,6.9782,7.3095,7.9388,8.146,8.4645,8.9385,9.1202,9.3351,9.5775,9.7481,9.8665,9.9317,9.9948,10.0723,10.1531,10.1898,10.2485,10.3293,10.3293,10.3293,10.3293,10.2946,10.1991,10.0796,9.9989,9.9475,9.9108,9.9108,9.8594,9.7493,9.463,9.3088,9.2207,9.1033,8.8683,8.5673,0.0,0.0,0.0,0.0,0.0,0.0,0.0,0.0,0.0,0.0,0.0,0.0,0.0,0.0,9.3041,9.6027,0.0,10.5075,10.919,11.2588,11.5773,11.8563,11.9664,11.9811,11.8563,12.1154,12.3107,12.3062,12.5621,12.7371,12.7923,12.8409,12.8794,12.9179,12.9179,12.941,12.9794,12.9794,12.941,12.864,12.8563,12.8179,12.7332,12.6871,12.6409,12.6024,12.6486,12.6178,12.5409,12.5409,12.4716,12.3408,12.21,12.0793,11.9485,11.7869,11.6715,11.5715,11.4484,11.3714,11.3176,0.0,0.0,0.0,0.0,0.0,0.0,0.0,5.3112,5.3585,5.3923,5.5615,5.7645,5.9877,6.0825,6.1975,6.3599,6.4952,6.7252,7.1019,7.4965,7.9092,8.349,8.6873,8.9038,8.9946,9.2756,9.4459,9.4868,9.7601,9.927,9.9989,10.1223,10.228,10.3219,10.4173,10.4981,10.5642,10.5789,10.5768,10.5694,10.4908,10.4614,10.4488,10.3019,10.2705,10.3219,10.3219,10.2412,10.133,9.9989,9.9035,9.8154,9.7052,9.6318,9.4556,8.7711,8.6481,0.0,0.0,0.0,0.0,0.0,0.0,0.0,0.0,9.184,9.3675,9.4575,9.6612,9.9328,10.2705,10.6156,10.9679,11.3424,11.6434,11.8709,12.0104,12.1572,12.2404,12.1866,12.402,12.5513,12.5513,12.8029,12.9794,12.9871,13.0564,13.1025,13.1025,13.1564,13.1564,13.0794,13.141,13.1102,12.9717,13.0179,13.0102,12.9487,12.9333,12.8794,12.8179,12.832,12.7717,12.6409,12.6024,12.5409,12.4486,12.2793,12.1716,12.1023,12.0177,11.8792,11.7188,11.6726,11.5792,11.4714,0.0,0.0,0.0,0.0,0.0,0.0,0.0,0.0,5.3974,5.5259,5.6224,5.7645,5.9877,6.0825,6.1095,6.0622,6.3754,6.7252,7.1019,7.5439,8.1012,8.8023,8.9985,9.1609,9.3059,9.3476,9.4568,9.6435,9.6831,9.863,10.1676,10.2486,10.3626,10.4887,10.6523,10.7205,10.7425,10.8064,10.8431,10.8285,10.7498,10.7205,10.7131,10.6177,10.5422,10.4813,10.4813,10.3366,10.1477,10.133,10.0723,10.0062,10.067,10.131,10.0796,9.5639,9.3235,9.0665,8.3398,8.0094,7.98,8.4352,8.8316,9.2134,0.0,10.0283,10.3712,10.4614,10.667,10.9606,11.3497,11.5185,11.6874,11.9517,12.0912,12.189,12.282,12.3701,12.4509,12.5121,12.6411,12.7192,12.7192,12.9802,13.1718,13.25,13.2731,13.2731,13.2731,13.2808,13.25,13.1564,13.1718,13.1564,13.141,13.0794,13.0487,13.0333,12.9563,12.9102,12.9102,12.9871,13.0102,12.9794,12.8332,12.7178,12.6267,12.4486,12.3793,12.3639,12.2793,12.1408,11.9562,11.7342,11.6869,11.71,0.0,0.0,0.0,0.0,0.0,0.0,0.0,0.0,5.3721,5.4312,5.4668,5.575,5.7915,5.9268,5.9674,5.8863,6.3077,6.7455,7.165,7.7739,8.3761,8.9512,9.1609,9.2895,9.3601,9.4045,9.464,9.5554,9.7165,9.9163,10.1491,10.2981,10.4704,10.6596,10.7792,10.86,10.9019,10.99,10.99,10.9481,10.9092,10.8747,10.8306,10.7918,10.7257,10.6082,10.2779,10.131,0.0,9.8614,9.9054,10.0576,10.2265,10.1824,10.0209,9.8208,9.4464,9.0354,8.7802,8.8463,9.0665,9.4061,9.83,10.2412,10.4981,10.7624,10.9606,11.0414,11.2469,11.5112,11.8269,11.9517,12.0691,12.2674,12.3261,12.3628,12.3995,12.4656,12.5096,12.5023,12.6369,12.7381,12.7381,13.0475,13.241,13.2269,13.318,13.3795,13.3795,13.3269,13.2808,13.25,13.2025,13.1718,13.1718,13.141,13.1179,13.1179,13.0794,13.0718,13.0718,13.1025,13.0871,13.041,12.9179,12.7871,12.6563,12.587,12.5024,12.4024,12.3178,12.2485,12.1485,11.9023,11.7561,11.6869,0.0,0.0,0.0,0.0,0.0,0.0,0.0,0.0,0.0,0.0,5.3518,5.4262,5.6292,5.7627,5.8254,5.7934,6.2536,6.7523,7.2665,7.9431,8.5587,9.0932,9.3098,9.4315,9.4548,9.5263,9.5736,9.5939,9.7927,9.9832,10.1479,10.3223,10.5162,10.7358,10.8596,10.95,11.0169,11.1371,11.1388,11.0677,11.0721,11.0193,10.9386,10.9019,10.7498,10.5002,10.0723,9.9035,9.8374,9.4703,9.5951,9.9108,9.9989,9.9842,9.9255,9.8374,9.4464,9.0721,9.2207,9.507,9.8447,10.2191,10.6302,10.9973,11.2102,11.3277,11.4378,11.5406,11.7021,11.8979,12.1719,12.2674,12.3481,12.4876,12.517,12.5096,12.4901,12.5317,12.5293,12.4285,12.5694,12.6606,12.65,13.0212,13.2731,13.2718,13.3872,13.4641,13.4641,13.4026,13.3564,13.3423,13.2487,13.2102,13.2102,13.1795,13.1718,13.1718,13.1718,13.1718,13.1718,13.1718,13.141,13.0794,12.9871,12.8871,12.7717,12.7178,12.6332,12.5024,12.4024,12.3639,12.3332,12.1177,11.9408,11.788,0.0,0.0,0.0,0.0,0.0,0.0,0.0,0.0,0.0,0.0,0.0,5.4042,5.5597,5.6409,5.7171,5.7866,6.2042,6.7455,7.4062,7.9498,8.5723,9.3165,9.4924,9.6074,9.6781,9.7495,9.824,9.8984,9.9046,10.0247,10.2312,10.3093,10.4694,10.6812,10.9111,11.0177,11.038,11.2619,11.3098,11.2363,11.2432,11.1808,11.1001,10.9386,10.5422,10.0429,9.9475,9.762,9.4905,9.0078,9.162,9.5125,9.1969,9.529,9.9622,9.6539,9.4336,9.3675,9.6832,9.7199,9.8447,10.5589,10.9312,11.2029,11.5112,11.7094,11.8709,12.0324,12.0691,12.1793,12.4974,12.5635,12.5929,12.6711,12.6785,12.6565,12.5782,12.5709,12.5095,12.3585,12.4301,12.4724,12.4081,12.8685,13.2795,13.518,13.5411,13.5488,13.5488,13.5411,13.5103,13.4334,13.341,13.3038,13.3038,13.2102,13.1718,13.1718,13.1718,13.1718,13.1718,13.1718,13.1718,13.1564,13.0794,13.041,13.0333,12.864,12.7782,12.7628,12.6024,12.5332,12.5178,12.4332,12.287,12.1343,0.0,0.0,0.0,0.0,0.0,0.0,0.0,0.0,0.0,0.0,0.0,0.0,0.0,0.0,0.0,0.0,6.0689,6.441,6.9125,7.6159,8.2475,8.7414,9.2895,9.6142,9.6917,9.8578,9.9863,10.0608,10.1081,10.2202,10.3778,10.4085,10.5389,10.7498,10.8298,10.9026,10.9465,10.9811,11.0316,11.0696,10.8677,10.8478,10.9019,10.3586,9.9989,9.7052,0.0,8.7729,8.6978,8.3691,8.5159,8.8463,8.9491,9.0225,9.0225,8.8078,9.2042,9.7199,9.7713,10.1971,10.7183,11.0729,11.418,11.7094,11.8122,11.8783,11.9394,11.9884,11.959,11.9884,12.2086,12.1572,12.1793,12.4803,12.4362,12.4362,12.6197,12.561,12.4506,12.3597,12.434,12.5289,12.6292,12.8622,13.0871,13.2795,13.5103,13.6411,13.6411,13.6411,13.6026,13.5103,13.4334,13.3872,13.3872,13.3564,13.3103,13.2577,13.2025,13.2025,13.2487,13.2025,13.1718,13.1718,13.141,13.1025,13.0487,12.9871,12.9333,12.864,12.6871,12.6267,12.6101,12.4639,12.3716,12.3178,0.0,0.0,0.0,0.0,0.0,0.0,0.0,0.0,0.0,0.0,0.0,0.0,0.0,0.0,0.0,0.0,0.0,6.2651,6.6914,7.2912,7.8323,8.2787,8.8158,9.1338,9.2112,9.4789,9.6616,9.736,9.8984,10.0288,10.1458,10.1458,10.2366,10.3977,10.4233,10.4919,10.5833,10.5819,10.6511,10.7184,10.4087,10.3518,10.3806,9.7346,9.3308,0.0,8.3691,8.0755,7.9653,7.7818,7.9947,8.3471,8.4352,8.4939,8.582,8.7949,9.3382,9.9328,10.2265,10.7477,11.2763,11.5943,11.8586,12.0495,12.0495,12.0495,12.0495,12.0495,12.0104,11.9811,12.0031,11.937,11.9884,12.3114,12.2967,12.3701,12.6932,12.6667,12.5926,12.4585,12.5045,12.6087,12.7582,12.8385,12.9794,13.241,13.4718,13.618,13.6796,13.6796,13.6719,13.6411,13.5565,13.5026,13.4718,13.4411,13.3872,13.3038,13.241,13.2269,13.2487,13.2025,13.1487,13.1333,13.1564,13.1179,13.0487,13.0487,13.0179,12.9487,12.8102,12.7563,12.7486,12.6332,12.587,12.5794,0.0,0.0,0.0,0.0,0.0,0.0,0.0,0.0,0.0,0.0,0.0,0.0,0.0,0.0,0.0,0.0,0.0,0.0,6.7184,6.9823,7.3747,7.9431,8.1393,8.2678,8.3422,8.6968,8.9173,9.0053,9.2827,9.4616,9.5352,9.5352,9.5721,9.6481,9.7165,9.8139,9.9429,10.0633,10.163,10.1918,9.8546,9.6794,9.5731,9.0794,8.5583,8.0828,7.9874,7.7026,7.356,7.2899,7.6497,8.0755,7.7892,8.0755,8.6921,9.5437,9.8227,10.0576,10.9826,11.3203,11.5429,12.0789,12.216,12.216,12.2086,12.2111,12.2013,12.1793,12.167,12.0789,11.8269,11.8489,11.959,12.1499,12.26,12.4436,12.7666,12.899,12.8802,12.6609,12.6476,12.7127,12.8104,12.8166,13.0025,13.4103,13.4411,13.5103,13.6796,13.6873,13.7334,13.8117,13.7334,13.6488,13.5565,13.4795,13.3872,13.3115,13.3038,13.2577,13.1795,13.1718,13.1333,13.0564,13.141,13.1333,13.0564,13.0564,13.0564,13.0487,12.9563,12.9333,12.9333,12.9179,12.9179,12.8871,0.0,0.0,0.0,0.0,0.0,0.0,0.0,0.0,0.0,0.0,0.0,0.0,0.0,0.0,0.0,0.0,0.0,0.0,6.1975,6.6846,7.0567,7.2665,7.7874,8.1393,8.2678,8.4167,8.5858,8.7753,8.7319,8.796,8.9381,8.8832,8.9346,9.0714,9.0299,9.0937,9.217,9.0211,9.0798,9.2647,8.8891,8.8576,8.9784,8.4352,8.1342,7.9727,7.7084,7.5102,7.3854,7.4882,7.936,8.5086,8.7876,9.1033,9.4189,9.7052,10.2632,10.8285,11.0781,11.6066,12.1205,12.26,12.3408,12.3555,12.2404,12.2111,12.1205,11.8195,11.5626,11.3203,11.0803,11.0509,11.2418,11.7608,12.0691,12.3922,12.84,12.9902,13.0212,12.9096,12.9716,13.0826,13.25,13.2718,13.3641,13.6026,13.618,13.6565,13.7732,13.9027,13.9181,13.8117,13.8488,13.8027,13.6488,13.5565,13.5103,13.4795,13.3564,13.2885,13.2564,13.2025,13.1564,13.141,13.1564,13.1564,13.141,13.141,13.141,13.1333,13.0487,13.0179,13.0102,12.941,12.9179,12.9102,0.0,0.0,0.0,0.0,0.0,0.0,0.0,0.0,0.0,0.0,0.0,0.0,0.0,0.0,0.0,0.0,0.0,0.0,0.0,6.4005,6.6711,6.68,7.0973,7.3747,7.4559,7.6589,7.8416,8.0014,8.0898,8.1963,8.3259,8.2881,8.3251,8.4121,8.3678,8.4247,8.5478,8.3727,8.4512,0.0,0.0,8.2147,8.3471,7.8479,7.6806,7.6879,7.5028,7.5909,7.8699,8.3544,8.6407,8.9197,9.6612,9.9622,10.1217,10.5568,11.0193,11.4305,11.6507,12.0618,12.4362,12.4362,12.4436,12.3701,12.0618,11.9664,11.8219,11.3791,11.1368,10.9312,10.647,10.7404,11.0487,11.6287,12.0471,12.4803,12.9721,13.1581,13.2379,13.2075,13.2696,13.4205,13.6806,13.6719,13.718,13.8873,13.7565,13.7334,13.8565,13.9488,13.9796,13.9181,13.9565,13.9104,13.7411,13.6873,13.6103,13.5026,13.4026,13.318,13.241,13.1872,13.1487,13.1179,13.1487,13.1487,13.1179,13.1564,13.1718,13.1718,13.1179,13.1025,13.1025,13.0487,13.0333,13.0333,0.0,0.0,0.0,0.0,0.0,0.0,0.0,0.0,0.0,0.0,0.0,0.0,0.0,0.0,0.0,0.0,0.0,0.0,0.0,0.0,6.2719,6.2245,6.3463,6.4275,6.4478,6.7523,6.9553,7.041,7.3832,7.5872,7.6785,7.6997,7.7152,7.7272,7.7201,7.7804,7.8909,7.8747,7.9761,8.1326,7.7803,7.6848,7.7231,0.0,7.2973,7.3707,7.4074,7.8038,8.4482,9.3896,9.4923,9.4189,10.4394,10.7404,10.8483,11.6287,11.8416,11.9223,12.3188,12.5096,12.5929,12.5929,12.5195,12.3408,11.9053,11.7021,11.4672,11.012,10.8505,10.7183,10.4467,10.733,11.1684,11.6727,12.1719,12.6491,13.0823,13.3186,13.4727,13.5205,13.56,13.7172,14.0805,14.0335,14.0489,14.2104,13.9488,13.8411,13.9719,13.9719,14.0027,14.0719,14.0489,13.9719,13.8271,13.8194,13.6873,13.4487,13.4411,13.341,13.1872,13.1795,13.1333,13.0718,13.141,13.1333,13.0718,13.141,13.1718,13.1718,13.1718,13.1718,13.1718,13.1718,13.1718,13.1718,0.0,0.0,0.0,0.0,0.0,0.0,0.0,0.0,0.0,0.0,5.5807,5.7103,0.0,0.0,0.0,0.0,0.0,0.0,0.0,0.0,0.0,6.1434,6.1772,6.2448,6.3646,6.3734,6.441,6.5764,6.6519,6.7698,6.9209,7.0015,7.0807,7.1475,7.0804,7.1069,7.1758,7.0441,7.0834,7.2312,7.1651,7.1872,7.2591,7.2532,0.0,0.0,7.5968,7.8683,8.3177,9.4777,9.9989,10.3072,11.1588,11.5626,11.7388,11.893,12.1719,12.4068,12.3628,12.5096,12.6711,12.6711,12.561,12.4289,12.3408,11.9517,11.4965,11.1515,10.7015,10.4027,10.4834,10.7697,11.1955,11.8195,12.3775,12.8033,12.9501,13.2988,13.5893,13.6905,13.841,14.052,14.3483,14.3028,14.2874,14.3874,14.3412,14.2874,14.2489,14.1797,14.1489,14.172,14.0335,13.9412,13.9104,13.8411,13.7193,13.5334,13.4564,13.3795,13.2808,13.2025,13.1564,13.1487,13.1564,13.1564,13.1487,13.1564,13.1718,13.1718,13.1718,13.1718,13.1718,13.1718,13.1718,13.1718,0.0,0.0,0.0,0.0,0.0,0.0,0.0,5.0707,5.2915,5.3305,5.5688,5.7509,5.7866,5.7934,5.7934,0.0,0.0,0.0,0.0,0.0,0.0,6.0622,6.1095,6.1839,6.2922,6.299,6.3518,6.4727,0.0,6.6123,6.7449,6.793,6.8426,6.8802,6.8421,6.8495,6.8802,6.7994,6.8655,7.011,7.011,7.0844,7.1931,7.2386,0.0,0.0,7.7598,8.0461,8.4132,9.2501,9.8888,10.5128,11.5332,12.0178,12.1866,12.0618,12.3701,12.7078,12.5096,12.7225,12.9721,12.8473,12.6932,12.4289,11.8783,11.4818,11.0634,10.4834,10.1531,10.0136,10.1677,10.4614,10.9408,11.7094,12.1279,12.561,13.1043,13.3704,13.6207,13.9017,14.1106,14.3,14.4881,14.472,14.4566,14.5028,14.5105,14.472,14.3797,14.3412,14.3028,14.2489,14.172,14.0566,13.9335,13.8873,13.7565,13.5488,13.5103,13.4487,13.3718,13.318,13.2795,13.241,13.2872,13.2487,13.1718,13.2179,13.2102,13.1718,13.1718,13.1718,13.1718,13.1718,13.1718,13.1795,0.0,0.0,0.0,0.0,0.0,0.0,0.0,5.0351,5.2577,5.2577,5.5691,5.7866,5.7663,5.7798,5.7934,0.0,0.0,0.0,0.0,0.0,0.0,0.0,0.0,0.0,6.24,0.0,0.0,6.4567,6.5843,0.0,0.0,0.0,0.0,0.0,6.7774,6.77,6.77,6.77,6.8655,0.0,0.0,7.1064,7.2532,0.0,0.0,0.0,0.0,8.1269,8.4425,9.0005,9.6025,10.3072,11.4305,12.0178,12.26,12.1059,12.4509,12.8473,12.7078,12.9575,13.2144,13.0088,12.8106,12.4289,11.5112,11.0781,10.6816,9.9695,9.7566,9.764,9.9989,10.2705,10.7624,11.6287,11.8489,12.2403,13.2117,13.3896,13.5935,14.0604,14.3077,14.4791,14.6111,14.6105,14.6105,14.649,14.6336,14.5797,14.472,14.472,14.4182,14.3105,14.3105,14.2027,13.9642,13.9412,13.8181,13.6103,13.5719,13.518,13.4564,13.4564,13.418,13.3564,13.4487,13.3872,13.2333,13.3423,13.3115,13.2025,13.2179,13.2102,13.2025,13.2025,13.2025,13.2102,0.0,0.0,0.0,0.0,0.0,0.0,0.0,5.0351,5.2577,5.2577,5.5691,5.7645,5.6968,5.7509,5.7934,0.0,0.0,0.0,0.0,0.0,0.0,0.0,0.0,0.0,0.0,0.0,0.0,6.3805,6.6245,0.0,0.0,0.0,0.0,0.0,0.0,6.77,6.77,6.77,0.0,0.0,0.0,0.0,0.0,0.0,0.0,0.0,0.0,7.9376,8.1432,8.9197,9.3767,9.7512,10.5296,11.2396,11.8122,11.937,12.3188,12.7592,12.9501,13.0896,13.1557,13.0602,12.8106,12.4607,11.9981,11.374,10.7697,10.4027,10.0283,9.9181,10.3712,10.5988,10.99,11.8122,11.8269,12.0601,12.9919,13.2023,13.4781,14.0768,14.3681,14.5905,14.7803,14.7259,14.7413,14.9029,14.8413,14.7259,14.572,14.5567,14.4797,14.3181,14.3105,14.2258,14.0489,13.9719,13.8796,13.7796,13.6334,13.5488,13.5411,13.5411,13.5334,13.5334,13.618,13.5565,13.418,13.5795,13.5026,13.3038,13.3795,13.3564,13.2885,13.2885,13.2885,13.2885,0.0,0.0,0.0,0.0,0.0,0.0,4.8115,5.0365,5.2152,5.275,5.501,5.6477,5.6139,5.6427,5.6765,5.7171,0.0,0.0,0.0,0.0,0.0,0.0,0.0,0.0,0.0,0.0,6.4988,6.6076,6.7552,0.0,0.0,0.0,0.0,0.0,0.0,6.9169,6.9169,6.9169,0.0,0.0,0.0,0.0,0.0,0.0,0.0,0.0,0.0,0.0,8.0901,8.3634,8.7802,9.2207,9.4116,9.9695,10.6596,11.1588,11.8636,12.4803,12.5317,12.9575,13.3465,13.1703,13.0334,12.703,11.8072,11.3424,10.8872,10.1844,9.9035,9.8741,10.1677,10.2779,10.5862,11.4011,11.3481,11.6232,12.7643,12.9395,13.2682,14.111,14.3564,14.5372,14.7231,14.7567,14.8182,14.9413,14.8721,14.8106,14.8029,14.7028,14.5567,14.3874,14.3874,14.2566,13.9796,13.9488,13.8565,13.7257,13.6565,13.6565,13.7103,13.7103,13.7103,13.7103,13.7873,13.6796,13.4487,13.6719,13.6103,13.3872,13.4718,13.4795,13.4411,13.4026,13.3795,13.3795,0.0,0.0,0.0,0.0,0.0,4.7521,4.8635,5.0422,5.1948,5.2854,5.4559,5.5597,5.5395,5.5569,5.5928,5.6405,5.6636,0.0,0.0,0.0,0.0,0.0,0.0,0.0,0.0,0.0,6.632,6.7589,6.8917,6.9887,0.0,0.0,7.0477,7.0477,0.0,0.0,0.0,0.0,0.0,0.0,0.0,0.0,0.0,0.0,0.0,0.0,0.0,0.0,0.0,0.0,0.0,8.8225,8.7565,9.14,9.7566,10.4908,11.3717,12.1426,12.2527,12.862,13.42,13.2511,13.0823,12.6785,11.6287,11.2029,10.7991,9.9916,9.8227,9.8668,9.9989,10.0723,10.3293,11.0193,11.0815,11.4173,12.4865,12.7363,13.1257,13.9726,14.1993,14.4028,14.7028,14.8259,14.9337,15.0183,14.9029,14.849,14.9106,14.7721,14.6182,14.4797,14.4476,14.3105,14.0412,13.9719,13.8719,13.7488,13.7026,13.7026,13.7411,13.8104,13.8257,13.8194,13.9488,13.8411,13.6026,13.8257,13.7719,13.5488,13.6334,13.6488,13.618,13.5334,13.5026,13.5026,0.0,0.0,0.0,0.0,0.0,0.0,4.8552,5.0557,5.2167,5.2928,5.4559,5.5395,5.4668,5.5236,5.5737,5.5721,5.6389,0.0,0.0,0.0,0.0,0.0,0.0,0.0,0.0,0.0,6.7574,6.7589,7.0106,7.1256,7.127,7.127,7.127,7.127,0.0,0.0,0.0,0.0,0.0,0.0,0.0,0.0,7.5014,0.0,0.0,0.0,0.0,0.0,0.0,0.0,0.0,0.0,0.0,8.9931,9.34,10.0576,10.9092,11.7314,12.2894,12.862,13.2878,13.2878,12.8694,12.2894,11.6287,10.9805,10.4006,9.9916,9.9108,9.9328,10.0209,10.1604,10.4027,10.8211,11.1657,11.6023,12.1711,12.6268,13.1025,13.6065,13.8315,14.172,14.7567,14.9721,15.1029,15.1875,14.9567,14.8182,14.8182,14.7413,14.649,14.572,14.4797,14.4028,14.3105,14.0566,13.9335,13.9335,13.7565,13.6411,13.5565,13.809,13.8873,13.8181,14.0796,14.0873,13.9412,14.1104,14.0412,13.8117,13.8873,13.8796,13.804,13.7103,13.6796,13.6719,0.0,0.0,0.0,0.0,0.0,0.0,0.0,5.1502,5.2287,5.3206,5.3871,5.4279,5.4562,5.4796,5.517,5.5642,5.6935,0.0,0.0,0.0,0.0,0.0,0.0,0.0,0.0,0.0,6.8947,7.012,7.205,7.2679,7.2151,7.2679,7.2679,7.2078,7.1872,7.1725,0.0,0.0,0.0,0.0,0.0,7.5307,7.6555,0.0,0.0,0.0,0.0,0.0,0.0,0.0,0.0,0.0,0.0,0.0,0.0,9.4263,10.1604,10.9092,11.1515,11.658,12.1059,11.9957,11.959,11.7828,11.139,10.8306,10.5495,10.087,9.9475,9.9695,10.1604,10.2412,10.4908,11.1808,11.3905,11.7636,12.6177,12.9302,13.3723,14.1665,14.5833,14.8721,15.0568,14.9721,14.9413,15.0183,14.9029,14.8182,14.8182,14.7875,14.6875,14.4874,14.4476,14.3412,14.1412,14.0566,13.9873,13.9335,13.8181,13.7488,13.7257,13.8719,13.9181,13.9027,14.1027,14.1181,14.0335,14.1412,14.1104,13.9796,14.0104,14.0027,13.9565,13.8181,13.7732,13.7501,0.0,0.0,0.0,0.0,0.0,0.0,0.0,5.164,5.1996,5.3332,5.3144,5.3349,5.4498,5.4813,5.5461,5.6514,5.8046,0.0,0.0,0.0,0.0,0.0,0.0,0.0,0.0,6.8687,7.0091,7.1711,7.3046,7.3634,7.3413,7.3634,7.3413,7.2973,7.2679,7.2679,0.0,0.0,0.0,0.0,7.5234,7.5968,7.6848,0.0,0.0,0.0,0.0,0.0,0.0,0.0,0.0,0.0,0.0,0.0,0.0,0.0,9.5511,10.1384,10.4908,11.0193,11.4525,11.3813,11.4011,11.3203,10.8306,10.6177,10.4414,10.1404,10.1604,10.2485,10.2999,10.4869,10.7517,11.1067,11.5126,11.9547,12.4376,12.883,13.4168,14.1674,14.7289,15.0798,15.1414,15.0106,14.9413,14.9875,14.8567,14.7875,14.8182,14.7875,14.6721,14.4489,14.4412,14.3489,14.1566,14.0873,14.0335,13.9796,13.9335,13.8873,13.8565,14.0104,14.0412,13.9873,14.1566,14.2027,0.0,14.1797,14.2027,14.2027,14.172,14.1489,14.1335,13.9719,13.8796,13.8334,0.0,0.0,0.0,0.0,0.0,0.0,0.0,5.1364,5.1601,5.3264,5.268,5.2737,5.446,5.542,5.647,5.8057,0.0,0.0,0.0,0.0,0.0,0.0,0.0,0.0,6.7752,6.9331,7.0917,7.2532,7.334,7.4147,7.4793,7.4147,7.3868,7.3722,7.2973,7.312,0.0,0.0,0.0,0.0,7.5836,7.613,0.0,0.0,0.0,0.0,0.0,0.0,0.0,0.0,0.0,0.0,0.0,0.0,0.0,0.0,0.0,0.0,0.0,10.7624,11.1295,11.1978,11.0582,10.8526,10.6229,10.3366,0.0,10.1918,10.4928,10.6911,10.4908,10.8957,11.1467,10.7594,11.5705,12.1434,11.8515,12.6209,13.367,13.8023,14.4489,14.9106,15.0337,15.0491,15.0568,15.0414,14.8182,14.7259,14.8106,14.7259,14.6105,14.4489,14.4412,14.4028,14.3028,14.1489,14.0719,14.0566,14.0719,14.0335,13.9412,14.1874,14.2104,14.0719,14.2412,14.3105,14.3105,14.2258,14.2874,14.4336,14.3412,14.3028,14.2797,14.1181,14.0027,13.9104,0.0,0.0,0.0,0.0,0.0,0.0,0.0,0.0,0.0,0.0,5.3797,5.435,5.535,5.6712,5.7939,0.0,0.0,0.0,0.0,0.0,0.0,0.0,0.0,0.0,6.949,7.0539,7.149,7.2532,7.3913,7.4368,7.4001,7.5028,7.5175,7.4573,7.4426,7.4426,0.0,0.0,0.0,0.0,7.6056,7.6497,0.0,0.0,0.0,0.0,7.9213,8.0314,0.0,0.0,0.0,0.0,0.0,0.0,0.0,0.0,9.0647,9.2501,9.441,0.0,9.8447,9.8007,9.8888,9.9695,0.0,9.9328,10.087,10.5296,10.6376,10.7404,10.99,11.3111,11.4836,11.311,11.7737,12.1875,12.3108,13.2623,14.0295,14.2615,14.8413,15.1029,14.8106,14.9029,14.9183,14.7875,14.7182,14.7028,14.7182,14.6413,14.549,14.4399,14.4412,14.372,14.2181,14.2412,14.1874,14.0566,14.1874,14.1412,13.9412,14.1335,14.1566,14.0719,14.2412,14.3489,14.4028,14.3181,14.3412,14.4336,14.2797,14.2181,14.2104,14.1027,14.0027,13.9181,0.0,0.0,0.0,0.0,0.0,0.0,0.0,0.0,0.0,0.0,0.0,5.4668,5.6585,5.7603,0.0,0.0,0.0,0.0,0.0,0.0,0.0,0.0,0.0,6.8435,7.0036,7.0903,7.2078,7.3634,7.45,7.5014,7.5395,7.5836,7.5836,7.5469,7.5469,7.5469,0.0,0.0,0.0,7.6628,7.6628,0.0,0.0,0.0,0.0,0.0,7.9727,8.1122,0.0,8.4866,8.6261,8.7068,0.0,0.0,0.0,0.0,9.0519,9.1767,9.1767,9.3308,9.529,9.7052,9.764,9.83,10.0116,9.9842,10.0723,10.6397,10.7278,10.8086,11.1662,11.3588,11.4679,11.4868,11.7487,12.1792,12.868,13.6393,14.2412,14.5182,14.8798,15.0183,14.8336,14.9567,14.9875,14.8182,14.7413,14.7105,14.749,14.6413,14.572,14.5567,14.4797,14.3797,14.2489,14.3335,14.2874,14.1181,14.3335,14.3181,14.1104,14.3181,14.3489,14.2412,14.2874,14.3412,14.372,14.2489,14.2874,14.4336,14.3028,14.2489,14.2335,14.1489,14.0566,13.9719,0.0,0.0,0.0,0.0,0.0,0.0,0.0,0.0,0.0,0.0,0.0,0.0,0.0,0.0,0.0,0.0,0.0,0.0,0.0,0.0,0.0,0.0,6.7554,6.8728,7.0036,7.0977,7.2518,7.472,7.4867,7.5674,7.7069,7.6555,7.6276,7.6276,7.6276,7.6276,0.0,0.0,7.7289,7.7289,7.7289,0.0,0.0,0.0,0.0,0.0,0.0,0.0,0.0,8.6244,8.7509,8.8316,8.8959,0.0,0.0,0.0,0.0,0.0,9.2281,9.4116,9.6906,10.131,10.0503,9.9769,10.3786,10.1657,10.0723,10.7205,10.8526,10.9481,11.291,11.4581,11.5497,11.532,11.7156,12.2514,13.3271,13.8165,14.2027,14.5874,14.7875,14.9106,14.9337,15.1106,15.1414,14.9644,14.8106,14.749,14.8029,14.649,14.6028,14.6721,14.5336,14.4182,14.3489,14.4182,14.3797,14.2104,14.472,14.5028,14.3412,14.549,14.572,14.4412,14.3489,14.3105,14.3028,14.1566,14.2335,14.4105,14.3258,14.2874,14.2797,14.2181,14.1335,14.0412,0.0,0.0,0.0,0.0,0.0,0.0,0.0,0.0,0.0,0.0,0.0,0.0,0.0,0.0,0.0,0.0,0.0,0.0,0.0,0.0,0.0,6.748,6.8949,6.9816,7.011,7.1578,7.2826,7.3854,7.4588,7.538,7.6276,7.6848,7.7142,7.7142,7.7142,7.7142,7.7142,0.0,7.7289,7.7289,7.7289,0.0,0.0,0.0,0.0,0.0,0.0,0.0,0.0,8.6407,8.7509,8.8243,8.8316,0.0,0.0,0.0,0.0,0.0,9.4336,9.6171,9.8007,10.0136,9.8814,9.8154,10.2191,10.0503,10.089,11.0729,11.2712,11.3887,11.7755,12.4366,12.6421,11.7333,12.0903,12.678,13.2486,13.7533,14.1412,14.3412,14.8875,15.1414,14.8721,15.126,15.2106,14.9721,14.9337,14.849,14.7182,14.6182,14.5797,14.5874,14.5567,14.5413,14.5336,14.5413,14.4566,14.2874,14.549,14.5797,14.4182,14.4643,14.4629,14.4412,14.3489,14.3105,14.3105,14.2797,14.2874,14.3181,14.2412,14.2104,14.2104,14.1874,14.1335,14.0412,0.0,0.0,0.0,0.0,0.0,0.0,0.0,0.0,0.0,0.0,0.0,0.0,0.0,0.0,0.0,0.0,0.0,0.0,0.0,0.0,6.6206,6.8274,6.9449,7.011,7.011,7.1651,7.334,7.5028,7.5395,7.6423,7.8127,7.8038,7.7729,7.7289,7.7289,7.7289,7.7289,7.7289,7.7289,7.7289,0.0,0.0,0.0,0.0,0.0,0.0,0.0,0.0,0.0,0.0,8.7435,8.8739,8.8316,0.0,0.0,0.0,0.0,0.0,9.3161,9.4997,9.786,10.3019,10.2118,10.1677,10.8431,10.432,10.2579,11.4401,11.1978,11.0315,11.8796,12.0994,12.1417,12.0985,12.9425,13.6392,13.7614,14.1001,14.4182,14.6336,14.9337,15.0798,14.9721,15.1414,15.2106,15.0875,15.0029,14.9183,14.8336,14.749,14.7336,14.7721,14.6798,14.6567,14.7028,14.6567,14.549,14.3797,14.549,14.5413,14.372,14.4182,14.4105,14.372,14.2797,14.2489,14.2412,14.1874,14.2027,14.2412,14.2027,14.1874,14.1797,14.1412,14.0873,14.0412,0.0,0.0,0.0,0.0,0.0,0.0,0.0,0.0,0.0,0.0,0.0,0.0,0.0,0.0,0.0,0.0,0.0,0.0,0.0,0.0,6.6352,6.8775,6.9669,7.0183,7.0403,7.2165,7.4074,7.613,7.6497,7.7745,7.9816,7.8993,7.8259,7.7582,7.7362,7.7289,7.7289,7.7289,7.7436,7.7582,0.0,0.0,0.0,0.0,0.0,0.0,0.0,0.0,0.0,0.0,0.0,0.0,0.0,0.0,0.0,9.1033,9.1326,9.1913,9.2501,9.4189,9.7493,10.4708,10.4027,10.4173,11.4305,10.8285,10.432,11.7168,11.2469,10.9276,11.9917,11.8498,11.837,12.6495,13.6631,14.3163,14.2832,14.5028,14.7413,14.949,15.0106,15.0568,15.1183,15.2106,15.2414,15.2029,15.0798,14.9875,14.949,14.8721,14.849,14.9183,14.7721,14.7105,14.7567,14.7028,14.6028,14.472,14.5413,14.4874,14.3412,14.3874,14.372,14.3118,14.2181,14.1874,14.1797,14.1181,14.1335,14.1874,14.1874,14.1874,14.1797,14.1181,14.0796,14.0412,0.0,0.0,0.0,0.0,0.0,0.0,0.0,0.0,0.0,0.0,0.0,0.0,0.0,0.0,0.0,0.0,0.0,0.0,0.0,0.0,6.6352,6.8775,6.9669,7.0477,7.1197,7.3546,7.516,7.613,7.7671,7.8846,7.9816,7.8993,7.8552,7.8479,7.7656,7.7289,7.7289,7.7289,7.7729,7.8405,7.7656,0.0,0.0,0.0,0.0,0.0,0.0,0.0,0.0,0.0,0.0,0.0,0.0,0.0,9.1767,9.1693,9.1767,9.2281,9.463,9.5951,9.764,10.1971,10.0576,10.1771,11.5185,10.9459,10.5075,11.8122,11.8342,11.7778,12.3212,12.5072,12.8059,13.489,13.8393,14.141,14.492,14.7567,14.9567,15.0491,15.2029,15.303,15.3106,15.3799,15.3722,15.2106,15.1875,15.1106,14.9567,14.8721,14.8182,14.8259,14.7413,14.6567,14.5874,14.5797,14.572,14.5567,14.572,14.5182,14.4336,14.3489,14.3181,14.3118,14.2181,14.1874,14.1874,14.1797,14.1797,14.1874,14.1874,14.1874,14.1874,14.1797,14.1335,14.0489,0.0,0.0,0.0,0.0,0.0,0.0,0.0,0.0,0.0,0.0,0.0,0.0,0.0,0.0,0.0,0.0,0.0,0.0,0.0,6.5044,6.6586,6.9522,6.9963,7.0697,7.2004,7.3913,7.5821,7.7671,7.98,8.0461,7.9816,7.9522,7.8772,7.7803,7.7436,7.7289,7.7289,7.7289,7.7803,7.8552,7.8259,7.9286,0.0,0.0,0.0,0.0,0.0,0.0,0.0,0.0,8.8299,8.9473,8.9767,9.0739,9.1767,9.1767,9.1767,9.1987,9.2941,9.4923,9.83,10.4908,10.3293,10.3219,11.5039,11.2763,11.1978,12.4876,12.2086,11.8122,12.0912,12.6499,13.1843,13.5194,13.9697,14.399,14.7558,14.8875,15.0029,15.1337,15.2106,15.2722,15.3183,15.3106,15.2876,15.2799,15.2337,15.1491,15.0337,14.9875,14.9337,14.8182,14.7413,14.649,14.572,14.5182,14.4566,14.4105,14.4105,14.3874,14.3566,14.272,14.2412,14.2258,14.2027,14.1874,14.1874,14.1874,14.1874,14.1874,14.1874,14.1874,14.1797,14.1335,14.0873,14.0412,0.0,0.0,0.0,0.0,0.0,0.0,0.0,0.0,0.0,0.0,0.0,0.0,0.0,0.0,0.0,0.0,0.0,0.0,6.3503,6.4143,6.59,6.9097,6.9243,7.0235,7.237,7.3992,7.5943,7.8185,8.0901,8.1358,7.9816,7.9816,7.9286,7.8463,7.7949,7.8023,7.8463,7.817,7.8552,7.936,7.9066,7.9947,0.0,0.0,0.0,0.0,0.0,0.0,0.0,0.0,8.8299,8.9473,8.9693,9.0739,9.1767,9.1767,9.1767,9.184,9.2134,9.4042,9.7713,10.4981,10.4394,10.4908,11.6507,11.5846,11.6066,12.7813,12.5318,12.1297,12.1926,12.7544,13.2676,13.4872,13.9727,14.4463,14.8538,14.949,15.0337,15.1491,15.1568,15.1722,15.2106,15.1568,15.1491,15.2106,15.1491,15.1029,15.0414,15.0106,14.9337,14.7798,14.7028,14.6028,14.4874,14.4336,14.3566,14.272,14.272,14.272,14.272,14.2181,14.1874,14.1874,14.1874,14.1874,14.1874,14.1874,14.1874,14.1874,14.1874,14.1874,14.1797,14.1181,14.0719,14.0027,0.0,0.0,0.0,0.0,0.0,0.0,0.0,0.0,0.0,0.0,0.0,0.0,0.0,0.0,0.0,0.0,0.0,0.0,6.2466,6.2678,6.4079,6.7194,6.7336,6.8843,7.2234,7.3871,7.5531,7.7362,8.0608,8.1358,7.9816,7.9816,8.0241,8.0901,7.936,7.9507,8.0975,8.0183,8.0314,8.0901,8.0183,8.0771,0.0,0.0,0.0,0.0,0.0,0.0,0.0,0.0,8.8739,8.9546,9.0354,9.1179,9.184,9.184,9.184,9.1987,9.2941,9.3749,9.5658,10.131,10.2779,10.6376,12.0104,11.8342,11.619,12.5096,12.8329,12.9098,12.7681,12.8815,13.1159,13.4863,13.8199,14.2207,14.7404,14.9567,15.0721,15.0721,15.0721,15.0414,14.9567,14.949,14.949,14.949,14.949,14.949,14.949,14.8721,14.7798,14.6875,14.6105,14.4797,14.3105,14.3105,14.272,14.1874,14.1874,14.1874,14.1874,14.1874,14.1874,14.1874,14.1874,14.1874,14.1874,14.1874,14.1874,14.1874,14.1874,14.1874,14.1874,14.1874,14.0796,13.9335,0.0,0.0,0.0,0.0,0.0,0.0,0.0,0.0,0.0,0.0,0.0,0.0,0.0,0.0,0.0,0.0,0.0,0.0,6.1711,6.2379,6.4079,6.7194,6.7336,6.8519,7.1196,7.402,7.6693,7.9066,8.0608,8.0534,7.8993,7.9522,7.9669,7.9433,8.1782,8.1856,8.0314,8.2296,8.2296,8.1048,8.1342,8.2076,8.3104,0.0,0.0,0.0,0.0,0.0,0.0,0.0,0.0,0.0,9.1033,9.2427,9.3969,9.6245,9.5364,9.4189,9.7346,9.7126,9.7493,10.3733,10.7037,11.0612,11.8122,11.8783,11.9664,12.6418,13.0079,13.0935,12.7114,13.0815,13.4711,13.5307,13.933,14.3417,14.6769,14.8182,14.9183,14.9798,14.9875,14.9798,14.949,14.949,14.9183,14.8567,14.9183,14.8721,14.6875,14.7105,14.6567,14.5182,14.4336,14.3412,14.2258,14.2258,14.1797,14.1027,14.1027,14.1335,14.1874,14.1874,14.1874,14.1874,14.1874,14.1874,14.1874,14.1874,14.1874,14.1874,14.1874,14.1874,14.1874,14.1874,14.0796,13.9335,0.0,0.0,0.0,0.0,0.0,0.0,0.0,0.0,0.0,0.0,0.0,0.0,0.0,0.0,0.0,0.0,0.0,0.0,0.0,6.1396,6.3014,6.606,6.6199,6.7841,7.123,7.4314,7.6874,7.8772,7.9947,7.9874,7.8626,7.9727,8.0388,8.0608,8.3398,8.3544,8.1856,8.4132,8.4058,8.2517,8.3324,8.3911,8.4425,0.0,0.0,0.0,0.0,0.0,0.0,0.0,0.0,0.0,9.0959,9.3602,9.6245,9.6612,9.6685,9.7273,9.9989,9.9989,10.1017,10.9092,11.1982,11.4297,12.0198,12.2385,12.4612,12.959,13.2404,13.3116,13.0204,13.3231,13.6424,13.7265,14.0623,14.4028,14.649,14.7721,14.8413,14.8875,14.9029,14.8798,14.849,14.849,14.8106,14.7259,14.7721,14.7028,14.4797,14.549,14.5105,14.3489,14.3181,14.2489,14.1412,14.1412,14.0873,14.0104,14.0104,14.0412,14.0873,14.0873,14.1104,14.1412,14.172,14.1874,14.1874,14.1874,14.1874,14.1874,14.1874,14.1874,14.1874,14.1874,14.1027,13.9796,0.0,0.0,0.0,0.0,0.0,0.0,0.0,0.0,0.0,0.0,0.0,0.0,0.0,0.0,0.0,0.0,0.0,0.0,0.0,6.0148,6.1501,6.4478,6.4918,6.7335,7.2102,7.4756,7.6494,7.7289,7.8919,7.9302,7.8626,8.0241,8.184,8.3454,8.4499,8.4866,8.4792,8.5673,8.5453,8.4646,8.5453,8.5837,8.5747,8.5764,0.0,0.0,0.0,0.0,0.0,0.0,0.0,0.0,9.028,9.4263,9.7933,9.463,9.6832,10.0576,10.1804,10.2485,10.5296,11.5396,11.6879,11.7884,12.5704,12.8178,13.0019,13.3702,13.4911,13.5328,13.5292,13.5686,13.71,14.0167,14.2181,14.4105,14.649,14.749,14.8106,14.8106,14.8106,14.7798,14.7028,14.6798,14.649,14.5567,14.549,14.472,14.3028,14.3566,14.3335,14.172,14.2412,14.2027,14.0489,14.0489,14.0104,13.9335,13.9181,13.9181,13.9181,13.9335,13.9796,14.0566,14.1489,14.1874,14.1874,14.1874,14.1874,14.1874,14.1797,14.1797,14.1797,14.172,14.1181,14.0412,0.0,0.0,0.0,0.0,0.0,0.0,0.0,0.0,0.0,0.0,0.0,0.0,0.0,0.0,0.0,0.0,0.0,0.0,0.0,6.0689,6.211,6.4478,6.7596,7.0501,7.3137,7.4966,7.6332,7.7289,7.8332,7.8772,7.8626,8.0241,8.184,8.3528,8.6261,8.6701,8.56,8.7068,8.6481,8.4646,8.5453,8.5837,8.5747,8.5086,8.5673,0.0,0.0,0.0,0.0,0.0,0.0,0.0,9.0152,9.2354,9.485,9.7126,9.8961,10.131,10.6009,10.5495,10.5356,11.2925,11.841,12.4479,13.3796,13.4385,13.3086,13.3677,13.4986,13.5974,13.6183,13.8372,14.0465,14.1469,14.3566,14.5336,14.5874,14.6721,14.7182,14.7182,14.7182,14.7105,14.6875,14.6336,14.5567,14.472,14.4028,14.2874,14.1181,14.1335,14.0873,13.9873,14.0027,13.9873,13.9642,13.9642,13.9488,13.9335,13.8719,13.8425,13.8411,13.9027,13.9796,14.0566,14.1489,14.1874,14.1874,14.1874,14.1874,14.1797,14.1104,14.0873,14.0796,14.0104,13.9719,13.9488,0.0,0.0,0.0,0.0,0.0,0.0,0.0,0.0,0.0,0.0,0.0,0.0,0.0,0.0,0.0,0.0,0.0,0.0,0.0,0.0,6.2227,6.5686,6.9014,7.1796,7.3999,7.5281,7.6412,7.7289,7.7729,7.8626,7.98,8.0975,8.2663,8.4646,8.7142,8.7068,8.5306,8.6921,8.6701,8.5233,8.604,8.6628,8.6848,8.604,8.604,8.6334,8.5453,0.0,0.0,0.0,0.0,0.0,0.0,0.0,9.5437,9.5584,9.808,10.1604,10.4981,10.698,11.0302,11.9418,12.579,13.1169,13.5997,13.6835,13.6286,13.5373,13.619,13.7314,13.7832,13.9578,14.1415,14.228,14.3566,14.4566,14.5028,14.5797,14.6336,14.6336,14.6721,14.6875,14.6875,14.6182,14.5336,14.4489,14.3566,14.2181,14.0104,14.0412,14.0027,13.8796,13.9104,13.9104,13.8719,13.8719,13.8488,13.8104,13.7719,13.7501,13.7488,13.8334,13.9027,13.9488,14.0719,14.1027,14.0719,14.1104,14.1027,14.0566,14.0181,14.0027,14.0027,13.9873,13.9873,13.9873,0.0,0.0,0.0,0.0,0.0,0.0,0.0,0.0,0.0,0.0,0.0,0.0,0.0,0.0,0.0,0.0,0.0,0.0,0.0,0.0,0.0,6.728,6.9825,7.2316,7.4882,7.5865,7.6628,7.7289,7.7436,7.9124,8.2223,8.281,8.4352,8.6701,8.7876,8.7068,8.4866,8.5967,8.6187,8.5837,8.6407,8.7068,8.7655,8.6757,0.0,8.5527,8.5453,8.5527,8.5967,8.7362,0.0,0.0,0.0,0.0,9.5951,9.2574,9.6025,10.109,10.2191,10.8118,11.6496,12.7212,13.2521,13.5291,13.5422,13.6703,13.7525,13.6495,13.7408,13.8411,13.8796,13.9873,14.1335,14.272,14.3105,14.3566,14.4336,14.5028,14.549,14.549,14.6105,14.649,14.649,14.572,14.5028,14.4182,14.3105,14.1489,13.9398,13.9719,13.9335,13.7886,13.8488,13.8565,13.8117,13.804,13.7578,13.7026,13.6873,13.6796,13.6796,13.7488,13.804,13.8194,13.9719,14.0104,13.9642,14.0104,14.0027,13.9488,13.9181,13.9093,13.9197,13.9813,14.0198,14.0298,0.0,0.0,0.0,0.0,0.0,0.0,0.0,0.0,0.0,0.0,0.0,0.0,0.0,0.0,0.0,0.0,0.0,0.0,6.1095,0.0,0.0,6.8364,7.0699,7.3202,7.5873,7.6729,7.7215,7.7289,7.8038,8.1415,8.7215,8.6628,8.7655,8.9931,8.9473,8.7876,8.5527,8.4409,8.4646,8.5764,8.5159,8.538,8.5967,0.0,0.0,8.4646,8.3968,8.4646,8.5837,8.6057,8.7068,0.0,0.0,0.0,9.1473,9.0959,9.441,9.8834,10.111,11.0181,12.0589,12.6734,12.9236,13.1122,13.4496,13.3425,13.2164,13.3976,13.6905,13.8719,13.7411,13.9719,14.1797,14.2027,14.3335,14.4336,14.4412,14.4476,14.4643,14.4643,14.472,14.472,14.472,14.4028,14.3412,14.3258,14.1104,13.9719,13.9335,13.8027,13.718,13.7026,13.7103,13.7411,13.8117,13.7424,13.7257,13.7886,13.718,13.6796,13.6796,13.6873,13.7411,13.8194,13.9104,13.9796,14.0412,13.9719,13.9873,14.0335,13.8796,13.8382,13.8612,13.7993,13.8432,13.9225,0.0,0.0,0.0,0.0,0.0,0.0,0.0,0.0,0.0,0.0,0.0,0.0,0.0,0.0,0.0,5.8513,5.9554,6.0622,6.1839,6.4444,6.7206,6.9831,7.1851,7.4121,7.676,7.7142,7.7509,7.8038,7.8405,8.303,9.162,9.1253,9.14,9.206,9.3529,9.0812,8.5233,8.6775,8.6261,8.4425,8.4058,8.4425,8.5013,0.0,0.0,0.0,0.0,0.0,8.5092,8.4952,8.6061,8.7509,8.7509,0.0,0.0,0.0,9.206,9.6345,10.4903,11.0883,11.7209,12.7529,12.8898,12.9027,13.3712,13.2879,13.1641,13.3098,13.512,13.6565,13.6796,13.8411,13.9873,14.0412,14.1104,14.172,14.2181,14.272,14.3181,14.3566,14.4105,14.4412,14.4412,14.3566,14.2874,14.2489,14.0873,13.9565,13.8719,13.7873,13.7257,13.6796,13.6796,13.7026,13.7411,13.7026,13.7026,13.7411,13.7026,13.6796,13.6796,13.6796,13.7026,13.7411,13.8257,13.8565,13.8488,13.8565,13.8721,13.8725,13.7876,13.792,13.8191,13.8268,13.8611,13.922,0.0,0.0,0.0,0.0,0.0,0.0,0.0,0.0,0.0,0.0,0.0,0.0,0.0,0.0,0.0,0.0,6.0399,6.1501,6.2854,6.5324,6.7952,7.0611,7.2293,7.4359,7.698,7.7215,7.7656,7.8259,7.8699,8.3838,9.3382,9.4189,9.485,9.529,9.7126,9.4116,8.7802,9.0005,8.8683,8.5216,8.4996,8.4555,0.0,0.0,0.0,0.0,0.0,0.0,8.4324,8.43,8.5481,8.6978,8.6978,8.7729,0.0,0.0,0.0,9.461,10.5778,10.9028,11.2143,12.4477,12.5826,12.5262,12.9921,13.0359,13.0129,13.1113,13.2678,13.4411,13.5565,13.6886,13.8027,13.8565,13.9027,13.9488,14.0181,14.0796,14.1489,14.2104,14.272,14.3105,14.3105,14.2489,14.1874,14.1335,14.0412,13.9412,13.8194,13.7886,13.7501,13.6796,13.6796,13.6796,13.6796,13.6796,13.6796,13.6796,13.6796,13.6796,13.6796,13.6796,13.6796,13.6796,13.7488,13.7593,13.7282,13.7667,13.7811,13.7674,13.7519,13.764,13.8034,13.8729,13.9014,13.9227,0.0,0.0,0.0,0.0,0.0,0.0,0.0,0.0,0.0,0.0,0.0,0.0,0.0,5.8286,6.0128,6.2021,6.2882,6.3646,6.441,6.5284,6.6971,6.9761,7.1374,0.0,7.6099,7.6922,7.7362,7.7362,7.8993,8.3544,9.0886,9.395,9.7419,10.1037,9.8834,9.7199,9.5878,9.2941,9.1179,9.0152,8.94,8.639,0.0,0.0,0.0,0.0,0.0,8.2687,8.3601,8.4302,8.5639,8.6978,8.6978,8.8078,8.9326,0.0,0.0,0.0,9.9687,10.3411,10.7391,11.454,11.6676,11.7982,12.1212,12.3301,12.4916,12.6412,13.01,13.3115,13.3192,13.518,13.6873,13.6873,13.8334,13.9335,13.9412,13.9398,13.9488,13.9488,13.9475,13.9642,13.9642,13.9475,13.9488,13.9398,13.8719,13.8194,13.8117,13.7257,13.6796,13.6796,13.6796,13.6796,13.6796,13.6796,13.6796,13.6796,13.6796,13.6796,13.6796,13.6796,13.6796,13.6796,13.6796,13.7469,13.8364,13.7678,13.797,13.8882,13.811,13.8001,13.837,13.837,13.8616,13.8905,0.0,0.0,0.0,0.0,0.0,0.0,0.0,0.0,0.0,0.0,0.0,0.0,0.0,5.9848,6.1779,6.3653,6.4478,6.5019,6.529,6.6573,6.8201,7.0228,7.205,7.392,7.5894,7.6805,7.7244,7.7073,7.8373,8.2178,8.8174,9.0996,9.5364,10.087,10.4194,10.1184,9.3914,9.786,9.463,8.7215,9.2134,8.9931,8.3985,8.6023,8.6978,8.6615,8.2587,8.4457,8.8302,8.4808,8.5132,8.6978,8.6978,8.7418,8.8078,8.9106,9.0354,9.2847,9.8948,10.0229,10.2024,11.0796,11.2427,11.3082,11.8003,12.1284,12.3567,12.4699,12.8386,13.1179,13.0718,13.3103,13.518,13.518,13.6103,13.7103,13.7565,13.8181,13.8719,13.9181,13.9335,13.9335,13.9335,13.9335,13.9104,13.8565,13.718,13.6719,13.718,13.5872,13.5719,13.6796,13.6796,13.6796,13.6796,13.6796,13.6796,13.6796,13.6796,13.7103,13.7565,13.7565,13.813,13.8827,13.8827,13.8394,13.7815,13.7667,13.8008,13.8583,13.8271,13.8396,13.8733,13.8733,13.8823,13.8984,0.0,0.0,0.0,0.0,0.0,0.0,0.0,0.0,0.0,0.0,0.0,0.0,0.0,0.0,6.3844,6.5566,6.6373,6.6846,6.6846,6.7872,6.9127,7.0496,7.2036,7.3653,7.532,7.5985,7.6587,7.7112,7.7774,8.0487,8.5282,8.8343,9.2721,9.8154,10.3513,10.2726,9.7512,10.2579,9.9475,9.14,9.5511,9.3675,8.8757,8.9767,9.0519,9.0593,8.7485,8.8782,9.1473,8.8888,8.8125,8.8299,0.0,8.8316,8.7582,8.8666,8.9546,9.1212,9.5974,9.6426,9.7539,10.5811,10.7417,10.8377,11.402,11.8613,12.187,12.2716,12.6717,12.9871,12.9333,13.1333,13.318,13.3795,13.4564,13.5334,13.5872,13.6719,13.7411,13.8027,13.8334,13.8488,13.8488,13.8488,13.8104,13.7257,13.618,13.5565,13.5872,13.4872,13.4872,13.6334,13.6411,13.6488,13.6796,13.6796,13.6873,13.718,13.718,13.7719,13.8488,13.8488,13.9024,13.9916,13.9691,13.9065,13.8137,13.8304,13.8539,13.8614,13.8614,13.873,13.8906,13.8906,13.8906,13.8984,0.0,0.0,0.0,0.0,0.0,0.0,0.0,0.0,0.0,0.0,0.0,0.0,0.0,0.0,0.0,6.7729,6.863,6.9035,6.9079,6.9079,6.9484,7.0473,7.1287,7.2606,7.4479,7.4402,7.5299,7.7212,7.7112,7.8761,8.2117,8.6187,8.9784,9.3015,9.6318,10.133,10.7205,10.6596,10.5201,10.3219,9.9695,9.7566,9.6171,9.3308,9.206,9.2427,9.6465,9.5456,9.2813,9.6705,9.4703,9.0959,0.0,0.0,0.0,0.0,0.0,8.9546,0.0,0.0,0.0,9.8925,10.141,10.3893,10.8834,11.4501,11.9023,11.9869,12.4793,12.9025,12.9102,12.9794,13.1025,13.2577,13.3718,13.4334,13.4334,13.5026,13.5488,13.5488,13.618,13.6719,13.6719,13.6719,13.6411,13.5488,13.5411,13.5103,13.4334,13.4334,13.4718,13.5411,13.5488,13.5872,13.6796,13.6796,13.718,13.8117,13.8117,13.8565,13.9321,13.9321,13.9641,13.9926,13.9373,13.9409,13.9707,13.9717,13.9409,13.8906,13.8906,13.8906,13.8906,13.8906,13.8906,13.8906,0.0,0.0,0.0,0.0,0.0,0.0,5.7976,0.0,5.885,0.0,0.0,0.0,0.0,0.0,6.5727,6.7138,6.7472,6.7991,6.9014,6.9079,6.9412,7.028,7.1153,7.2215,7.326,7.4669,7.5316,7.5138,7.6531,7.7644,7.853,8.2161,8.4939,8.7142,9.2207,9.5731,9.832,10.3293,10.0776,9.4244,10.3733,10.1384,9.2941,9.9108,9.8521,9.485,9.7713,9.8814,9.8907,9.9475,9.6832,9.2721,8.9638,0.0,0.0,0.0,0.0,0.0,8.9473,0.0,0.0,0.0,0.0,0.0,10.2313,10.748,11.2483,11.5176,12.0023,12.4332,12.6101,12.8179,12.9717,13.0179,13.2025,13.3423,13.3423,13.4103,13.4641,13.4641,13.4795,13.5026,13.5026,13.5026,13.4872,13.4718,13.3487,13.318,13.418,13.4334,13.4411,13.4564,13.4641,13.5026,13.5872,13.6488,13.718,13.8117,13.8719,13.9412,14.0181,14.0181,14.0786,14.1698,14.1239,14.068,14.0105,13.9392,13.8981,13.8906,13.8906,13.8906,13.8906,13.8906,13.8906,13.8906,0.0,0.0,0.0,0.0,0.0,6.0558,6.1202,6.1717,6.2067,0.0,0.0,0.0,0.0,0.0,6.6509,6.7372,6.8017,6.8822,6.9938,7.0026,7.0229,7.0635,7.1225,7.1937,7.2742,7.3912,7.4648,7.4957,7.6114,7.6996,7.7681,8.0105,8.2076,8.3765,8.7802,9.0005,9.1179,9.7419,9.8501,9.6519,10.3419,10.3586,10.0209,10.4467,10.4027,10.1531,10.452,10.5201,10.4687,10.5589,10.1971,9.6685,9.3161,0.0,0.0,0.0,0.0,0.0,0.0,0.0,0.0,9.1767,0.0,0.0,9.9608,10.5281,11.0714,11.3407,11.8274,12.232,12.3113,12.4787,12.6077,12.6501,12.8412,13.0333,13.1807,13.2718,13.341,13.3718,13.4103,13.4334,13.4334,13.4334,13.4103,13.3795,13.2795,13.2487,13.318,13.318,13.341,13.3718,13.341,13.3795,13.5026,13.5488,13.6411,13.7578,13.8719,13.9796,14.0566,14.1027,14.1634,14.2298,14.1273,14.0717,14.0278,13.8961,13.8423,13.8506,13.8635,13.8727,13.8731,13.8826,13.8906,13.8906,0.0,0.0,6.2968,6.289,6.3598,6.4087,6.3785,6.4528,6.4908,0.0,6.5335,6.582,0.0,0.0,0.0,0.0,6.9222,7.0247,7.1199,7.1289,7.1289,7.1289,7.1289,7.1798,7.2811,7.3025,7.4014,7.5787,7.6106,7.701,7.8479,7.9449,8.0624,8.2003,8.3765,8.5013,8.5967,9.0519,9.6832,10.3733,10.0943,10.4467,11.1221,10.9114,10.8306,10.8799,11.3277,11.2322,10.9386,11.2102,10.8306,10.1918,9.9475,9.4189,8.9344,0.0,8.9931,0.0,0.0,0.0,0.0,0.0,9.3311,0.0,9.8528,10.4799,11.0309,11.2087,11.6823,12.0224,11.92,11.9916,12.0784,12.1696,12.3406,12.6024,12.9563,13.0871,13.1718,13.2423,13.3333,13.3872,13.4026,13.4026,13.3718,13.2885,13.2885,13.2487,13.1718,13.1718,13.2115,13.2808,13.2102,13.2487,13.4103,13.4334,13.5334,13.7026,13.8488,13.9836,14.0672,14.1533,14.1976,14.2213,14.0663,14.0109,14.0183,13.8627,13.787,13.7787,13.8227,13.8387,13.8406,13.882,13.8906,13.8823,0.0,0.0,6.5171,6.7324,6.687,6.6454,6.6997,6.6274,6.5857,6.63,6.6611,6.6995,0.0,0.0,0.0,0.0,6.8197,6.8822,7.1154,7.1289,7.1289,7.1289,7.1289,7.1798,7.2811,7.4212,7.5232,7.5787,7.7976,7.8542,7.7582,7.98,8.0608,8.0404,8.3324,8.4719,8.5013,8.7215,9.14,9.6832,10.1898,10.4614,10.6082,11.0729,10.9334,10.5789,11.313,11.3203,10.9775,10.9679,10.8725,10.6082,9.854,9.4777,9.2574,8.9931,8.8169,0.0,0.0,0.0,0.0,8.9767,9.1663,0.0,9.3451,9.6525,10.0116,10.2563,10.497,10.7674,11.0826,11.3118,11.4775,11.5678,11.8268,12.2024,12.6806,12.8717,12.9487,12.9025,13.0333,13.1487,13.2102,13.2179,13.2102,13.2025,13.2025,13.1872,13.1718,13.1718,13.1795,13.1872,13.1795,13.2179,13.318,13.4564,13.6103,13.7886,13.8796,13.9928,14.1014,14.119,14.1496,14.1836,14.1525,14.077,13.9896,13.8869,13.8236,13.7787,13.8227,13.8387,13.8406,13.882,13.8735,13.8506,0.0,6.6113,6.7658,6.978,6.9891,6.9715,7.0114,6.9853,6.9241,6.8161,6.7683,6.7298,0.0,0.0,0.0,0.0,0.0,0.0,7.1648,7.0878,7.0742,7.183,7.1492,7.1798,7.2811,7.455,7.5793,7.6381,7.8301,7.8993,7.8552,7.9433,7.98,7.989,8.2737,8.3968,8.4115,8.617,8.9564,9.4263,10.0283,10.388,10.6397,11.2029,11.2176,10.99,11.4378,11.4672,11.2689,11.1074,11.012,10.8578,10.41,9.9715,9.5584,9.3161,9.0427,8.8225,8.8169,8.8169,8.839,8.9179,9.0567,0.0,0.0,9.4924,9.7838,9.9949,10.174,10.3475,10.5703,10.7388,10.9012,11.0712,11.3699,11.7023,11.9869,12.4409,12.7563,12.8397,12.9333,13.0179,13.1025,13.1102,13.1333,13.1718,13.1718,13.1718,13.1718,13.1718,13.1718,13.1718,13.1718,13.1872,13.2333,13.4205,13.5602,13.6529,13.8271,13.9461,14.0074,14.1023,14.1534,14.1717,14.1724,14.1073,14.0108,13.9168,13.8433,13.7768,13.8006,13.8219,13.8406,13.882,13.8726,13.8373,0.0,0.0,6.9334,7.068,7.1829,7.2469,7.1913,7.2494,7.2079,6.9429,6.8637,6.8046,6.7178,0.0,0.0,0.0,0.0,0.0,7.2547,7.1422,7.1078,7.2349,7.1853,7.2022,7.305,7.4648,7.6028,7.7072,7.822,7.8993,7.9302,7.8993,7.9286,8.011,8.237,8.4042,8.5143,8.7271,9.0592,9.4923,9.9622,10.3513,10.6963,11.2689,11.4378,11.4084,11.5479,11.5993,11.5626,11.2983,11.1368,11.0289,10.9408,10.41,9.8227,9.7419,9.3804,8.9987,8.9491,8.9344,8.9417,8.962,9.0358,9.12,0.0,0.0,0.0,9.8065,9.9455,10.0575,10.0798,10.1587,10.3112,10.5529,10.8882,11.1528,11.2197,11.8196,12.3485,12.6178,12.6794,12.7409,12.8409,12.9102,13.0025,13.1102,13.1179,13.1179,13.1179,13.141,13.1487,13.1487,13.1487,13.1487,13.1718,13.3592,13.4716,13.5103,13.757,13.9026,13.9161,14.0724,14.1383,14.1669,14.1773,14.1437,14.073,13.9733,13.8883,13.8082,13.8004,13.8073,13.8402,13.873,13.8622,13.8219,6.5702,6.7183,0.0,6.9334,7.161,7.2696,7.0683,7.107,7.1007,6.927,6.949,7.1038,7.433,7.0081,6.9702,0.0,0.0,7.1561,7.4141,7.5025,7.4515,7.2461,7.2326,7.2871,7.4117,7.5015,7.6052,7.7296,7.8872,7.8919,7.7582,7.8993,8.0094,8.0975,8.2647,8.6187,9.0977,9.1987,9.5144,9.9842,10.4027,10.432,10.3125,11.1588,11.2983,11.1001,11.4672,11.5993,11.5479,11.2396,11.1735,11.1368,10.7015,10.3072,9.9842,9.9035,9.5951,9.2794,9.3455,9.3602,9.3088,9.1033,9.1619,9.2077,8.9373,0.0,9.2143,9.0873,0.0,9.226,9.3013,0.0,0.0,9.8673,10.2899,10.6018,10.6294,10.9505,11.3187,11.6484,11.8177,11.9715,12.1331,12.4178,12.7025,12.9333,12.9487,12.9487,12.9487,13.0179,13.0564,13.0564,13.0564,13.1025,13.1718,13.2974,13.4406,13.5868,13.7337,13.8524,13.9589,13.9835,14.0464,14.1475,14.2008,14.2098,14.1938,14.0682,13.9871,13.937,13.859,13.8366,13.8387,13.8406,13.821,13.7761,6.5174,6.6646,0.0,6.8511,7.0014,7.0882,7.0242,7.0995,7.1814,7.2087,7.2697,7.4042,7.6421,7.447,7.4996,0.0,7.7748,7.79,8.2121,7.9189,0.0,7.8139,7.5026,7.3961,7.5523,7.6134,7.6956,7.8038,7.8772,7.8772,7.8096,7.8772,7.9507,8.0419,8.3386,8.7132,9.1289,9.3535,9.6455,9.9916,10.2999,10.3125,10.2465,11.1441,11.4305,11.3497,11.3791,11.4818,11.5259,11.0707,11.1515,11.3497,10.7697,10.4908,10.366,10.2758,9.8447,9.4189,9.5878,9.6411,9.6098,9.507,9.4997,9.485,9.3455,9.1693,9.0207,8.9546,0.0,0.0,0.0,0.0,0.0,0.0,9.9906,10.2181,10.227,10.3503,10.6532,11.2532,11.4226,11.6484,12.0716,12.1485,12.3178,12.6717,12.6486,12.6486,12.7025,12.8717,12.9717,12.9717,13.0179,13.0718,13.1025,13.2664,13.4166,13.5589,13.6799,13.7976,13.9193,13.9663,14.0537,14.1484,14.2175,14.232,14.1772,14.1179,14.0329,13.9196,13.8805,13.8727,13.8721,13.8498,13.8092,13.7779,6.4254,0.0,0.0,6.7314,6.8702,6.9926,7.0645,7.2178,7.3744,7.5157,7.6044,7.7255,7.909,7.7248,7.7889,8.3132,8.1746,8.2876,8.8217,8.3747,8.1953,8.4455,7.8546,7.6224,7.8523,7.7407,7.73,7.8114,7.8207,7.8405,7.8626,7.8626,7.936,8.0934,8.425,8.8002,9.2188,9.5581,9.8781,10.1677,10.432,10.5275,10.5789,11.1368,11.4525,11.5773,11.4011,11.4525,11.5185,11.0289,11.1368,11.418,10.9312,10.7278,10.6816,10.7037,10.2779,9.832,10.0082,10.0596,10.0082,9.8393,9.7419,9.6685,9.5364,9.2427,9.006,9.006,8.9784,0.0,0.0,0.0,9.4108,9.5793,0.0,9.9135,9.8526,9.8788,10.1429,10.7727,11.056,11.3791,11.8407,11.8561,11.9715,12.2716,12.3024,12.3408,12.4332,12.7178,12.9025,12.9179,12.9794,13.041,13.0794,13.2432,13.3882,13.529,13.6503,13.7683,13.8906,13.9609,14.0312,14.1172,14.2109,14.2187,14.1797,14.1562,14.0781,13.9609,13.8979,13.8818,13.8733,13.8377,13.7979,13.7617,6.3165,6.4265,0.0,6.5196,6.8071,7.079,7.2043,7.478,7.6874,7.7615,7.8866,8.0847,8.4092,7.7069,7.6337,8.6889,8.4701,8.4825,8.9835,8.8593,8.8368,8.9874,0.0,8.0076,8.3569,7.8957,7.6664,7.6942,7.7247,7.7803,7.8626,7.8626,8.0314,8.3381,8.5046,8.9379,9.5603,9.9608,10.3627,10.7572,11.0781,11.2983,11.4084,11.1221,11.2616,11.5993,11.592,11.592,11.5479,11.2176,11.1735,11.2322,11.1368,10.9386,10.8233,11.1295,10.9775,10.7205,10.7278,10.7278,10.581,9.9495,9.7879,9.6612,9.1913,9.1253,9.1693,9.1693,9.2354,9.3177,9.3916,9.4684,0.0,0.0,0.0,0.0,0.0,9.5468,9.7394,10.0077,10.6328,11.0714,11.1703,11.4714,11.6561,11.6803,11.9023,12.0793,12.1727,12.5717,12.832,12.9179,12.9179,13.0025,13.1564,13.2123,13.3261,13.529,13.6503,13.7683,13.8906,13.8906,13.9375,14.0312,14.1172,14.2031,14.2734,14.1797,14.1484,14.1171,13.9232,13.8393,13.8373,13.7967,13.7601,13.728,0.0,0.0,0.0,6.3912,6.4758,6.6273,6.8456,7.2767,7.673,7.9138,8.1553,8.503,9.0428,8.8397,8.8899,9.4364,9.5571,9.6671,9.817,9.6874,9.644,9.7521,9.1846,8.8225,0.0,8.5235,8.2718,7.9639,7.9714,7.9653,7.9449,7.9947,8.1342,8.3487,8.6169,9.0375,9.5769,10.0296,10.4317,10.7792,10.99,11.1515,11.2543,11.357,11.4818,11.5993,11.5993,11.5993,11.5479,11.2322,11.2836,11.4378,11.2029,11.0634,11.0634,11.3791,11.1001,10.7278,10.9386,10.9973,10.9312,10.6596,10.39,10.131,9.9108,9.5511,9.2501,9.1913,9.2501,9.3012,9.2587,9.4054,0.0,0.0,0.0,0.0,0.0,9.4215,9.548,9.8096,10.1866,10.5328,10.7934,10.8098,10.956,11.2868,11.3483,11.4176,11.5638,12.1408,12.4704,12.5024,12.7717,12.9717,13.0871,13.1026,13.2238,13.4505,13.5391,13.6731,13.8125,13.9218,14.0234,14.1093,14.1406,14.2031,14.2734,14.1608,14.08,14.0166,13.9193,13.841,13.771,13.7478,13.7396,13.7327,6.5353,6.4695,6.4426,6.3857,6.3977,6.5293,6.8884,7.3678,7.8336,8.2403,8.5444,8.8932,9.3553,9.3641,9.4799,9.8273,10.0011,10.17,10.3511,10.1037,10.08,10.3873,9.7795,9.4114,0.0,9.0522,8.7815,8.557,8.3084,8.2296,8.3177,8.2296,8.272,8.4369,8.6967,9.0415,9.452,9.9908,10.3781,10.647,10.8747,11.0928,11.2983,11.3937,11.4965,11.5993,11.6287,11.6434,11.6213,11.4378,11.5112,11.6434,11.4084,11.3254,11.3717,11.5479,11.3079,11.0289,11.2322,11.291,11.2396,11.0509,10.7991,10.5589,10.3586,10.0136,9.7126,9.6245,9.6759,9.6823,9.5082,9.5804,0.0,0.0,0.0,0.0,0.0,9.3796,9.4797,9.6403,9.9942,10.302,10.4866,10.4636,10.5405,10.8098,10.8713,10.9637,11.1329,11.8407,12.2716,12.3332,12.7409,13.0102,13.0871,13.0871,13.2123,13.4499,13.4972,13.6277,13.8125,13.9132,13.9905,14.0373,14.0889,14.1416,14.1879,14.1372,14.0688,13.989,13.9179,13.8306,13.733,13.733,13.7209,13.7137,6.6729,6.5113,6.4573,6.5233,6.5922,6.8197,7.3267,7.7517,8.1957,8.6996,9.0144,9.2467,9.3848,9.3069,9.4224,9.8548,9.8287,10.0103,10.5431,10.1279,10.182,10.8895,10.0625,9.7912,10.2275,0.0,0.0,0.0,8.723,8.573,8.94,8.5363,8.4278,8.5894,8.7509,8.9564,9.2207,9.8721,10.2465,10.4394,10.7477,11.1515,11.5406,11.2396,11.3277,11.6213,11.6924,11.7218,11.7388,11.8122,11.8416,11.8269,11.7535,11.7314,11.7071,11.6287,11.6066,11.6089,11.6089,11.5993,11.5112,11.1317,11.012,10.904,10.5128,10.4687,10.4908,10.41,10.4614,10.4166,10.0993,9.9716,9.7963,0.0,0.0,0.0,9.2493,9.3873,9.4874,9.5027,9.9952,10.3097,10.2404,10.3789,10.4097,10.2635,10.4713,10.6856,10.879,11.6715,12.2024,12.4024,12.8025,13.0564,13.1718,13.1564,13.2664,13.5206,13.5283,13.6507,13.8671,13.8607,13.8536,13.8519,13.9837,14.0401,14.0479,14.1307,14.1223,14.0332,13.9198,13.8132,13.7291,13.7291,13.7103,13.6873,6.7388,6.8182,6.963,7.0367,7.1637,7.3446,7.5975,8.1066,8.5133,8.6755,9.1293,9.5099,9.7248,9.942,10.0656,10.071,10.3431,10.5103,10.4968,10.6198,10.8265,11.1431,10.8624,10.6159,10.4403,10.226,9.9773,9.6867,9.2042,8.9931,9.0207,8.617,8.4866,8.5894,8.7509,8.9564,9.2207,9.8741,10.3806,10.7477,10.7183,10.9166,11.2396,11.2176,11.4084,11.6874,11.7071,11.7608,11.8122,11.8342,11.8416,11.8416,11.8195,11.8122,11.8122,11.7828,11.7388,11.6874,11.6874,11.6507,11.5796,11.4672,11.2176,10.9679,10.8673,10.667,10.5034,10.4813,10.4981,10.4697,10.3195,10.0907,9.8593,0.0,0.0,0.0,9.2462,9.2864,9.3633,9.4874,9.5797,9.6942,9.8634,9.9788,10.0481,10.0712,10.1327,10.3789,10.8636,11.2175,11.7176,12.387,12.4639,12.7101,13.1718,12.9794,13.0422,13.3403,13.4732,13.5787,13.6723,13.8484,13.9163,13.8969,13.9973,14.079,14.1399,14.1299,14.1078,14.0895,14.0312,13.9209,13.7834,13.7217,13.7721,13.8488,6.8884,7.0923,7.3465,7.4629,7.7886,8.0322,8.027,8.4311,8.7909,8.9517,9.4403,9.823,9.9575,10.2991,10.511,10.4786,10.5989,10.7078,10.814,10.8303,10.9775,11.2763,11.1515,10.9386,10.6816,10.5422,0.0,10.2118,9.5281,9.2798,9.4189,8.839,8.5894,8.6334,8.7288,8.905,9.1767,9.9328,10.4981,10.8799,10.8211,11.012,0.0,11.2616,11.4598,11.7828,11.8122,11.8489,11.9003,11.937,11.9517,11.937,11.9003,11.893,11.8856,11.8489,11.8122,11.7585,11.7291,11.6874,11.6434,11.6066,11.4305,11.2616,11.2616,11.1221,10.9826,10.9386,10.9291,10.8578,10.6009,10.2301,9.8353,9.4513,0.0,0.0,9.1941,9.3864,9.4941,9.4027,9.6095,9.725,9.648,9.648,9.725,9.8875,9.8942,10.0568,10.4328,11.0329,11.5176,11.8484,12.3562,12.6717,12.7794,12.7486,12.8905,13.1999,13.3017,13.4616,13.6674,13.7962,13.8493,13.8424,13.908,13.9917,14.0663,14.0793,14.0888,14.0788,14.034,13.9488,13.8488,13.7719,13.8027,13.8565,7.0942,7.338,7.6604,7.8802,8.3383,8.6504,8.5765,8.7852,9.0495,9.312,9.7807,10.0811,10.0613,10.4283,10.7397,10.8468,10.6866,10.7578,11.1806,10.897,10.9187,11.3593,11.1588,11.012,10.9312,10.6585,10.6198,10.8086,9.7973,9.512,9.8961,9.0647,8.6904,8.6978,8.6978,8.8886,9.2501,10.0062,10.5495,10.9019,10.9826,11.2271,11.5185,11.357,11.5259,11.8489,11.9297,11.9687,11.9884,12.0618,12.0912,12.0765,12.0031,11.9811,11.959,11.893,11.8636,11.8416,11.7608,11.7291,11.7021,11.6213,11.5993,11.5993,11.5993,11.5993,11.5773,11.5112,11.4892,11.3497,10.9334,10.4203,9.8281,9.1339,9.0798,9.1322,9.147,9.5634,9.7173,9.3095,9.8327,0.0,9.5335,9.4489,9.5095,9.7173,9.7326,9.7942,9.9404,10.9021,11.3791,11.2175,12.2793,12.7025,12.3793,12.5486,12.8134,13.1627,13.1162,13.3236,13.7432,13.7218,13.7136,13.7121,13.7667,13.8411,13.9181,14.0181,14.0719,14.0719,13.9796,13.9398,13.9181,13.8488,13.8271,13.8181,7.3043,7.5736,7.9687,8.4448,8.4468,8.597,9.2334,9.3471,9.3409,9.2805,9.7488,10.0391,9.9281,10.3824,10.6492,10.5601,10.7278,10.8812,10.9665,11.0779,11.2322,11.4525,11.3497,11.2616,11.1808,11.1241,11.0779,11.0634,10.1966,9.8304,9.8888,9.0152,8.6334,8.6978,8.6978,9.1675,9.9602,9.9822,10.3806,10.9922,11.0707,11.1441,11.2396,11.5332,11.7241,11.8489,11.9297,12.0104,12.0691,12.0838,12.0912,12.0912,12.0691,12.0691,12.0618,12.0471,11.9957,11.9223,11.8416,11.7682,11.7021,11.6213,11.5993,11.5993,11.5993,11.5993,11.5993,11.5773,11.5259,11.4525,11.3717,10.727,10.089,9.677,9.3414,9.1827,9.3118,9.5865,9.6634,9.3864,9.7644,9.8798,9.4335,9.5711,9.6711,9.6557,9.648,9.8404,10.2789,10.3635,10.7482,11.5407,11.71,12.1177,12.8025,12.5717,12.8123,13.5065,13.2315,13.2516,13.5275,13.5975,13.6077,13.5897,13.6694,13.7488,13.8411,14.0027,14.1027,14.1566,14.0719,13.9873,13.9335,13.9104,13.9104,13.9027,7.8595,7.9407,8.1083,8.479,8.5609,8.7207,9.1367,9.4392,9.5943,9.5314,9.9418,10.2059,10.1483,10.4718,10.6929,10.7024,10.8301,10.9812,11.1366,11.2497,11.3717,11.5406,11.4672,11.3497,11.1808,11.1416,11.0507,10.8809,10.0864,9.7348,9.7808,8.8993,8.5643,8.7124,8.9638,9.3171,9.7496,10.2218,10.5918,10.9123,11.2368,11.3937,11.4598,11.6874,11.8269,11.9076,11.9957,12.0471,12.0912,12.0912,12.0912,12.0912,12.0912,12.0912,12.0912,12.0912,12.0618,12.0104,11.9297,11.8416,11.7585,11.6801,11.6287,11.5993,11.5993,11.5993,11.5993,11.5993,11.5699,11.4672,11.2102,10.8426,10.4476,10.0805,9.7765,9.6077,9.6943,9.8788,9.9404,9.7259,10.1481,10.2491,9.6865,9.825,9.825,9.5172,9.5403,9.6711,9.9183,10.2174,10.6405,11.1791,11.6176,12.0869,12.587,12.6024,12.8721,13.3792,13.2105,13.2877,13.5788,13.5799,13.5866,13.618,13.6103,13.6873,13.8194,13.9412,14.0412,14.1104,14.0335,13.9719,13.9335,13.9335,13.9642,13.9873,8.4464,8.3609,8.3387,8.6093,8.7336,8.8812,9.1215,9.4678,9.7248,9.7681,10.133,10.3776,10.3776,10.5707,10.7195,10.7935,10.8731,10.993,11.1867,11.3007,11.4176,11.5406,11.5185,11.4084,11.2029,11.1094,10.9638,10.7376,10.02,9.6684,9.6737,8.8946,8.6242,8.8208,9.2687,9.5026,9.6332,10.4386,10.8146,10.8925,11.3321,11.5482,11.6284,11.7476,11.8377,11.9303,12.0522,12.0912,12.0912,12.0912,12.0912,12.0912,12.0912,12.0912,12.0912,12.0912,12.0912,12.0691,11.9811,11.9076,11.8489,11.7682,11.6874,11.6287,11.6287,11.6066,11.5993,11.5993,11.5993,11.4818,11.1001,10.9538,10.7683,10.4028,10.1518,9.9871,9.9606,10.1157,10.1772,10.0302,10.4383,10.4878,9.8602,9.9037,9.7818,9.3265,9.404,9.5181,9.6259,10.1481,10.5482,10.7636,11.533,12.0485,12.2639,12.564,12.9025,13.2795,13.2025,13.341,13.6488,13.5795,13.5872,13.6488,13.5795,13.6488,13.8117,13.8796,13.9565,14.0335,13.9796,13.9488,13.9321,13.9719,14.0104,14.0412,8.8422,8.8134,8.902,9.3395,9.0116,8.9765,9.8392,9.7004,9.5614,9.7495,10.133,10.3776,10.3776,10.5707,10.6188,10.4287,10.7221,10.8422,10.6555,11.0979,11.3684,11.3819,11.5112,11.5406,11.4525,11.2957,11.149,10.988,10.4134,9.974,9.6809,9.161,8.9952,9.1529,9.4485,9.8893,10.4204,10.4522,10.722,11.1219,11.1742,11.2437,11.3288,11.551,11.6875,11.7801,12.0133,12.0912,12.0912,12.0912,12.0912,12.0912,12.0912,12.0912,12.0912,12.0912,12.0912,12.0691,11.9811,11.9517,11.9297,11.8489,11.7682,11.7094,11.7094,11.6507,11.5993,11.5993,11.5993,11.592,11.5406,11.2316,10.9024,10.627,10.2605,9.9551,9.8051,9.9925,10.1134,10.0122,10.1187,10.0304,9.5914,9.4856,9.3294,9.0655,9.2536,9.5865,10.0481,9.9173,10.1173,10.7482,11.0791,11.5407,12.1727,12.3485,12.8409,13.6334,13.318,13.3103,13.5565,13.5488,13.5488,13.5565,13.5488,13.6488,13.8117,13.8194,13.8719,13.9488,14.0181,14.0027,13.9488,14.1104,14.0719,13.9642,9.1306,8.9799,8.9165,9.1781,9.1168,9.1869,9.6432,9.8852,10.0515,10.1315,10.2829,10.4309,10.5501,10.6392,10.6494,10.5715,10.7824,10.919,10.9169,11.1989,11.4069,11.4993,11.4752,11.4485,11.4121,11.22,11.0376,10.8874,10.1708,9.7368,9.5809,9.0724,9.0183,9.3717,9.769,10.0942,10.3498,10.6615,10.8704,11.0178,11.1612,11.3189,11.4929,11.6284,11.7885,11.9617,12.0596,12.0912,12.0912,12.0912,12.0912,12.0912,12.0912,12.0912,12.0912,12.0912,12.0912,12.0765,12.0471,11.9957,11.9517,11.9223,11.8489,11.7902,11.7902,11.7682,11.7388,11.7388,11.7388,11.7388,11.7388,11.5699,11.3485,11.1139,10.8502,10.598,10.3893,10.3979,10.4571,10.5176,10.432,10.3426,10.2693,9.8605,9.6021,9.6132,9.4148,9.4095,9.6634,9.8711,10.2866,10.979,11.2483,11.8023,12.6871,12.6563,12.964,13.6026,13.4564,13.4795,13.6334,13.5719,13.518,13.4795,13.5334,13.618,13.727,13.6796,13.7334,13.8565,13.8411,13.8411,13.8719,13.9425,13.9488,13.9488,9.4145,9.2675,9.1392,9.2343,9.3911,9.5395,9.631,10.0622,10.3794,10.373,10.45,10.5592,10.7103,10.7238,10.7035,10.6629,10.858,10.9957,11.0414,11.2993,11.4692,11.531,11.4669,11.433,11.4113,11.1615,10.9804,10.8792,10.1999,9.8102,9.6863,9.3093,9.339,9.7253,10.1267,10.3308,10.3995,10.7915,10.9313,10.9037,11.0919,11.2993,11.5204,11.6219,11.8059,12.0327,12.0694,12.0912,12.0912,12.0912,12.0912,12.0912,12.0912,12.0912,12.0912,12.0912,12.0912,12.0912,12.0912,12.0471,11.9957,11.9957,11.937,11.8783,11.8783,11.8563,11.8416,11.8416,11.8416,11.8342,11.8122,11.7608,11.634,11.3375,11.1897,11.02,10.7599,10.651,10.6277,10.7198,10.4874,10.3985,10.5716,10.1034,9.8269,9.9283,9.6251,9.4941,9.6249,9.8557,10.3087,11.0175,11.1868,11.7176,12.6717,12.6486,12.9102,13.4411,13.5103,13.5795,13.6411,13.6026,13.5411,13.4718,13.5334,13.5795,13.6411,13.5488,13.618,13.7732,13.7026,13.7257,13.8117,13.8411,13.8719,13.9104,9.7107,9.7619,9.7619,9.7619,9.9326,10.0607,10.052,10.2322,10.3793,10.3593,10.6089,10.8016,10.8016,10.7982,10.7441,10.5852,10.9331,11.0506,10.8178,11.3091,11.5439,11.3773,11.5216,11.5675,11.4881,11.1895,11.0287,11.0441,10.7195,10.4022,10.0711,10.0711,10.1406,10.2995,10.489,10.6598,10.7919,10.8006,10.8016,10.8084,10.893,11.0556,11.2794,11.4385,11.649,11.8703,12.0303,12.0912,12.0912,12.0912,12.0912,12.0912,12.0912,12.0912,12.0912,12.0912,12.0912,12.0912,12.0912,12.0912,12.0912,12.0912,12.0178,11.959,11.959,11.9003,11.8416,11.8416,11.8416,11.8195,11.7388,11.7218,11.592,11.1904,11.119,11.0027,10.6828,10.5731,10.4892,10.3923,10.0915,9.9645,10.1435,9.9878,9.8516,9.7757,9.8368,9.9865,10.2404,9.8557,9.9865,10.7482,10.6856,11.0175,11.7869,12.1331,12.587,13.1795,13.4334,13.5488,13.5488,13.6411,13.6334,13.5488,13.5488,13.5488,13.5488,13.4641,13.5334,13.6796,13.6796,13.7257,13.8194,13.9027,13.8796,13.8181,9.4653,9.6401,9.7778,9.8166,10.0773,10.2787,10.2812,10.4581,10.612,10.6528,10.7407,10.8354,10.9471,10.9132,10.8591,10.8219,10.9234,10.9992,11.0336,11.2012,11.3186,11.37,11.1727,11.05,11.0289,10.7785,10.6485,10.6476,10.3999,10.1981,10.0418,10.0418,10.1992,10.489,10.55,10.6591,10.8006,10.7982,10.8321,10.8862,10.9606,11.173,11.4306,11.5407,11.7604,12.0204,12.0694,12.0912,12.0912,12.0912,12.0912,12.0912,12.0912,12.0912,12.0912,12.0912,12.0912,12.0912,12.0912,12.0912,12.0912,12.0912,12.0691,12.0471,12.0471,12.0324,12.0104,12.0104,12.0104,12.0031,11.9811,11.8783,11.7094,11.4084,11.3618,11.251,10.9287,10.8127,10.6595,10.3968,10.2293,10.2284,10.4625,10.2719,10.2268,10.4417,10.1018,9.9635,10.1635,10.3174,10.7328,11.4407,11.5407,11.8715,12.4627,12.4639,12.7332,13.2577,13.4026,13.5026,13.5488,13.518,13.4564,13.3795,13.3795,13.3795,13.3795,13.418,13.4872,13.6026,13.6565,13.7026,13.718,13.7488,13.7411,13.7334,9.622,9.8268,10.0089,10.0407,10.2968,10.4711,10.3912,10.5783,10.717,10.6832,10.7982,10.9166,11.0215,11.008,11.0012,11.0012,11.1053,11.1917,11.2193,11.3434,11.4001,11.3713,11.1507,11.0114,10.9837,10.7797,10.676,10.6835,10.462,10.3179,10.2705,10.2705,10.399,10.6223,10.6223,10.69,10.8016,10.8321,10.893,10.9675,11.1039,11.312,11.55,11.6577,11.8623,12.0912,12.0912,12.0912,12.0912,12.0912,12.0912,12.0912,12.0912,12.0912,12.0912,12.0912,12.0912,12.0912,12.0912,12.0912,12.0912,12.0912,12.0912,12.0912,12.0912,12.0912,12.0912,12.0912,12.0912,12.0765,12.0471,11.9297,11.7828,11.5993,11.5185,11.4011,11.1684,10.9809,10.7769,10.5435,10.4197,10.4582,10.7526,10.7039,10.7021,10.8482,10.5482,10.402,10.5097,10.5867,10.9406,11.6176,11.8023,12.1177,12.6024,12.5332,12.7332,13.2115,13.3564,13.4564,13.5026,13.4487,13.3795,13.3038,13.3038,13.3038,13.3038,13.318,13.418,13.5488,13.5795,13.618,13.6796,13.6796,13.6796,13.6873,10.0704,10.244,10.3812,10.3926,10.5504,10.6223,10.4126,10.6223,10.7306,10.5309,10.8118,11.0283,11.0418,11.1099,11.1575,11.1575,11.4122,11.517,11.3814,11.6359,11.6719,11.3685,11.3385,11.3039,11.2213,11.08,11.0084,11.0102,10.8004,10.69,10.69,10.69,10.69,10.69,10.7001,10.7373,10.8084,10.893,10.9674,11.0591,11.2792,11.4663,11.6326,11.7902,11.9526,12.0912,12.0912,12.0912,12.0912,12.0912,12.0912,12.0912,12.0912,12.0912,12.0912,12.0912,12.0912,12.0912,12.0912,12.0912,12.0912,12.0912,12.0912,12.0912,12.0912,12.0912,12.0912,12.0912,12.0912,12.0691,11.9811,11.9003,11.8195,11.7365,11.5993,11.4621,11.3609,11.0703,10.8382,10.738,10.6121,10.6574,10.9803,11.1769,11.2231,11.0506,11.1066,11.1626,11.1791,10.7405,10.7867,11.4484,11.633,11.91,12.3178,12.4012,12.6486,13.0718,13.3103,13.418,13.4103,13.4026,13.3487,13.2808,13.2808,13.2885,13.2885,13.2102,13.318,13.5334,13.4564,13.5334,13.6719,13.6796,13.6796,13.6796,10.0015,10.2011,10.3912,10.4403,10.582,10.6697,10.6223,10.717,10.8016,10.8118,10.9403,11.0486,11.1095,11.2264,11.3167,11.3167,11.2672,11.2819,11.3579,11.3304,11.273,11.1992,11.0324,10.9303,10.9065,10.8186,10.7982,10.8521,10.7372,10.69,10.69,10.69,10.69,10.69,10.7509,10.8185,10.9031,10.9674,11.0486,11.1337,11.2999,11.4663,11.6326,11.7902,11.9526,12.0912,12.0912,12.0912,12.0912,12.0912,12.0912,12.0912,12.0912,12.0912,12.0912,12.0912,12.0912,12.0912,12.0912,12.0912,12.0912,12.0912,12.0912,12.0912,12.0912,12.0912,12.0912,12.0912,12.0912,12.0838,12.0618,11.9884,11.9076,11.8195,11.7314,11.5531,11.2169,11.0493,10.8386,10.5116,10.6604,10.8271,10.9086,11.2509,11.3896,11.2207,11.2279,11.3022,11.433,11.4484,11.6715,12.1639,12.2716,12.4409,12.6705,12.764,12.9487,13.241,13.3026,13.3026,13.2333,13.1025,13.0718,13.1102,13.1102,13.141,13.2025,13.25,13.3026,13.3718,13.4795,13.5488,13.5872,13.6565,13.6796,13.6719,10.3023,10.419,10.5268,10.5583,10.6392,10.6967,10.7373,10.8118,10.8794,10.9606,11.0283,11.0959,11.1365,11.2804,11.4038,11.4725,11.3987,11.3607,11.368,11.2891,11.211,11.1368,11.0215,10.9606,10.9606,10.92,10.8997,10.9132,10.7881,10.7373,10.7373,10.7103,10.7103,10.7441,10.7813,10.8557,10.9674,11.008,11.1105,11.2569,11.4198,11.5793,11.743,11.9012,12.0056,12.0912,12.0912,12.0912,12.0912,12.0912,12.0912,12.0912,12.0912,12.0912,12.0912,12.0912,12.0912,12.0912,12.0912,12.0912,12.0912,12.0912,12.0912,12.0912,12.0912,12.0912,12.0912,12.0912,12.0912,12.0912,12.0912,12.0178,11.9541,11.9003,11.7042,11.4572,11.2011,11.0303,10.8872,10.7385,10.9167,11.1001,11.2069,11.5067,11.6187,11.4458,11.5111,11.5869,11.6407,11.8407,12.0869,12.4024,12.5717,12.7025,12.7859,12.9487,13.0718,13.1333,13.2025,13.1795,13.0487,12.964,12.9487,12.9871,13.0333,13.0718,13.1179,13.2115,13.2577,13.3115,13.4411,13.518,13.5565,13.6488,13.6796,13.6719,10.69,10.69,10.69,10.69,10.69,10.7103,10.7915,10.8659,10.9505,11.0215,11.0892,11.1365,11.1365,11.2968,11.4601,11.6032,11.612,11.5483,11.4198,11.362,11.2804,11.1538,11.1365,11.1365,11.1365,11.1298,11.0892,11.0283,10.893,10.8185,10.8185,10.7509,10.7576,10.8185,10.8321,10.9132,11.0283,11.0418,11.1685,11.3777,11.5493,11.7076,11.8676,12.0278,12.0912,12.0912,12.0912,12.0912,12.0912,12.0912,12.0912,12.0912,12.0912,12.0912,12.0912,12.0912,12.0912,12.0912,12.0912,12.0912,12.0912,12.0912,12.0912,12.0912,12.0912,12.0912,12.0912,12.0912,12.0912,12.0912,12.0912,12.0324,11.959,11.9003,11.603,11.3335,11.1941,11.0281,10.9704,11.1334,11.2325,11.3782,11.6099,11.7806,11.8227,11.6877,11.8281,11.91,11.8638,12.0716,12.2716,12.4178,12.6628,12.8012,12.832,13.0564,13.0871,12.941,13.0794,13.0564,12.9025,12.8871,12.8871,12.9102,12.9871,13.041,13.0564,13.141,13.2102,13.2885,13.3795,13.4487,13.518,13.6103,13.6411,13.6334,10.69,10.69,10.69,10.69,10.69,10.7103,10.7915,10.8659,10.9505,11.0215,11.0892,11.1365,11.1365,11.4007,11.5783,11.612,11.612,11.6032,11.5693,11.3232,11.1679,11.1365,11.1365,11.1365,11.1365,11.0824,11.0418,11.0283,10.9403,10.8997,10.8997,10.8896,10.8862,10.8997,10.9674,11.008,11.0283,11.0959,11.2231,11.3777,11.5493,11.7076,11.8676,12.0278,12.0912,12.0912,12.0912,12.0912,12.0912,12.0912,12.0912,12.0912,12.0912,12.0912,12.0912,12.0912,12.0912,12.0912,12.0912,12.0912,12.0912,12.0912,12.0912,12.0912,12.0912,12.0912,12.0912,12.0912,12.0912,12.0912,12.0912,12.0765,11.959,11.614,11.4994,11.3409,10.9823,11.0144,11.1091,11.2223,11.3574,11.5019,11.5984,11.7227,11.8006,11.843,11.9474,12.0716,12.2012,12.3101,12.4178,12.5178,12.7025,12.864,13.0102,13.1179,13.1179,13.0333,13.0564,12.9794,12.8089,12.7409,12.7486,12.8179,12.9025,12.9794,13.0564,13.141,13.1795,13.2025,13.2885,13.3269,13.35,13.4411,13.4718,13.4564,10.69,10.69,10.69,10.69,10.7238,10.7779,10.8524,10.9268,11.008,11.0824,11.1162,11.1365,11.1365,11.3393,11.4819,11.4819,11.4819,11.4819,11.4819,11.2739,11.1365,11.1365,11.1365,11.1365,11.1365,11.1095,11.0892,11.0892,11.0215,10.9809,10.9809,10.9438,10.9403,10.9809,11.0147,11.0486,11.0961,11.2061,11.3523,11.5088,11.6662,11.8409,11.9929,12.0621,12.0912,12.0912,12.0912,12.0912,12.0912,12.0912,12.0912,12.0912,12.0912,12.0912,12.0912,12.0912,12.0912,12.0912,12.0912,12.0912,12.0912,12.0912,12.0912,12.0912,12.0912,12.0912,12.0912,12.0912,12.0912,12.0912,12.0912,12.0912,12.0324,11.8416,11.66,11.4802,11.2889,11.3318,11.371,11.3168,11.5293,11.6715,11.6104,11.7395,11.8385,11.8813,12.0184,12.1562,12.2781,12.3716,12.4486,12.5409,12.7486,12.941,13.1102,13.1487,13.1102,12.9794,12.9794,12.8871,12.7178,12.6883,12.6871,12.7332,12.864,12.941,12.9871,13.1179,13.1718,13.1795,13.2731,13.3256,13.3718,13.418,13.4564,13.4795,10.69,10.69,10.69,10.69,10.7509,10.8321,10.9099,10.9809,11.0621,11.1298,11.1365,11.1365,11.1365,11.2804,11.3717,11.3717,11.3717,11.3717,11.3717,11.2266,11.1365,11.1365,11.1365,11.1365,11.1365,11.1365,11.1365,11.1365,11.0824,11.0621,11.0486,11.0012,11.0012,11.0621,11.0621,11.1067,11.1958,11.32,11.478,11.6791,11.7984,11.95,12.0888,12.0499,12.0572,12.0888,12.0499,12.0597,12.0912,12.0912,12.0912,12.0912,12.0912,12.0912,12.0912,12.0912,12.0912,12.0912,12.0912,12.0912,12.0912,12.0912,12.0912,12.0912,12.0912,12.0912,12.0912,12.0912,12.0912,12.0912,12.0912,12.0912,12.0618,11.9884,11.7635,11.5889,11.5661,11.5822,11.5564,11.4821,11.7027,11.8031,11.6379,11.7989,11.908,11.9098,12.0796,12.2408,12.3408,12.4101,12.487,12.587,12.8102,12.9871,13.141,13.141,13.0718,12.9179,12.9025,12.8102,12.6729,12.6729,12.6729,12.6806,12.8486,12.9179,12.9333,13.1025,13.1718,13.1795,13.241,13.3103,13.3718,13.3718,13.4103,13.4411,10.69,10.69,10.69,10.69,10.7509,10.8321,10.9099,10.9809,11.0621,11.1298,11.1365,11.1365,11.1365,11.2804,11.3717,11.3717,11.3717,11.3717,11.3717,11.2266,11.1365,11.1365,11.1365,11.1365,11.1365,11.1365,11.1365,11.1365,11.1298,11.1298,11.1298,11.1298,11.1298,11.1298,11.1298,11.2095,11.3523,11.3653,11.5523,11.8283,11.8463,11.95,12.0694,11.9221,11.9628,12.0694,11.9221,11.9581,12.0912,12.0912,12.0912,12.0912,12.0912,12.0912,12.0912,12.0912,12.0912,12.0912,12.0912,12.0912,12.0912,12.0912,12.0912,12.0912,12.0912,12.0912,12.0912,12.0912,12.0912,12.0912,12.0912,12.0912,11.9884,11.6897,11.6178,11.5735,11.4994,11.4921,11.5691,11.7766,11.8312,11.8069,11.7168,11.8771,11.9893,12.0003,12.1713,12.3485,12.5101,12.5332,12.6024,12.7717,12.8717,12.964,13.0564,13.0564,13.0102,12.9179,12.8409,12.7486,12.6729,12.6729,12.6729,12.6806,12.8486,12.9179,12.9333,13.1025,13.1718,13.1718,13.1795,13.1795,13.1872,13.1872,13.1872,13.1872,10.69,10.69,10.7035,10.7509,10.8185,10.8997,10.9809,11.0486,11.1095,11.1365,11.1365,11.1365,11.1365,11.1923,11.23,11.23,11.23,11.23,11.23,11.1681,11.1365,11.1365,11.1365,11.1365,11.1365,11.1365,11.1365,11.1365,11.1365,11.1365,11.1365,11.1365,11.1365,11.14,11.2435,11.3167,11.3777,11.5783,11.743,11.8596,11.9603,12.0401,12.0694,11.9117,11.9526,12.067,11.9091,11.9479,12.0912,12.0912,12.0912,12.0912,12.0912,12.0912,12.0912,12.0912,12.0912,12.0912,12.0912,12.0912,12.0912,12.0912,12.0912,12.0912,12.0912,12.0912,12.0912,12.0912,12.0912,12.0912,12.0912,12.0912,12.0471,11.9223,11.9036,11.893,11.861,11.8594,11.8709,11.9124,11.9076,11.8783,11.7975,11.9687,12.0816,12.0816,12.263,12.4178,12.5332,12.587,12.6486,12.7101,12.8025,12.8794,12.9717,12.9717,12.9333,12.8397,12.8102,12.7486,12.6729,12.6729,12.6729,12.6806,12.7871,12.8717,12.9333,13.0487,13.1179,13.1718,13.1718,13.2025,13.241,13.1872,13.2025,13.2269,10.69,10.69,10.7103,10.7915,10.8659,10.9403,11.0215,11.0892,11.1365,11.1365,11.1365,11.1365,11.1365,11.1365,11.1365,11.1365,11.1365,11.1365,11.1365,11.1365,11.1365,11.1365,11.1365,11.1365,11.1365,11.1365,11.1365,11.1365,11.1365,11.1365,11.1365,11.1365,11.1679,11.2232,11.3164,11.4325,11.5341,11.7019,11.8283,11.9346,11.9423,11.9704,11.9881,11.7819,11.8283,11.9906,11.8283,11.9117,12.0912,12.0912,12.0912,12.0912,12.0912,12.0912,12.0912,12.0912,12.0912,12.0912,12.0912,12.0912,12.0912,12.0912,12.0912,12.0912,12.0912,12.0912,12.0912,12.0912,12.0912,12.0912,12.0912,12.0912,12.0912,12.0912,12.0912,12.0912,12.0912,12.0912,12.0691,12.0104,12.0031,11.9829,11.9338,12.0728,12.177,12.2079,12.3597,12.487,12.5794,12.6421,12.6729,12.6729,12.7178,12.7794,12.8409,12.8717,12.8486,12.7859,12.7628,12.7178,12.6729,12.6729,12.6729,12.6717,12.7563,12.8397,12.9333,13.0102,13.1025,13.1718,13.1718,13.2102,13.2487,13.1872,13.2102,13.2423,10.69,10.69,10.7103,10.7915,10.8659,10.9505,11.0215,11.0892,11.1365,11.1365,11.1365,11.1365,11.1365,11.1365,11.1365,11.1365,11.1365,11.1365,11.1365,11.1365,11.1365,11.1365,11.1365,11.1365,11.1365,11.1365,11.1365,11.1365,11.1365,11.1365,11.1365,11.14,11.2232,11.3717,11.368,11.5523,11.8409,11.6791,11.7984,12.0597,11.7358,11.7119,11.8093,11.4912,11.5704,11.8328,11.6704,11.8247,12.0912,12.0912,12.0912,12.0912,12.0912,12.0912,12.0912,12.0912,12.0912,12.0912,12.0912,12.0912,12.0912,12.0912,12.0912,12.0912,12.0912,12.0912,12.0912,12.0912,12.0912,12.0912,12.0912,12.0912,12.0912,12.0912,12.0912,12.0912,12.0912,12.0912,12.0912,12.0912,12.0912,12.0989,12.1068,12.1979,12.2878,12.3913,12.489,12.5794,12.6729,12.6729,12.6729,12.6729,12.6729,12.6729,12.6729,12.7486,12.7859,12.7859,12.7101,12.6729,12.6729,12.6729,12.6729,12.6717,12.7486,12.8409,12.9333,13.0102,13.1025,13.1718,13.1718,13.1718,13.1718,13.1718,13.1718,13.1487,10.69,10.7306,10.7915,10.8727,10.9471,11.0215,11.0959,11.1298,11.123,11.0689,11.1095,11.1162,11.0689,11.1095,11.1365,11.1365,11.1365,11.1365,11.1365,11.1365,11.1365,11.1365,11.1365,11.1365,11.1365,11.1365,11.1365,11.1365,11.1365,11.1365,11.14,11.2468,11.3298,11.3814,11.6091,11.6962,11.6877,11.747,11.7709,11.7414,11.6501,11.6414,11.6617,11.4476,11.5704,11.8328,11.6704,11.8247,12.0912,12.0912,12.0912,12.0912,12.0912,12.0912,12.0912,12.0912,12.0912,12.0912,12.0912,12.0912,12.0912,12.0912,12.0912,12.0912,12.0912,12.0912,12.0912,12.0912,12.0912,12.0912,12.0912,12.0912,12.0912,12.0912,12.0912,12.0912,12.0912,12.0912,12.0912,12.0912,12.1463,12.1885,12.1929,12.3436,12.4521,12.4783,12.5811,12.6409,12.6729,12.6729,12.6729,12.6729,12.6729,12.6729,12.6729,12.6871,12.7101,12.7101,12.6794,12.6729,12.6729,12.6729,12.6729,12.6729,12.7025,12.7486,12.832,12.864,12.9487,13.0871,13.0871,13.1179,13.1718,13.1718,13.1333,13.0871,10.69,10.7509,10.8321,10.9099,10.9809,11.0451,11.1298,11.1197,11.0824,11.0418,11.0418,11.0385,10.9877,11.0317,11.0486,11.0486,11.0824,11.0959,11.0959,11.123,11.1365,11.1365,11.1365,11.1365,11.1365,11.1365,11.1365,11.1365,11.1365,11.1681,11.2265,11.3298,11.4381,11.5674,11.6962,11.7402,11.7019,11.6733,11.6414,11.6032,11.4725,11.4601,11.5004,11.3429,11.4827,11.7386,11.6401,11.8247,12.0912,12.0912,12.0912,12.0912,12.0912,12.0912,12.0912,12.0912,12.0912,12.0912,12.0912,12.0912,12.0912,12.0912,12.0912,12.0912,12.0912,12.0912,12.0912,12.0912,12.0912,12.0912,12.0912,12.0912,12.0912,12.0912,12.0912,12.0912,12.0912,12.0912,12.1029,12.1371,12.199,12.2601,12.3371,12.4486,12.539,12.5768,12.6415,12.6729,12.6729,12.6729,12.6729,12.6729,12.6729,12.6729,12.6729,12.6729,12.6729,12.6729,12.6729,12.6729,12.6729,12.6729,12.6729,12.6729,12.6729,12.7178,12.7859,12.7859,12.8705,13.0025,13.0025,13.0333,13.0718,13.0718,13.0564,13.0487,10.6967,10.7576,10.8388,10.9234,10.9877,11.0621,11.1298,11.0824,11.0283,11.0215,10.9606,10.9234,10.9065,10.9234,10.9234,10.9234,10.9809,11.0215,11.0215,11.0892,11.1298,11.1298,11.1365,11.1365,11.1365,11.1365,11.1365,11.1365,11.1365,11.2095,11.349,11.362,11.528,11.8011,11.6704,11.6777,11.7874,11.4872,11.4476,11.5362,11.2604,11.2232,11.3295,11.1855,11.3364,11.612,11.612,11.8247,12.0912,12.0912,12.0912,12.0912,12.0912,12.0912,12.0912,12.0912,12.0912,12.0912,12.0912,12.0912,12.0912,12.0912,12.0912,12.0912,12.0912,12.0912,12.0912,12.0912,12.0912,12.0912,12.0912,12.0912,12.0912,12.0912,12.0912,12.0912,12.0912,12.0912,12.1214,12.2196,12.2428,12.3217,12.5026,12.5315,12.5726,12.6603,12.6729,12.6729,12.6729,12.6729,12.6729,12.6729,12.6729,12.6729,12.6729,12.6729,12.6729,12.6729,12.6729,12.6729,12.6729,12.6729,12.6729,12.6729,12.6729,12.7101,12.7794,12.7794,12.832,12.9102,12.9102,12.9102,12.9179,12.9179,12.9678,13.0432,10.761,10.8388,10.92,10.9877,11.0689,11.123,11.1365,11.0824,11.008,10.9471,10.9302,10.9031,10.8321,10.8794,10.9234,10.9234,10.9268,10.9403,10.9403,11.008,11.0486,11.0486,11.1095,11.1365,11.1365,11.1365,11.1365,11.1365,11.1365,11.1575,11.1923,11.3065,11.4102,11.4788,11.5734,11.5613,11.4694,11.4038,11.32,11.2368,11.1714,11.161,11.1854,11.1505,11.3364,11.612,11.612,11.8247,12.0912,12.0912,12.0912,12.0912,12.0912,12.0912,12.0912,12.0912,12.0912,12.0912,12.0912,12.0912,12.0912,12.0912,12.0912,12.0912,12.0912,12.0912,12.0912,12.0912,12.0912,12.0912,12.0912,12.0912,12.0912,12.0912,12.0912,12.0912,12.0912,12.0912,12.1214,12.2196,12.3022,12.3902,12.5072,12.5879,12.6491,12.6717,12.6729,12.6729,12.6729,12.6729,12.6729,12.6729,12.6729,12.6729,12.6729,12.6729,12.6729,12.6729,12.6729,12.6729,12.6729,12.6729,12.6729,12.6729,12.6729,12.6806,12.7025,12.7025,12.7409,12.8179,12.8179,12.864,12.9179,12.9179,12.95,13.0186,10.7881,10.893,10.9809,11.0215,11.0892,11.1365,11.1365,11.0486,10.9606,10.9302,10.8625,10.7915,10.7509,10.7881,10.7708,10.6706,10.697,10.717,10.717,10.7906,10.8698,10.9707,11.008,11.0385,11.0385,11.0385,11.0689,11.1365,11.1365,11.1818,11.2502,11.3295,11.4096,11.478,11.4872,11.4476,11.3653,11.2902,11.2095,11.1365,11.1365,11.1365,11.1365,11.1365,11.2904,11.5096,11.5783,11.8247,12.0912,12.0912,12.0912,12.0912,12.0912,12.0912,12.0912,12.0912,12.0912,12.0912,12.0912,12.0912,12.0912,12.0912,12.0912,12.0912,12.0912,12.0912,12.0912,12.0912,12.0912,12.0912,12.0912,12.0912,12.0912,12.0912,12.0912,12.0912,12.0912,12.0912,12.1371,12.2769,12.3521,12.4378,12.5768,12.6363,12.6729,12.6729,12.6729,12.6729,12.6729,12.6729,12.6729,12.6729,12.6729,12.6729,12.6729,12.6729,12.6729,12.6729,12.6729,12.6729,12.6729,12.6729,12.6729,12.6729,12.6729,12.6729,12.6729,12.6729,12.6871,12.7332,12.7332,12.7563,12.8025,12.8025,12.8741,13.009,10.8286,10.9403,11.0283,11.0486,11.1027,11.1365,11.1365,11.008,10.9234,10.9234,10.7881,10.69,10.69,10.6562,10.5707,10.4022,10.4078,10.4326,10.4326,10.5314,10.6687,10.8411,10.8927,10.9234,10.9234,10.9234,10.9911,11.123,11.123,11.189,11.3262,11.3262,11.3969,11.5179,11.391,11.3262,11.3164,11.1889,11.1365,11.1365,11.1365,11.1365,11.1365,11.1365,11.2502,11.4287,11.5573,11.8247,12.0912,12.0912,12.0912,12.0912,12.0912,12.0912,12.0912,12.0912,12.0912,12.0912,12.0912,12.0912,12.0912,12.0912,12.0912,12.0912,12.0912,12.0912,12.0912,12.0912,12.0912,12.0912,12.0912,12.0912,12.0912,12.0912,12.0912,12.0912,12.0912,12.0912,12.1605,12.3276,12.3725,12.4512,12.6286,12.6401,12.6529,12.6717,12.6729,12.6729,12.6729,12.6729,12.6729,12.6729,12.6729,12.6729,12.6729,12.6729,12.6729,12.6729,12.6729,12.6729,12.6729,12.6729,12.6729,12.6729,12.6729,12.6729,12.6729,12.6729,12.6729,12.6729,12.6729,12.6729,12.6676,12.7207,12.8493,13.0493,10.9707,11.0215,11.0486,11.1095,11.1298,11.1365,11.1365,11.008,10.9234,10.9234,10.7881,10.69,10.69,10.5293,10.4064,10.3812,10.23,10.1382,10.1382,10.3714,10.5276,10.5596,10.7896,10.9234,10.9234,10.9234,10.9606,11.0383,11.0383,11.0896,11.1681,11.1681,11.182,11.1958,11.1785,11.1681,11.1714,11.147,11.1365,11.1365,11.1365,11.1365,11.1365,11.1365,11.32,11.5783,11.5991,11.8247,12.0912,12.0912,12.0912,12.0912,12.0912,12.0912,12.0912,12.0912,12.0912,12.0912,12.0912,12.0912,12.0912,12.0912,12.0912,12.0912,12.0912,12.0912,12.0912,12.0912,12.0912,12.0912,12.0912,12.0912,12.0912,12.0912,12.0912,12.0912,12.0912,12.0912,12.1307,12.2407,12.3294,12.4182,12.533,12.5419,12.5768,12.6603,12.6729,12.6729,12.6729,12.6729,12.6729,12.6729,12.6729,12.6729,12.6729,12.6729,12.6729,12.6729,12.6729,12.6729,12.6729,12.6729,12.6729,12.6729,12.6729,12.6729,12.6729,12.6729,12.6729,12.6729,12.6729,12.6729,12.6937,12.8968,13.0606,13.2024,11.0215,11.0621,11.1027,11.1298,11.1365,11.1365,11.1365,11.008,10.9234,10.9234,10.7881,10.69,10.69,10.4981,10.2902,10.0576,9.9586,9.9071,9.9071,10.0194,10.1933,10.4231,10.5461,10.668,10.7915,10.7915,10.8321,10.8997,10.9471,11.008,11.0824,11.0824,11.1027,11.1365,11.1365,11.1365,11.1365,11.1365,11.1365,11.1365,11.1365,11.1365,11.1365,11.1365,11.2334,11.3685,11.5493,11.7625,11.9704,12.0597,12.0912,12.0912,12.0912,12.0912,12.0912,12.0912,12.0912,12.0912,12.0912,12.0912,12.0912,12.0912,12.0912,12.0912,12.0912,12.0912,12.0912,12.0912,12.0912,12.0912,12.0912,12.0912,12.0912,12.0912,12.0912,12.0912,12.0912,12.0912,12.1214,12.2196,12.3217,12.3996,12.4412,12.4901,12.5405,12.581,12.644,12.6729,12.6729,12.6729,12.6729,12.6729,12.6729,12.6729,12.6729,12.6729,12.6729,12.6729,12.6729,12.6729,12.6729,12.6729,12.6729,12.6729,12.6729,12.6729,12.6729,12.6729,12.6729,12.6729,12.6729,12.7096,12.7763,12.9375,13.0693,13.1904]}]]